[[{"header":{"parameterUnit":"m.s-1","parameterCategory":1,"la1":31.0,"la2":29.5877,"lo1":-88.7671,"lo2":-86.6584,"dy":0.0162,"dx":0.0185,"nx":115,"ny":88,"refTime":"2024-09-24T06:00:00:Z","depth":0,"parameterNumber":2,"parameterNumberName":"U-component_of_WINDS"},"data":[0.0,0.0,0.0,0.0,0.0,0.0,0.0,0.0,0.0,0.0,0.0,0.0,0.0,0.0,0.0,0.0,0.0,0.0,0.0,0.0,0.0,0.0,0.0,0.0,0.0,0.0,0.0,0.0,0.0,0.0,0.0,0.0,0.0,0.0,0.0,0.0,0.0,0.0,0.0,0.0,0.0,0.0,0.0,0.0,0.0,0.0,0.0,0.0,0.0,0.0,0.0,0.0,0.0,0.0,0.0,0.0,0.0,0.0,0.0,0.0,0.0,0.0,0.0,0.0,0.0,0.0,0.0,0.0,0.0,0.0,0.0,0.0,0.0,0.0,0.0,0.0,0.0,0.0,0.0,0.0,0.0,0.0,0.0,0.0,0.0,0.0,0.0,0.0,0.0,0.0,0.0,0.0,0.0,0.0,0.0,0.0,0.0,0.0,0.0,0.0,0.0,0.0,0.0,0.0,0.0,0.0,0.0,0.0,0.0,0.0,0.0,0.0,0.0,0.0,0.0,0.0,0.0,0.0,0.0,0.0,0.0,0.0,0.0,0.0,0.0,0.0,0.0,0.0,0.0,0.0,0.0,0.0,0.0,0.0,0.0,0.0,0.0,0.0,0.0,0.0,0.0,0.0,0.0,0.0,0.0,0.0,0.0,0.0,0.0,0.0,0.0,0.0,0.0,0.0,0.0,0.0,0.0,0.0,0.0,0.0,0.0,0.0,0.0,0.0,0.0,0.0,0.0,0.0,0.0,0.0,0.0,0.0,0.0,0.0,0.0,0.0,0.0,0.0,0.0,0.0,0.0,0.0,0.0,0.0,0.0,0.0,0.0,0.0,0.0,0.0,0.0,0.0,0.0,0.0,0.0,0.0,0.0,0.0,0.0,0.0,0.0,0.0,0.0,0.0,0.0,0.0,0.0,0.0,0.0,0.0,0.0,0.0,0.0,0.0,0.0,0.0,0.0,0.0,0.0,0.0,0.0,0.0,0.0,0.0,0.0,0.0,0.0,0.0,0.0,0.0,0.0,0.0,0.0,0.0,0.0,0.0,0.0,0.0,0.0,0.0,0.0,0.0,0.0,0.0,0.0,0.0,0.0,0.0,0.0,0.0,0.0,0.0,0.0,0.0,0.0,0.0,0.0,0.0,0.0,0.0,0.0,0.0,0.0,0.0,0.0,0.0,0.0,0.0,0.0,0.0,0.0,0.0,0.0,0.0,0.0,0.0,0.0,0.0,0.0,0.0,0.0,0.0,0.0,0.0,0.0,0.0,0.0,0.0,0.0,0.0,0.0,0.0,0.0,0.0,0.0,0.0,0.0,0.0,0.0,0.0,0.0,0.0,0.0,0.0,0.0,0.0,0.0,0.0,0.0,0.0,0.0,0.0,0.0,0.0,0.0,0.0,0.0,0.0,0.0,0.0,0.0,0.0,0.0,0.0,0.0,0.0,0.0,0.0,0.0,0.0,0.0,0.0,0.0,0.0,0.0,0.0,0.0,0.0,0.0,0.0,0.0,0.0,0.0,0.0,0.0,0.0,0.0,0.0,0.0,0.0,0.0,0.0,0.0,0.0,0.0,0.0,0.0,0.0,0.0,0.0,0.0,0.0,0.0,0.0,0.0,0.0,0.0,0.0,0.0,0.0,0.0,0.0,0.0,0.0,0.0,0.0,0.0,0.0,0.0,0.0,0.0,0.0,0.0,0.0,0.0,0.0,0.0,0.0,0.0,0.0,0.0,0.0,0.0,0.0,0.0,0.0,0.0,0.0,0.0,0.0,0.0,0.0,0.0,0.0,0.0,0.0,0.0,0.0,0.0,0.0,0.0,0.0,0.0,0.0,0.0,0.0,0.0,0.0,0.0,0.0,0.0,0.0,0.0,0.0,0.0,0.0,0.0,0.0,0.0,0.0,0.0,0.0,0.0,0.0,0.0,0.0,0.0,0.0,0.0,0.0,0.0,0.0,0.0,0.0,0.0,0.0,0.0,0.0,0.0,0.0,0.0,0.0,0.0,0.0,0.0,0.0,0.0,0.0,0.0,0.0,0.0,0.0,0.0,0.0,0.0,0.0,0.0,0.0,0.0,0.0,0.0,0.0,0.0,0.0,0.0,0.0,0.0,0.0,0.0,0.0,0.0,0.0,0.0,0.0,0.0,0.0,0.0,0.0,0.0,0.0,0.0,0.0,0.0,0.0,0.0,0.0,0.0,0.0,0.0,0.0,0.0,0.0,0.0,0.0,0.0,0.0,0.0,0.0,0.0,0.0,0.0,0.0,0.0,0.0,0.0,0.0,0.0,0.0,0.0,0.0,0.0,0.0,0.0,0.0,0.0,0.0,0.0,0.0,0.0,0.0,0.0,0.0,0.0,0.0,0.0,0.0,0.0,0.0,0.0,0.0,0.0,0.0,0.0,0.0,0.0,0.0,0.0,0.0,0.0,0.0,0.0,0.0,0.0,0.0,0.0,0.0,0.0,0.0,0.0,0.0,0.0,0.0,0.0,0.0,0.0,0.0,0.0,0.0,0.0,0.0,0.0,0.0,0.0,0.0,0.0,0.0,0.0,0.0,0.0,0.0,0.0,0.0,0.0,0.0,0.0,0.0,0.0,0.0,0.0,0.0,0.0,0.0,0.0,0.0,0.0,0.0,0.0,0.0,0.0,0.0,0.0,0.0,0.0,0.0,0.0,0.0,0.0,0.0,0.0,0.0,0.0,0.0,0.0,0.0,0.0,0.0,0.0,0.0,0.0,0.0,0.0,0.0,0.0,0.0,0.0,0.0,0.0,0.0,0.0,0.0,0.0,0.0,0.0,0.0,0.0,0.0,0.0,0.0,0.0,0.0,0.0,0.0,0.0,0.0,0.0,0.0,0.0,0.0,0.0,0.0,0.0,0.0,0.0,0.0,0.0,0.0,0.0,0.0,0.0,0.0,0.0,0.0,0.0,0.0,0.0,0.0,0.0,0.0,0.0,0.0,0.0,0.0,0.0,0.0,0.0,0.0,0.0,0.0,0.0,0.0,0.0,0.0,0.0,0.0,0.0,0.0,0.0,0.0,0.0,0.0,0.0,0.0,0.0,0.0,0.0,0.0,0.0,0.0,0.0,0.0,0.0,0.0,0.0,0.0,0.0,0.0,0.0,0.0,0.0,0.0,0.0,0.0,0.0,0.0,0.0,0.0,0.0,0.0,0.0,0.0,0.0,0.0,0.0,0.0,0.0,0.0,0.0,0.0,0.0,0.0,0.0,0.0,0.0,0.0,0.0,0.0,0.0,0.0,0.0,0.0,0.0,0.0,0.0,0.0,0.0,0.0,0.0,0.0,0.0,0.0,0.0,0.0,0.0,0.0,0.0,0.0,0.0,0.0,0.0,0.0,0.0,0.0,0.0,0.0,0.0,0.0,0.0,0.0,0.0,0.0,0.0,0.0,0.0,0.0,0.0,0.0,0.0,0.0,0.0,0.0,0.0,0.0,0.0,0.0,0.0,0.0,0.0,0.0,0.0,0.0,0.0,0.0,0.0,0.0,0.0,0.0,0.0,0.0,0.0,0.0,0.0,0.0,0.0,0.0,0.0,0.0,0.0,0.0,0.0,0.0,0.0,0.0,0.0,0.0,0.0,0.0,0.0,0.0,0.0,0.0,0.0,0.0,0.0,0.0,0.0,0.0,0.0,0.0,0.0,0.0,0.0,0.0,0.0,0.0,0.0,0.0,0.0,0.0,0.0,0.0,0.0,0.0,0.0,0.0,0.0,0.0,0.0,0.0,0.0,0.0,0.0,0.0,0.0,0.0,0.0,0.0,0.0,0.0,0.0,0.0,0.0,0.0,0.0,0.0,0.0,0.0,0.0,0.0,0.0,0.0,0.0,0.0,0.0,0.0,0.0,0.0,0.0,0.0,0.0,0.0,0.0,0.0,0.0,0.0,0.0,0.0,0.0,0.0,0.0,0.0,0.0,0.0,0.0,0.0,0.0,0.0,0.0,0.0,0.0,0.0,0.0,0.0,0.0,0.0,0.0,0.0,0.0,0.0,0.0,0.0,0.0,0.0,0.0,0.0,0.0,0.0,0.0,0.0,0.0,0.0,0.0,0.0,0.0,0.0,0.0,0.0,0.0,0.0,0.0,0.0,0.0,0.0,0.0,0.0,0.0,0.0,0.0,0.0,0.0,0.0,0.0,0.0,0.0,0.0,0.0,0.0,0.0,0.0,0.0,0.0,0.0,0.0,0.0,0.0,0.0,0.0,0.0,0.0,0.0,0.0,0.0,0.0,0.0,0.0,0.0,0.0,7.1569,0.0,0.0,0.0,0.0,0.0,0.0,0.0,0.0,0.0,0.0,0.0,0.0,0.0,0.0,0.0,0.0,0.0,0.0,0.0,0.0,0.0,0.0,0.0,0.0,0.0,0.0,0.0,0.0,0.0,0.0,0.0,0.0,0.0,0.0,0.0,0.0,0.0,0.0,0.0,0.0,0.0,0.0,0.0,0.0,0.0,0.0,0.0,0.0,0.0,0.0,0.0,0.0,0.0,0.0,0.0,0.0,0.0,0.0,0.0,0.0,0.0,0.0,0.0,0.0,0.0,0.0,0.0,0.0,0.0,0.0,0.0,0.0,0.0,0.0,0.0,0.0,0.0,0.0,0.0,0.0,0.0,0.0,0.0,0.0,0.0,0.0,0.0,0.0,0.0,0.0,0.0,0.0,0.0,0.0,0.0,0.0,0.0,0.0,0.0,0.0,0.0,0.0,0.0,0.0,0.0,0.0,0.0,0.0,0.0,0.0,7.3822,7.3071,7.3822,7.3897,7.3071,0.0,0.0,0.0,0.0,0.0,0.0,0.0,0.0,0.0,0.0,0.0,0.0,0.0,0.0,0.0,0.0,0.0,0.0,0.0,0.0,0.0,0.0,0.0,0.0,0.0,0.0,0.0,0.0,0.0,0.0,0.0,0.0,0.0,0.0,0.0,0.0,0.0,0.0,0.0,0.0,0.0,0.0,0.0,0.0,0.0,0.0,0.0,0.0,0.0,0.0,0.0,0.0,0.0,0.0,0.0,0.0,0.0,0.0,0.0,0.0,0.0,0.0,0.0,0.0,0.0,0.0,0.0,0.0,0.0,0.0,0.0,0.0,0.0,0.0,0.0,0.0,0.0,0.0,0.0,0.0,0.0,0.0,0.0,0.0,0.0,0.0,0.0,0.0,0.0,0.0,0.0,0.0,0.0,0.0,0.0,0.0,0.0,0.0,0.0,0.0,0.0,0.0,0.0,0.0,0.0,0.0,0.0,0.0,0.0,0.0,0.0,0.0,7.5624,7.5474,7.4498,0.0,0.0,0.0,0.0,0.0,0.0,0.0,0.0,0.0,0.0,0.0,0.0,0.0,0.0,0.0,0.0,0.0,0.0,0.0,0.0,0.0,0.0,0.0,0.0,0.0,0.0,0.0,0.0,0.0,0.0,0.0,0.0,0.0,0.0,0.0,0.0,0.0,0.0,0.0,0.0,0.0,0.0,0.0,0.0,0.0,0.0,0.0,0.0,0.0,0.0,0.0,0.0,0.0,0.0,0.0,0.0,0.0,0.0,0.0,0.0,0.0,0.0,0.0,0.0,0.0,0.0,0.0,0.0,0.0,0.0,0.0,0.0,0.0,0.0,0.0,0.0,0.0,0.0,0.0,0.0,0.0,0.0,0.0,0.0,0.0,0.0,0.0,0.0,0.0,0.0,0.0,0.0,0.0,0.0,0.0,0.0,0.0,0.0,0.0,0.0,0.0,0.0,0.0,0.0,0.0,0.0,0.0,0.0,0.0,0.0,7.6,7.7502,7.7577,0.0,7.5399,0.0,0.0,0.0,0.0,0.0,0.0,0.0,0.0,0.0,0.0,0.0,0.0,0.0,0.0,0.0,0.0,0.0,0.0,0.0,0.0,0.0,0.0,0.0,0.0,0.0,0.0,0.0,0.0,0.0,0.0,0.0,0.0,0.0,0.0,0.0,0.0,0.0,0.0,0.0,0.0,0.0,0.0,0.0,0.0,0.0,0.0,0.0,0.0,0.0,0.0,0.0,0.0,0.0,0.0,0.0,0.0,0.0,0.0,0.0,0.0,0.0,0.0,0.0,0.0,0.0,0.0,0.0,0.0,0.0,0.0,0.0,0.0,0.0,0.0,0.0,0.0,0.0,0.0,0.0,0.0,0.0,0.0,0.0,0.0,0.0,0.0,0.0,0.0,0.0,0.0,0.0,0.0,0.0,0.0,0.0,0.0,0.0,0.0,0.0,0.0,0.0,0.0,0.0,0.0,0.0,0.0,0.0,0.0,0.0,0.0,7.6751,7.7877,7.6901,7.6075,0.0,0.0,0.0,0.0,0.0,0.0,0.0,0.0,0.0,0.0,0.0,0.0,0.0,0.0,0.0,0.0,0.0,0.0,0.0,0.0,0.0,0.0,0.0,0.0,0.0,0.0,0.0,0.0,0.0,0.0,0.0,0.0,0.0,0.0,0.0,0.0,0.0,0.0,0.0,0.0,0.0,0.0,0.0,0.0,0.0,0.0,0.0,0.0,0.0,0.0,0.0,0.0,0.0,0.0,0.0,0.0,0.0,0.0,0.0,0.0,0.0,0.0,0.0,0.0,0.0,0.0,0.0,0.0,0.0,0.0,0.0,0.0,0.0,0.0,0.0,0.0,0.0,0.0,0.0,0.0,0.0,0.0,0.0,0.0,0.0,0.0,0.0,0.0,0.0,0.0,0.0,0.0,0.0,0.0,0.0,0.0,0.0,0.0,0.0,0.0,0.0,0.0,0.0,0.0,0.0,0.0,0.0,0.0,0.0,0.0,7.6826,7.7426,7.8102,7.7276,7.6,7.4423,0.0,0.0,0.0,0.0,0.0,0.0,0.0,0.0,0.0,0.0,0.0,0.0,0.0,0.0,0.0,0.0,0.0,0.0,0.0,0.0,0.0,0.0,0.0,0.0,0.0,0.0,0.0,0.0,0.0,0.0,0.0,0.0,0.0,0.0,0.0,0.0,0.0,0.0,0.0,0.0,0.0,0.0,0.0,0.0,0.0,0.0,0.0,0.0,0.0,0.0,0.0,0.0,0.0,0.0,0.0,0.0,0.0,0.0,0.0,0.0,0.0,0.0,0.0,0.0,0.0,0.0,0.0,0.0,0.0,0.0,0.0,0.0,0.0,0.0,0.0,0.0,0.0,0.0,0.0,0.0,0.0,0.0,0.0,0.0,0.0,0.0,0.0,0.0,0.0,0.0,0.0,0.0,0.0,0.0,0.0,0.0,0.0,0.0,0.0,0.0,0.0,0.0,0.0,0.0,0.0,0.0,0.0,0.0,0.0,7.8177,7.8253,7.9079,7.9754,7.7577,0.0,0.0,0.0,0.0,0.0,0.0,0.0,0.0,0.0,0.0,0.0,0.0,0.0,0.0,0.0,0.0,0.0,0.0,0.0,0.0,0.0,0.0,0.0,0.0,0.0,0.0,0.0,0.0,0.0,0.0,0.0,0.0,0.0,0.0,0.0,0.0,0.0,0.0,0.0,0.0,0.0,0.0,0.0,0.0,0.0,0.0,0.0,0.0,0.0,0.0,0.0,0.0,0.0,0.0,0.0,0.0,0.0,0.0,0.0,0.0,0.0,0.0,0.0,0.0,0.0,0.0,0.0,0.0,0.0,0.0,0.0,0.0,0.0,0.0,0.0,0.0,0.0,0.0,0.0,0.0,0.0,0.0,0.0,0.0,0.0,0.0,0.0,0.0,0.0,0.0,0.0,0.0,0.0,0.0,0.0,0.0,0.0,0.0,0.0,0.0,0.0,0.0,0.0,0.0,0.0,0.0,0.0,0.0,0.0,7.623,7.7269,7.8778,8.0505,7.7952,7.5399,0.0,0.0,0.0,0.0,0.0,0.0,0.0,0.0,0.0,0.0,0.0,0.0,0.0,0.0,0.0,0.0,0.0,0.0,0.0,0.0,0.0,0.0,0.0,0.0,0.0,0.0,0.0,0.0,0.0,0.0,0.0,0.0,0.0,0.0,0.0,0.0,0.0,0.0,0.0,0.0,0.0,0.0,0.0,0.0,0.0,0.0,0.0,0.0,0.0,0.0,0.0,0.0,0.0,0.0,0.0,0.0,0.0,0.0,0.0,0.0,0.0,0.0,0.0,0.0,0.0,0.0,0.0,0.0,0.0,0.0,0.0,0.0,0.0,0.0,0.0,0.0,0.0,0.0,0.0,0.0,0.0,0.0,0.0,0.0,0.0,0.0,0.0,0.0,0.0,0.0,0.0,0.0,0.0,0.0,0.0,0.0,0.0,0.0,0.0,0.0,0.0,0.0,0.0,0.0,0.0,0.0,0.0,0.0,0.0,7.5324,0.0,7.9529,0.0,7.7126,7.4498,0.0,0.0,0.0,0.0,0.0,0.0,0.0,0.0,0.0,0.0,0.0,0.0,0.0,0.0,0.0,0.0,0.0,0.0,0.0,0.0,0.0,0.0,0.0,0.0,0.0,0.0,0.0,0.0,0.0,0.0,0.0,0.0,0.0,0.0,0.0,0.0,0.0,0.0,0.0,0.0,0.0,0.0,0.0,0.0,0.0,0.0,0.0,0.0,0.0,0.0,0.0,0.0,0.0,0.0,0.0,0.0,0.0,0.0,0.0,0.0,0.0,0.0,0.0,0.0,0.0,0.0,0.0,0.0,0.0,0.0,0.0,0.0,0.0,0.0,0.0,0.0,0.0,0.0,0.0,0.0,0.0,0.0,0.0,0.0,0.0,0.0,0.0,0.0,0.0,0.0,0.0,0.0,0.0,0.0,0.0,0.0,0.0,0.0,0.0,0.0,0.0,0.0,0.0,0.0,0.0,0.0,0.0,0.0,7.2948,7.6648,7.983,8.0355,7.8102,7.7802,7.5098,0.0,0.0,0.0,0.0,0.0,0.0,0.0,0.0,0.0,0.0,0.0,0.0,0.0,0.0,0.0,0.0,0.0,0.0,0.0,0.0,0.0,0.0,0.0,0.0,0.0,0.0,0.0,0.0,0.0,0.0,0.0,0.0,0.0,0.0,0.0,0.0,0.0,0.0,0.0,0.0,0.0,0.0,0.0,0.0,0.0,0.0,0.0,0.0,0.0,0.0,0.0,0.0,0.0,0.0,0.0,0.0,0.0,0.0,0.0,0.0,0.0,0.0,0.0,0.0,0.0,0.0,0.0,0.0,0.0,0.0,0.0,0.0,0.0,0.0,0.0,0.0,0.0,0.0,0.0,0.0,0.0,0.0,0.0,0.0,0.0,0.0,0.0,0.0,0.0,0.0,0.0,0.0,0.0,0.0,0.0,0.0,0.0,0.0,0.0,0.0,0.0,0.0,0.0,0.0,0.0,0.0,0.0,0.0,0.0,7.66,7.8778,8.0355,8.1106,7.7426,7.4723,0.0,0.0,0.0,0.0,0.0,0.0,0.0,0.0,0.0,0.0,0.0,0.0,0.0,0.0,0.0,0.0,0.0,0.0,0.0,0.0,0.0,0.0,0.0,0.0,0.0,0.0,0.0,0.0,0.0,0.0,0.0,0.0,0.0,0.0,0.0,0.0,0.0,0.0,0.0,0.0,0.0,0.0,0.0,0.0,0.0,0.0,0.0,0.0,0.0,0.0,0.0,0.0,0.0,0.0,0.0,0.0,0.0,0.0,0.0,0.0,0.0,0.0,0.0,0.0,0.0,0.0,0.0,0.0,0.0,0.0,0.0,0.0,0.0,0.0,0.0,0.0,0.0,0.0,0.0,0.0,0.0,0.0,0.0,0.0,0.0,0.0,0.0,0.0,0.0,0.0,0.0,0.0,0.0,0.0,0.0,0.0,0.0,0.0,0.0,0.0,0.0,0.0,0.0,0.0,0.0,0.0,0.0,0.0,0.0,7.8527,8.013,8.1557,8.2758,7.7802,7.5023,7.4873,0.0,0.0,0.0,0.0,0.0,0.0,0.0,0.0,0.0,0.0,0.0,0.0,0.0,0.0,0.0,0.0,0.0,0.0,0.0,0.0,0.0,0.0,0.0,0.0,0.0,0.0,0.0,0.0,0.0,0.0,0.0,0.0,0.0,0.0,0.0,0.0,0.0,0.0,0.0,0.0,0.0,0.0,0.0,0.0,0.0,0.0,0.0,0.0,0.0,0.0,0.0,0.0,0.0,0.0,0.0,0.0,0.0,0.0,0.0,0.0,0.0,0.0,0.0,0.0,0.0,0.0,0.0,0.0,0.0,0.0,0.0,0.0,0.0,0.0,0.0,0.0,0.0,0.0,0.0,0.0,0.0,0.0,0.0,0.0,0.0,0.0,0.0,0.0,0.0,0.0,0.0,0.0,0.0,0.0,0.0,0.0,0.0,0.0,0.0,0.0,0.0,0.0,0.0,0.0,0.0,0.0,0.0,0.0,8.1407,8.3284,8.381,8.3059,7.8928,7.6,0.0,0.0,0.0,0.0,0.0,0.0,0.0,0.0,0.0,0.0,0.0,0.0,0.0,0.0,0.0,0.0,0.0,0.0,0.0,0.0,0.0,0.0,0.0,0.0,0.0,0.0,0.0,0.0,0.0,0.0,0.0,0.0,0.0,0.0,0.0,0.0,0.0,0.0,0.0,0.0,0.0,0.0,0.0,0.0,0.0,0.0,0.0,0.0,0.0,0.0,0.0,0.0,0.0,0.0,0.0,0.0,0.0,0.0,0.0,0.0,0.0,0.0,0.0,0.0,0.0,0.0,0.0,0.0,0.0,0.0,0.0,0.0,0.0,0.0,0.0,0.0,0.0,0.0,0.0,0.0,0.0,0.0,0.0,0.0,0.0,0.0,0.0,0.0,0.0,0.0,0.0,0.0,0.0,0.0,0.0,0.0,0.0,0.0,0.0,0.0,0.0,0.0,0.0,0.0,0.0,0.0,0.0,0.0,0.0,7.9879,8.3735,8.5762,8.5462,8.0956,7.7652,0.0,0.0,0.0,0.0,0.0,0.0,0.0,0.0,0.0,0.0,0.0,0.0,0.0,0.0,0.0,0.0,0.0,0.0,0.0,0.0,0.0,0.0,0.0,0.0,0.0,0.0,0.0,0.0,0.0,0.0,0.0,0.0,0.0,0.0,0.0,0.0,0.0,0.0,0.0,0.0,0.0,0.0,0.0,0.0,0.0,0.0,0.0,0.0,0.0,0.0,0.0,0.0,0.0,0.0,0.0,0.0,0.0,0.0,0.0,0.0,0.0,0.0,0.0,0.0,0.0,0.0,0.0,0.0,0.0,0.0,0.0,0.0,0.0,0.0,0.0,0.0,0.0,0.0,0.0,0.0,0.0,0.0,0.0,0.0,0.0,0.0,0.0,0.0,0.0,0.0,0.0,0.0,0.0,0.0,0.0,0.0,0.0,0.0,0.0,0.0,0.0,0.0,0.0,0.0,0.0,0.0,0.0,0.0,8.0861,8.2158,8.5687,8.7565,8.7565,8.3059,7.9379,0.0,0.0,0.0,0.0,0.0,0.0,0.0,0.0,0.0,0.0,0.0,0.0,0.0,0.0,0.0,0.0,0.0,0.0,0.0,0.0,0.0,0.0,0.0,0.0,0.0,0.0,0.0,0.0,0.0,0.0,0.0,0.0,0.0,0.0,0.0,0.0,0.0,0.0,0.0,0.0,0.0,0.0,0.0,0.0,0.0,0.0,0.0,0.0,0.0,0.0,0.0,0.0,0.0,0.0,0.0,0.0,0.0,0.0,0.0,0.0,0.0,0.0,0.0,0.0,0.0,0.0,0.0,0.0,0.0,0.0,0.0,0.0,0.0,0.0,0.0,0.0,0.0,0.0,0.0,0.0,0.0,0.0,0.0,0.0,0.0,0.0,0.0,0.0,0.0,0.0,0.0,0.0,0.0,0.0,0.0,0.0,0.0,0.0,0.0,0.0,0.0,0.0,0.0,0.0,0.0,0.0,0.0,0.0,8.2412,8.5988,8.809,8.9067,8.8766,8.5086,8.1106,0.0,0.0,0.0,0.0,0.0,0.0,0.0,0.0,0.0,0.0,0.0,0.0,0.0,0.0,0.0,0.0,0.0,0.0,0.0,0.0,0.0,0.0,0.0,0.0,0.0,0.0,0.0,0.0,0.0,0.0,0.0,0.0,0.0,0.0,0.0,0.0,0.0,0.0,0.0,0.0,0.0,0.0,0.0,0.0,0.0,0.0,0.0,0.0,0.0,0.0,0.0,0.0,0.0,0.0,0.0,0.0,0.0,0.0,0.0,0.0,0.0,0.0,0.0,0.0,0.0,0.0,0.0,0.0,0.0,0.0,0.0,0.0,0.0,0.0,0.0,0.0,0.0,0.0,0.0,0.0,0.0,0.0,0.0,0.0,0.0,0.0,0.0,0.0,0.0,0.0,0.0,0.0,0.0,0.0,0.0,0.0,0.0,0.0,0.0,0.0,0.0,0.0,0.0,0.0,0.0,0.0,0.0,0.0,8.3606,8.366,8.779,8.9367,8.809,8.5913,8.2533,0.0,0.0,0.0,0.0,0.0,0.0,0.0,0.0,0.0,0.0,0.0,0.0,0.0,0.0,0.0,0.0,0.0,0.0,0.0,0.0,0.0,0.0,0.0,0.0,0.0,0.0,0.0,0.0,0.0,0.0,0.0,0.0,0.0,0.0,0.0,0.0,0.0,0.0,0.0,0.0,0.0,0.0,0.0,0.0,0.0,0.0,0.0,0.0,8.0298,0.0,0.0,0.0,0.0,0.0,0.0,0.0,0.0,0.0,0.0,0.0,0.0,0.0,0.0,0.0,0.0,0.0,0.0,0.0,0.0,0.0,0.0,0.0,0.0,0.0,0.0,0.0,0.0,0.0,0.0,0.0,0.0,0.0,0.0,0.0,0.0,0.0,0.0,0.0,0.0,0.0,0.0,0.0,0.0,0.0,0.0,0.0,0.0,0.0,0.0,0.0,0.0,0.0,0.0,0.0,0.0,0.0,0.0,0.0,8.5172,8.6288,8.8841,8.9818,8.8917,8.7339,8.396,0.0,0.0,0.0,0.0,0.0,0.0,0.0,0.0,0.0,0.0,0.0,0.0,0.0,0.0,0.0,0.0,0.0,0.0,0.0,0.0,0.0,0.0,0.0,0.0,0.0,0.0,0.0,0.0,0.0,0.0,0.0,0.0,0.0,0.0,0.0,0.0,0.0,0.0,0.0,0.0,0.0,0.0,0.0,0.0,0.0,0.0,0.0,0.0,0.0,0.0,0.0,0.0,0.0,0.0,0.0,0.0,0.0,0.0,0.0,0.0,0.0,0.0,0.0,0.0,0.0,0.0,0.0,0.0,0.0,0.0,0.0,0.0,0.0,0.0,0.0,0.0,0.0,0.0,0.0,0.0,0.0,0.0,0.0,0.0,0.0,0.0,0.0,0.0,0.0,0.0,0.0,0.0,0.0,0.0,0.0,0.0,0.0,0.0,0.0,0.0,0.0,0.0,0.0,0.0,0.0,0.0,0.0,8.3171,8.6229,8.9818,9.0118,9.0118,9.0043,8.8466,8.4936,7.9304,0.0,0.0,0.0,0.0,0.0,0.0,0.0,0.0,0.0,0.0,0.0,0.0,0.0,0.0,0.0,0.0,0.0,0.0,0.0,0.0,0.0,0.0,0.0,0.0,0.0,0.0,0.0,0.0,0.0,0.0,0.0,0.0,0.0,0.0,0.0,0.0,0.0,0.0,8.0353,8.2262,0.0,0.0,0.0,0.0,0.0,0.0,0.0,0.0,8.1345,0.0,0.0,0.0,0.0,0.0,0.0,0.0,0.0,0.0,0.0,0.0,0.0,0.0,0.0,0.0,0.0,0.0,0.0,0.0,0.0,0.0,0.0,0.0,0.0,0.0,0.0,0.0,0.0,0.0,0.0,0.0,0.0,0.0,0.0,0.0,0.0,0.0,0.0,0.0,0.0,0.0,0.0,0.0,0.0,0.0,0.0,0.0,0.0,0.0,0.0,0.0,0.0,0.0,0.0,0.0,0.0,8.2778,8.3293,8.5348,8.9067,8.9893,8.9893,8.9217,8.7565,8.4335,7.9304,0.0,0.0,0.0,0.0,0.0,0.0,0.0,0.0,0.0,0.0,0.0,0.0,0.0,0.0,0.0,0.0,0.0,0.0,0.0,0.0,0.0,0.0,0.0,0.0,0.0,0.0,0.0,0.0,0.0,0.0,0.0,0.0,0.0,0.0,0.0,0.0,0.0,0.0,0.0,8.4865,8.4753,0.0,0.0,0.0,0.0,0.0,0.0,0.0,0.0,8.1713,0.0,0.0,0.0,0.0,0.0,0.0,0.0,0.0,0.0,0.0,0.0,0.0,0.0,0.0,0.0,0.0,0.0,0.0,0.0,0.0,0.0,0.0,0.0,0.0,0.0,0.0,0.0,0.0,0.0,0.0,0.0,0.0,0.0,0.0,0.0,0.0,0.0,0.0,0.0,0.0,0.0,0.0,0.0,0.0,0.0,0.0,0.0,0.0,0.0,0.0,0.0,0.0,0.0,0.0,0.0,8.0828,8.3606,8.6275,8.8841,8.9367,8.9217,8.8316,8.5086,8.1407,0.0,0.0,0.0,0.0,0.0,0.0,0.0,0.0,0.0,0.0,0.0,0.0,0.0,0.0,0.0,0.0,0.0,0.0,0.0,0.0,0.0,0.0,0.0,0.0,0.0,0.0,0.0,0.0,0.0,0.0,0.0,0.0,0.0,0.0,0.0,0.0,0.0,0.0,0.0,0.0,8.588,8.5799,8.5074,0.0,0.0,0.0,0.0,0.0,0.0,8.1624,8.1165,0.0,0.0,0.0,0.0,0.0,0.0,0.0,0.0,0.0,0.0,0.0,0.0,0.0,0.0,0.0,0.0,0.0,0.0,0.0,0.0,0.0,0.0,0.0,0.0,0.0,0.0,0.0,0.0,0.0,0.0,0.0,0.0,0.0,0.0,0.0,0.0,0.0,0.0,0.0,0.0,0.0,0.0,0.0,0.0,0.0,0.0,0.0,0.0,0.0,0.0,0.0,0.0,0.0,0.0,0.0,7.8675,8.3256,8.6621,8.8616,8.8917,8.8616,8.779,8.366,7.9454,0.0,0.0,0.0,0.0,0.0,0.0,0.0,0.0,0.0,0.0,0.0,0.0,0.0,0.0,0.0,0.0,0.0,0.0,0.0,0.0,0.0,0.0,0.0,0.0,0.0,0.0,0.0,0.0,0.0,0.0,0.0,0.0,0.0,0.0,0.0,0.0,0.0,0.0,0.0,0.0,0.0,8.6691,8.5515,8.5175,0.0,0.0,0.0,0.0,8.2155,8.2042,0.0,0.0,0.0,0.0,0.0,0.0,0.0,0.0,0.0,0.0,0.0,0.0,0.0,0.0,0.0,0.0,0.0,0.0,0.0,0.0,0.0,0.0,0.0,0.0,0.0,0.0,0.0,0.0,0.0,0.0,0.0,0.0,0.0,0.0,0.0,0.0,0.0,0.0,0.0,0.0,0.0,0.0,0.0,0.0,0.0,0.0,0.0,0.0,0.0,0.0,0.0,0.0,0.0,0.0,0.0,0.0,7.7722,8.1003,8.4318,8.7715,8.8616,8.8616,8.779,8.5837,8.1482,0.0,0.0,0.0,0.0,0.0,0.0,0.0,0.0,0.0,0.0,0.0,0.0,0.0,0.0,0.0,0.0,0.0,0.0,0.0,0.0,0.0,0.0,0.0,0.0,0.0,0.0,0.0,0.0,0.0,0.0,0.0,0.0,0.0,0.0,0.0,0.0,0.0,0.0,0.0,0.0,0.0,8.7655,8.4843,8.6228,8.7141,0.0,0.0,8.5315,8.5947,8.6046,0.0,0.0,0.0,0.0,0.0,0.0,0.0,0.0,0.0,0.0,0.0,0.0,0.0,0.0,0.0,0.0,0.0,0.0,0.0,0.0,0.0,0.0,0.0,0.0,0.0,0.0,0.0,0.0,0.0,0.0,0.0,0.0,0.0,0.0,0.0,0.0,0.0,0.0,0.0,0.0,0.0,0.0,0.0,0.0,0.0,0.0,0.0,0.0,0.0,0.0,0.0,0.0,0.0,0.0,0.0,7.4049,7.6998,8.2444,8.6147,8.7715,8.8541,8.8391,8.7114,8.366,7.8928,0.0,0.0,0.0,0.0,0.0,0.0,0.0,0.0,0.0,0.0,0.0,0.0,0.0,0.0,0.0,0.0,0.0,0.0,0.0,0.0,0.0,0.0,0.0,0.0,0.0,0.0,0.0,0.0,0.0,0.0,0.0,0.0,0.0,0.0,0.0,0.0,0.0,0.0,0.0,0.0,0.0,0.0,8.6952,8.7843,0.0,0.0,0.0,8.679,8.6719,0.0,0.0,0.0,0.0,0.0,0.0,0.0,0.0,0.0,0.0,0.0,0.0,0.0,0.0,0.0,0.0,0.0,0.0,0.0,0.0,0.0,0.0,0.0,0.0,0.0,0.0,0.0,0.0,0.0,0.0,0.0,0.0,0.0,0.0,0.0,0.0,0.0,0.0,0.0,0.0,0.0,0.0,0.0,0.0,0.0,0.0,0.0,0.0,0.0,0.0,0.0,0.0,0.0,0.0,0.0,0.0,0.0,7.6846,8.399,8.779,8.7865,8.8616,8.8166,8.6513,8.2458,0.0,0.0,0.0,0.0,0.0,0.0,0.0,0.0,0.0,0.0,0.0,0.0,0.0,0.0,0.0,0.0,0.0,0.0,0.0,0.0,0.0,0.0,0.0,0.0,0.0,0.0,0.0,6.4561,0.0,0.0,0.0,0.0,0.0,0.0,0.0,0.0,0.0,0.0,0.0,0.0,0.0,0.0,8.6289,8.8428,8.9177,8.9669,0.0,0.0,8.8405,8.7422,8.5951,8.4249,0.0,0.0,0.0,0.0,0.0,0.0,0.0,0.0,0.0,0.0,0.0,0.0,0.0,0.0,0.0,0.0,0.0,0.0,0.0,0.0,0.0,0.0,0.0,0.0,0.0,0.0,0.0,0.0,0.0,0.0,0.0,0.0,0.0,0.0,0.0,0.0,0.0,0.0,0.0,0.0,0.0,0.0,0.0,0.0,0.0,0.0,0.0,0.0,0.0,0.0,0.0,0.0,0.0,0.0,0.0,7.7761,8.4341,8.7865,8.7865,8.8616,8.8166,8.6513,8.4711,7.998,0.0,0.0,0.0,0.0,0.0,0.0,0.0,0.0,0.0,0.0,0.0,0.0,0.0,0.0,0.0,0.0,0.0,0.0,0.0,0.0,0.0,0.0,0.0,0.0,0.0,0.0,0.0,0.0,0.0,0.0,0.0,0.0,0.0,0.0,0.0,0.0,0.0,0.0,0.0,0.0,0.0,8.6076,8.7748,8.9809,9.1424,0.0,9.1564,9.0511,8.9107,8.931,8.7675,8.1927,0.0,0.0,0.0,0.0,0.0,0.0,0.0,0.0,0.0,0.0,0.0,0.0,0.0,0.0,0.0,0.0,0.0,0.0,0.0,0.0,0.0,0.0,0.0,0.0,0.0,0.0,0.0,0.0,0.0,0.0,0.0,0.0,0.0,0.0,0.0,0.0,0.0,0.0,0.0,0.0,0.0,0.0,0.0,0.0,0.0,0.0,0.0,0.0,0.0,0.0,0.0,0.0,0.0,7.6388,7.8447,8.5575,8.9067,8.8616,8.9292,8.8691,8.6513,8.4936,8.0956,0.0,0.0,0.0,0.0,0.0,0.0,0.0,0.0,0.0,0.0,0.0,0.0,0.0,0.0,0.0,0.0,0.0,0.0,0.0,0.0,0.0,0.0,0.0,0.0,0.0,0.0,0.0,0.0,7.4498,7.5577,7.6504,0.0,0.0,0.0,0.0,0.0,0.0,0.0,0.0,0.0,0.0,8.7156,8.9693,9.1143,0.0,0.0,9.2267,9.1845,9.1213,8.9004,8.6507,8.4102,8.2032,0.0,0.0,0.0,0.0,0.0,0.0,0.0,0.0,0.0,0.0,0.0,0.0,0.0,0.0,0.0,0.0,0.0,0.0,0.0,0.0,0.0,0.0,0.0,0.0,0.0,0.0,0.0,0.0,0.0,0.0,0.0,0.0,0.0,0.0,0.0,0.0,0.0,0.0,0.0,0.0,0.0,0.0,0.0,0.0,0.0,0.0,0.0,0.0,0.0,0.0,0.0,0.0,7.7303,7.9285,8.6028,8.9292,8.8992,8.9517,8.8917,8.6964,8.5312,8.1857,0.0,0.0,0.0,0.0,0.0,0.0,0.0,0.0,0.0,0.0,0.0,0.0,0.0,0.0,0.0,0.0,0.0,0.0,0.0,0.0,0.0,0.0,0.0,0.0,0.0,0.0,0.0,0.0,7.6901,7.7528,7.8728,0.0,0.0,0.0,0.0,0.0,0.0,0.0,0.0,0.0,0.0,8.7843,9.0862,9.1775,9.2126,9.2126,9.1916,9.1705,9.1494,8.8558,8.6133,8.5575,0.0,0.0,0.0,0.0,0.0,0.0,0.0,0.0,0.0,0.0,0.0,0.0,0.0,0.0,0.0,0.0,0.0,0.0,0.0,0.0,0.0,0.0,0.0,0.0,0.0,0.0,0.0,0.0,0.0,0.0,6.1536,0.0,0.0,0.0,0.0,0.0,0.0,0.0,0.0,0.0,0.0,0.0,0.0,0.0,0.0,0.0,0.0,0.0,0.0,0.0,0.0,0.0,0.0,7.7684,8.0239,8.5323,8.8241,8.8917,8.8992,8.8616,8.7715,8.6138,8.2909,7.7877,0.0,0.0,0.0,0.0,0.0,0.0,0.0,0.0,0.0,0.0,0.0,0.0,0.0,0.0,0.0,0.0,0.0,0.0,0.0,0.0,0.0,0.0,0.0,0.0,0.0,0.0,7.6901,7.7426,7.8128,0.0,0.0,0.0,0.0,0.0,0.0,0.0,0.0,0.0,0.0,8.6158,8.7843,9.0862,9.1284,9.1354,9.1354,9.0722,9.002,8.9317,8.8418,8.7318,0.0,0.0,0.0,0.0,0.0,0.0,0.0,0.0,0.0,0.0,0.0,0.0,0.0,0.0,0.0,0.0,0.0,0.0,0.0,0.0,0.0,0.0,0.0,0.0,0.0,0.0,0.0,6.7907,6.612,0.0,0.0,0.0,0.0,0.0,0.0,0.0,0.0,0.0,0.0,0.0,7.7365,7.9067,0.0,0.0,0.0,0.0,0.0,0.0,0.0,0.0,0.0,0.0,0.0,0.0,7.8674,8.1501,8.6152,8.8466,8.8241,8.9217,8.8917,8.6964,8.5913,8.2458,7.645,0.0,0.0,0.0,0.0,0.0,0.0,0.0,0.0,0.0,0.0,0.0,0.0,0.0,0.0,0.0,0.0,0.0,0.0,0.0,0.0,0.0,0.0,0.0,0.0,0.0,7.9679,0.0,0.0,0.0,0.0,0.0,0.0,0.0,0.0,0.0,0.0,0.0,8.4335,8.5315,8.7562,8.9388,9.0441,9.1003,9.1494,0.0,0.0,0.0,0.0,0.0,0.0,0.0,0.0,0.0,0.0,0.0,0.0,0.0,0.0,9.5356,9.1284,8.8475,8.693,8.7702,0.0,0.0,0.0,0.0,0.0,0.0,0.0,0.0,0.0,0.0,0.0,0.0,0.0,0.0,7.1403,0.0,6.9539,0.0,0.0,0.0,0.0,0.0,0.0,0.0,0.0,8.0638,8.2471,8.1774,8.3631,8.3399,0.0,8.0382,7.837,0.0,0.0,0.0,0.0,0.0,0.0,0.0,0.0,7.9432,8.2157,8.635,8.8466,8.8316,8.9292,8.8992,8.7415,8.6063,8.2834,7.7727,7.5924,7.3521,0.0,0.0,0.0,0.0,0.0,0.0,0.0,0.0,0.0,0.0,0.0,0.0,0.0,0.0,0.0,0.0,0.0,0.0,0.0,0.0,0.0,0.0,0.0,8.068,0.0,0.0,0.0,0.0,0.0,0.0,0.0,0.0,0.0,8.3648,8.5463,8.686,8.707,8.9107,9.0581,9.0581,0.0,0.0,0.0,0.0,0.0,0.0,0.0,8.903,9.009,8.9827,9.043,9.325,9.6831,9.9078,9.8095,0.0,0.0,9.5637,9.242,9.071,9.2056,9.0583,8.8971,8.8285,8.7641,8.702,0.0,0.0,0.0,0.0,0.0,0.0,0.0,0.0,7.4434,7.3967,0.0,7.3035,0.0,0.0,0.0,0.0,0.0,7.6704,0.0,0.0,8.5101,8.7422,8.6648,8.7499,8.7886,8.7809,8.688,8.5178,8.2548,7.7031,0.0,0.0,0.0,0.0,0.0,0.0,8.004,8.2263,8.5898,8.8166,8.8917,8.8992,8.8992,8.8841,8.6588,8.4185,8.1782,8.0055,7.7652,7.4498,7.277,0.0,0.0,0.0,0.0,0.0,0.0,0.0,0.0,0.0,0.0,0.0,0.0,0.0,0.0,0.0,0.0,0.0,0.0,0.0,0.0,7.9004,0.0,0.0,0.0,0.0,0.0,0.0,0.0,0.0,0.0,0.0,8.6719,8.8124,8.9317,9.009,0.0,0.0,0.0,0.0,9.1354,9.1424,9.1354,9.1354,9.1424,9.1986,9.2477,9.2547,0.0,0.0,9.5918,9.7954,9.9569,9.9393,9.9931,10.057,10.1318,9.7454,9.5291,9.736,9.3653,9.052,9.0741,8.9703,8.8653,7.6065,0.0,0.0,0.0,0.0,7.5599,7.7153,7.9639,7.9018,7.8318,7.7386,7.6143,0.0,0.0,0.0,0.0,0.0,0.0,8.0895,8.278,8.6261,8.7809,8.7577,8.8969,8.9047,8.7886,8.7035,8.5875,8.4482,8.1947,7.8552,7.4502,0.0,0.0,0.0,0.0,8.1657,8.4317,8.6642,8.794,8.8166,8.8691,8.8691,8.8166,8.6889,8.5312,8.3434,8.2308,8.0505,7.7802,7.6675,0.0,0.0,0.0,0.0,0.0,0.0,0.0,0.0,0.0,0.0,0.0,0.0,0.0,0.0,0.0,0.0,0.0,0.0,0.0,7.9903,7.9866,8.0638,0.0,0.0,0.0,0.0,0.0,0.0,0.0,0.0,0.0,8.9809,9.0371,9.0511,0.0,0.0,9.1073,9.0581,9.1424,9.2337,9.2899,9.2969,0.0,9.2969,9.2688,9.2899,9.3952,9.6339,9.8165,9.8376,10.0342,10.1458,10.0349,10.0639,10.099,10.0318,9.809,9.6395,9.676,9.5252,9.352,9.2632,9.1696,9.0976,8.0572,7.8163,7.7153,7.7541,7.8707,7.8785,8.0105,8.2281,8.1504,8.096,8.0727,7.9406,7.7619,7.5677,7.4822,0.0,0.0,0.0,8.2545,8.4714,8.719,8.8582,8.8969,9.0594,9.0749,8.9433,8.8892,8.8196,8.7345,8.5714,8.3079,7.9478,0.0,0.0,7.8747,8.0851,8.3208,8.5687,8.7114,8.794,8.8241,8.8766,8.8766,8.8241,8.749,8.6588,8.5612,8.4711,8.3284,8.1181,8.028,7.7952,0.0,0.0,0.0,0.0,0.0,0.0,0.0,0.0,0.0,0.0,0.0,7.4798,7.3972,0.0,0.0,0.0,7.8618,8.047,8.2516,8.2978,0.0,0.0,0.0,0.0,0.0,0.0,0.0,8.9022,9.0094,9.1073,9.1705,9.2267,9.2267,9.1284,9.1775,9.2056,9.1635,0.0,9.3671,9.4443,9.4794,9.5005,9.5005,9.4865,9.5005,9.5567,9.6901,9.8165,9.8754,10.0011,10.0586,9.993,9.9808,9.9608,9.9071,9.755,9.6602,9.7233,9.6079,9.4496,9.3904,9.3259,9.2771,8.4612,8.4379,8.2048,8.1504,8.2048,8.2126,8.2592,8.3213,8.2359,8.2436,8.3136,8.2281,8.0572,7.8396,7.7541,0.0,7.9714,8.2095,8.4064,8.5565,8.8041,8.9665,9.0594,9.2218,9.2605,9.1754,9.1754,9.1185,9.0228,8.8271,8.6949,8.6035,8.341,8.2129,8.2309,8.3171,8.4594,8.6588,8.749,8.8241,8.8992,8.8992,8.8992,8.8992,8.8241,8.779,8.764,8.6889,8.5687,8.4185,8.3284,8.1031,7.7126,0.0,0.0,0.0,0.0,0.0,0.0,0.0,0.0,0.0,0.0,0.0,0.0,0.0,0.0,8.0172,8.1673,0.0,8.4779,8.7296,0.0,0.0,0.0,8.9852,8.8413,9.0179,9.1453,9.1451,0.0,0.0,9.2688,9.3882,9.4233,9.2828,9.325,9.3741,9.3741,9.4373,9.5216,9.5848,9.6761,9.7322,9.7252,9.7603,9.7744,9.6974,9.6447,9.6625,9.7612,9.8083,9.8297,9.8463,9.7957,9.7472,9.7279,9.6517,9.6578,9.8139,9.6181,9.433,9.4747,9.4374,9.3876,8.6399,8.6321,8.57,8.4845,8.3835,8.3835,8.4301,8.4923,8.3446,8.3291,8.399,8.2514,8.1892,8.1892,8.1699,8.2513,8.4122,8.4576,8.5744,8.7423,8.8609,8.9975,9.1445,9.2528,9.2915,9.2683,9.1986,9.1097,8.9965,8.9074,8.8374,8.7832,8.7436,8.6153,8.4079,8.5147,8.632,8.749,8.8316,8.8766,8.8992,8.8992,8.8992,8.8992,8.8241,8.749,8.6814,8.6063,8.5162,8.411,8.3284,8.1782,7.9604,7.6525,0.0,0.0,0.0,0.0,0.0,0.0,0.0,0.0,0.0,8.2758,7.9454,0.0,8.6219,0.0,8.505,8.598,8.6788,8.774,0.0,0.0,9.0,9.0712,9.1807,9.2141,9.2489,9.2969,9.3882,9.4233,9.3361,9.4233,9.4413,9.3541,9.4062,9.4514,9.4584,9.5707,9.662,9.6901,9.7954,9.8867,9.8797,9.8516,9.7955,9.7106,9.6789,9.6531,9.612,9.7104,9.7575,9.7144,9.7249,9.7086,9.6521,9.6132,9.6066,9.6578,9.5993,9.514,9.4402,9.4407,9.4676,8.8497,8.8108,8.8108,8.7564,8.6554,8.5467,8.5233,8.5544,8.4301,8.4146,8.4923,8.3602,8.3213,8.3679,8.364,8.4143,8.5031,8.5661,8.6776,8.8017,8.9228,9.0671,9.2296,9.3147,9.3534,9.3534,9.3456,9.2827,9.1792,9.1107,9.0656,9.0388,8.9876,8.8726,8.7184,8.7072,8.749,8.8316,8.8766,8.8992,8.8992,8.8992,8.8841,8.8466,8.8015,8.7415,8.6513,8.6063,8.5312,8.4185,8.396,8.3359,8.2083,7.9905,7.8478,0.0,0.0,0.0,0.0,0.0,0.0,0.0,0.0,0.0,0.0,0.0,8.8876,8.8132,8.8983,9.0045,9.098,9.1272,9.169,9.2354,9.2326,9.2589,9.329,9.4081,9.4584,9.4654,9.5637,9.5918,9.4865,9.5637,9.6129,9.5293,9.6096,9.662,9.6129,9.7182,9.8235,9.8656,9.9359,9.992,9.992,9.8656,9.757,9.7028,9.6324,9.5744,9.5448,9.6096,9.648,9.6289,9.6572,9.6717,9.653,9.6532,9.6532,9.6993,9.6995,9.6598,9.554,9.5804,9.6333,9.075,8.9973,8.9895,8.9818,8.9662,8.7254,8.6166,8.5933,8.5,8.4923,8.5467,8.4845,8.4612,8.4612,8.469,8.4707,8.4854,8.6382,8.7551,8.8273,8.982,9.1522,9.3147,9.3998,9.4385,9.4385,9.5158,9.4974,9.4034,9.337,9.2957,9.2627,9.1212,9.0494,9.0343,8.8992,8.8541,8.8992,8.9067,8.9067,8.8992,8.9142,8.8691,8.7865,8.7715,8.7264,8.6363,8.6438,8.5837,8.4561,8.5312,8.5462,8.4786,8.3885,8.3735,0.0,8.3209,0.0,0.0,0.0,0.0,0.0,0.0,0.0,0.0,9.0069,9.071,9.1757,9.2977,9.4319,9.5575,9.5712,9.5419,9.4994,9.5095,9.5005,9.4514,9.6058,9.7041,9.6409,9.7463,9.7673,9.6512,9.7463,9.8165,9.7429,9.8411,9.8867,9.7954,9.8727,9.971,10.0482,10.0693,10.0693,10.0342,9.8762,9.7288,9.6809,9.5744,9.4772,9.4968,9.5072,9.536,9.5864,9.6198,9.6399,9.7128,9.7327,9.7592,9.7989,9.8322,9.8188,9.7392,9.7524,9.8122,9.3469,9.2615,9.1915,9.1605,9.1449,8.9584,8.8419,8.772,8.6166,8.5156,8.469,8.5233,8.5467,8.5544,8.6125,8.6782,8.7459,8.835,8.923,9.0056,9.1008,9.2373,9.3998,9.4849,9.5236,9.5236,9.5468,9.4646,9.3174,9.3621,9.3127,9.1805,9.2035,9.192,9.1245,0.0,0.0,0.0,8.9667,8.9667,8.9067,8.9667,8.9292,8.7865,8.7114,0.0,8.5612,8.6138,8.6363,8.6138,8.749,0.0,0.0,0.0,0.0,0.0,0.0,0.0,0.0,0.0,0.0,0.0,9.4324,9.3545,9.238,9.4117,9.5393,9.5586,9.5646,9.59,9.6445,9.6534,9.6805,9.7458,9.7637,9.7814,9.8235,9.8165,9.8235,9.8727,9.8516,9.8269,9.7988,9.8691,9.8972,9.8373,9.9427,10.0201,9.9991,10.0201,10.0412,10.0623,10.1114,10.1184,10.0478,9.9413,9.8167,9.676,9.5653,9.4954,9.4316,9.4729,9.5199,9.5869,9.6465,9.7128,9.7857,9.8453,9.8652,9.8321,9.9049,9.9509,9.8312,9.8051,9.8188,9.479,0.0,9.3547,9.3159,0.0,9.1371,9.0284,8.9429,8.8108,8.7331,8.6943,8.6943,8.7176,8.7564,8.758,8.8002,8.8833,8.9978,9.0675,9.119,9.2401,9.3611,9.4849,9.5313,9.57,9.6164,9.5934,9.5357,9.4481,9.4395,9.3947,9.3121,9.2843,9.2521,9.2071,9.1695,9.1094,9.0268,9.0644,9.0644,9.0268,9.0644,9.0043,8.8466,8.8316,0.0,0.0,0.0,0.0,0.0,0.0,0.0,0.0,0.0,0.0,9.3197,9.4399,9.4774,9.4023,9.6201,9.7928,9.8829,9.9067,9.8141,9.5791,9.7273,9.8263,9.82,9.7703,9.7536,9.7975,9.7028,9.6856,9.8024,9.7603,9.7673,9.9078,9.9078,9.9148,9.978,9.964,9.9429,9.9429,10.0061,10.0445,10.019,10.1318,10.2238,10.2167,10.1606,10.1114,10.1114,10.1395,10.1287,10.0439,9.996,9.8825,9.6858,9.6046,9.5417,9.4474,9.4941,9.567,9.6399,9.7128,9.7857,9.8585,9.9314,9.9712,9.9443,10.0039,10.0436,9.9505,9.9245,9.9248,9.5723,9.5101,9.4946,9.4479,9.378,9.277,9.1838,9.0983,0.0,0.0,0.0,8.8963,8.9041,8.9429,8.9055,8.9221,8.9872,9.1502,9.2197,9.2218,9.3688,9.4849,9.57,9.5855,9.6319,9.7015,9.6652,9.6286,9.5983,9.5219,9.4731,9.4523,9.3427,9.2897,9.2897,9.2296,9.1996,9.2146,9.1996,9.177,9.1545,9.177,9.1094,8.9292,8.9968,8.9743,8.8316,8.9292,8.9893,8.9893,9.0944,9.2446,9.4549,9.6351,9.8229,10.0181,10.1383,10.1683,10.0857,10.2284,10.282,10.193,10.209,10.1274,9.9131,9.9382,9.96,9.9587,9.8798,9.8519,9.9113,9.7393,9.6831,9.8516,9.7393,9.7463,9.9429,9.971,9.992,10.0623,10.0623,10.0763,10.0936,10.1535,10.1988,10.2189,10.3,10.3993,10.3853,10.287,10.2058,10.1839,10.1909,10.1489,10.04,10.0066,9.9094,9.7184,9.6712,9.6371,9.5797,9.6001,9.6664,9.7393,9.7989,9.8585,9.9314,10.0043,10.0369,10.0364,10.0899,10.1169,10.0507,10.044,10.044,9.6966,9.681,9.6033,9.5645,9.5412,9.3858,9.2692,9.1838,9.0983,9.0206,8.9507,9.0206,9.0128,8.9584,9.0841,9.1471,9.1655,9.3207,9.3927,9.3921,9.4849,9.5777,9.6628,9.7402,9.7789,9.7943,9.7882,9.701,9.5619,9.5401,9.4931,9.418,9.3932,9.3798,9.3798,9.3723,9.4023,9.4624,9.3948,9.2897,9.1545,9.2897,9.2521,9.0193,9.0869,9.0869,8.9968,9.2071,9.3272,9.3347,9.545,9.6802,9.7252,9.943,10.0857,10.1308,10.3335,10.4161,10.341,10.4837,10.5163,10.3933,10.3279,10.2529,10.1493,9.9847,9.8776,9.8777,9.7924,9.7669,9.8235,9.7533,9.7814,9.978,9.9429,9.9569,10.1114,10.0833,10.0763,10.1465,10.0974,10.1292,10.2276,10.2589,10.304,10.3519,10.3981,10.4063,10.4204,10.3853,10.3309,10.256,10.2445,10.1587,10.0238,9.9709,9.9154,9.8117,9.7923,9.7724,9.7592,9.7592,9.8055,9.8784,9.9049,9.9447,10.0043,10.0772,10.097,10.0568,10.1037,10.1236,10.0573,10.0838,10.1302,9.7199,9.7199,9.681,9.6344,9.58,9.4635,9.3625,9.277,9.2382,9.176,9.0905,9.0828,9.1138,9.1605,9.185,9.2479,9.3284,9.4446,9.5012,9.5004,9.6319,9.7092,9.7557,9.833,9.8794,9.8687,9.8243,9.7324,9.6133,9.5566,9.4891,9.4082,9.4399,9.4624,9.4699,9.5075,9.545,9.5826,9.5075,9.4474,9.4173,9.4924,9.4549,9.2972,9.3723,9.3798,9.2972,9.4474,9.5525,9.5976,9.7478,9.898,10.0331,10.2284,10.3561,10.4086,10.5588,10.6039,10.5213,10.6339,10.6587,10.5577,10.491,10.4139,10.3044,10.058,9.8968,9.8816,9.8036,9.7913,9.8727,9.8235,9.8516,10.0412,10.0271,10.0693,10.2027,10.2097,10.2167,10.2799,10.2659,10.2768,10.333,10.3893,10.4163,10.4569,10.4934,10.5327,10.5748,10.5015,10.3927,10.2699,10.2022,10.1165,9.9857,10.001,9.9579,9.8378,9.8514,9.8585,9.832,9.8453,9.8917,9.9248,9.9844,10.0507,10.0904,10.1832,10.1964,10.1236,10.1501,10.1633,10.1236,10.1766,10.2362,9.7199,9.7199,9.7199,9.6733,9.5878,9.5256,9.4479,9.3702,9.3702,9.3314,9.2615,9.176,9.2226,9.3547,9.3115,9.3667,9.499,9.5868,9.625,9.6474,9.7711,9.8485,9.8717,9.9336,9.9568,9.9506,9.8827,9.7959,9.6929,9.6143,9.5442,9.4683,9.515,9.545,9.545,9.6126,9.6501,9.6652,9.6051,9.5976,9.6426,9.6577,9.6351,9.56,9.6276,9.6426,9.5826,9.6577,9.7403,9.8229,9.9055,10.0482,10.2735,10.4462,10.5739,10.6565,10.7391,10.7616,10.7015,10.7466,10.7418,10.6475,10.6019,10.5064,10.3457,10.137,9.9826,9.9541,9.8814,9.8579,9.9183,9.8867,9.9078,10.0412,10.0763,10.1395,10.2659,10.301,10.3361,10.3923,10.3993,10.3993,10.4385,10.4765,10.5327,10.5776,10.6057,10.6591,10.7109,10.5807,10.4055,10.2987,10.1851,10.0975,9.9931,10.0164,10.0051,9.8774,9.9245,9.938,9.9182,9.9447,9.9844,10.0175,10.0904,10.1501,10.1766,10.2494,10.2693,10.1898,10.2097,10.2428,10.2428,10.3223,10.3687,9.7199,9.7199,9.7199,9.6733,9.5956,9.58,9.5334,9.4635,9.4557,9.4557,9.4324,9.3547,9.3702,9.4557,9.5179,9.5888,9.6773,9.7626,9.832,9.8794,9.9104,9.9645,10.0264,10.0419,10.0496,10.0496,10.0402,9.9442,9.786,9.76,9.711,9.632,9.6276,9.6351,9.6351,9.6426,9.6802,9.7553,9.7478,9.7102,9.6501,9.7177,9.7177,9.6351,9.7177,9.7553,9.7478,9.8229,9.9055,9.9881,10.0707,10.1909,10.3636,10.5288,10.6565,10.7391,10.8217,10.8667,10.8592,10.8667,10.7951,10.6016,10.5859,10.4802,10.2693,10.2087,10.1647,10.1039,9.9955,9.9394,9.9359,9.9429,9.985,10.0693,10.1395,10.1957,10.287,10.3502,10.3923,10.3993,10.4204,10.4274,10.5017,10.5187,10.5819,10.7153,10.6802,10.6618,10.7134,10.542,10.37,10.3178,10.2352,10.1316,10.0519,10.0315,10.0312,10.0175,10.0242,10.0507,10.097,10.1236,10.1434,10.2163,10.2362,10.2627,10.2693,10.2627,10.2759,10.2693,10.2759,10.2892,10.4018,10.5012,10.5012,9.7199,9.7199,9.7199,9.7043,9.6733,9.6655,9.6189,9.5412,9.5412,9.5645,9.6111,9.58,9.5567,9.5412,9.58,9.661,9.7833,9.8195,9.8658,9.9396,9.9831,10.0496,10.1348,10.1889,10.2121,10.209,10.1847,10.0596,9.8732,9.7565,9.6819,9.6562,9.6877,9.7177,9.7252,9.7628,9.8304,9.913,9.913,9.9205,9.928,9.8754,9.8229,9.8003,9.8679,9.913,9.9205,9.9956,10.0557,10.0932,10.2134,10.3335,10.4537,10.6114,10.7391,10.8292,10.9043,10.9493,10.9493,11.0019,10.9375,10.7263,10.6792,10.5918,10.4259,10.3539,10.3197,10.3374,10.1854,10.0763,10.0833,10.1184,10.1606,10.2097,10.301,10.3923,10.4204,10.4906,10.5327,10.5397,10.5397,10.5468,10.5748,10.5819,10.6732,10.8206,10.7855,10.7249,10.7227,10.5761,10.4349,10.3308,10.2591,10.1717,10.0776,10.0776,10.1108,10.1567,10.2031,10.2428,10.3091,10.3753,10.4151,10.4416,10.4416,10.4681,10.5211,10.4614,10.4349,10.4084,10.3819,10.4018,10.4614,10.6006,10.6536,9.7199,9.7199,9.7199,9.7354,9.7587,9.7587,9.7354,9.7043,9.6966,9.7354,9.7898,9.7898,9.7587,9.7043,9.6966,9.7775,9.8944,9.9281,9.9588,10.02,10.1146,10.1889,10.2353,10.3127,10.3514,10.3482,10.3125,10.1863,9.9831,9.7989,9.7102,9.7177,9.7703,9.8154,9.8379,9.898,9.9656,10.0407,10.0482,10.0782,10.1082,10.0181,9.958,9.9656,10.0181,10.0482,10.0482,10.1082,10.1608,10.2059,10.3185,10.4387,10.5739,10.7165,10.8367,10.9343,10.9794,11.0094,11.032,11.092,11.0569,10.8914,10.8045,10.7216,10.6262,10.5001,10.4789,10.5228,10.3923,10.294,10.2448,10.287,10.315,10.3291,10.4555,10.5468,10.5538,10.617,10.6732,10.6942,10.6732,10.6732,10.6942,10.7083,10.7785,10.9189,10.8627,10.7718,10.7325,10.6339,10.498,10.346,10.2853,10.2236,10.1368,10.1776,10.2302,10.2958,10.3554,10.4084,10.4879,10.5542,10.6271,10.6072,10.6403,10.6735,10.7066,10.6801,10.6337,10.5807,10.5542,10.5476,10.5873,10.7331,10.8325,9.7199,9.7276,9.7199,9.7743,9.8442,9.8442,9.8908,9.9374,9.9452,9.9607,9.9607,9.9607,9.9685,9.9607,9.953,10.0003,10.0677,10.1348,10.1652,10.1843,10.3282,10.3746,10.3204,10.3978,10.4365,10.4365,10.4332,10.3252,10.1406,9.9708,9.8829,9.8829,9.8829,9.9205,9.9806,10.0031,10.0482,10.1233,10.1308,10.1383,10.1458,10.1383,10.1308,10.1383,10.1308,10.1383,10.1458,10.1458,10.2134,10.3636,10.3936,10.5063,10.7241,10.8292,10.9493,11.0845,11.047,11.047,11.1146,11.1371,11.1013,11.0123,10.9095,10.8198,10.7448,10.6381,10.5849,10.617,10.5889,10.5257,10.4133,10.3993,10.3993,10.4063,10.5327,10.617,10.631,10.7012,10.7785,10.8206,10.7855,10.7855,10.8487,10.8557,10.8979,10.961,10.9259,10.8558,10.8088,10.6751,10.5456,10.4337,10.332,10.2759,10.3223,10.3231,10.3703,10.4349,10.4869,10.5055,10.5663,10.6337,10.7132,10.7861,10.8391,10.8788,10.8921,10.8788,10.8325,10.7795,10.7622,10.7556,10.7265,10.8921,10.9848,9.8908,9.883,9.883,9.9063,9.9297,9.9297,9.953,9.9763,9.9763,10.0074,10.054,10.054,10.0851,10.1394,10.1394,10.1192,10.0962,10.1142,10.1835,10.2755,10.339,10.4055,10.4829,10.5138,10.5216,10.5216,10.5216,10.3983,10.1788,10.0313,9.9656,9.9656,9.9656,10.0106,10.0782,10.0932,10.1308,10.2059,10.2209,10.2434,10.2885,10.296,10.3185,10.3636,10.2735,10.266,10.3711,10.3786,10.4312,10.5363,10.6414,10.7391,10.8367,10.9644,11.0845,11.1897,11.1822,11.1972,11.2723,11.2798,11.2359,11.1093,10.999,10.8872,10.7859,10.677,10.6132,10.6212,10.631,10.5959,10.5678,10.5468,10.5257,10.5046,10.61,10.7293,10.7715,10.8136,10.8557,10.9119,10.8768,10.8908,10.9962,10.961,10.961,11.1436,11.0945,10.9909,10.9059,10.8195,10.7158,10.582,10.4988,10.4879,10.5608,10.4823,10.469,10.5741,10.6456,10.7118,10.7647,10.8722,10.9583,10.9583,11.0113,11.0511,11.0511,10.9566,10.9451,10.8921,10.8671,10.8671,10.8656,11.0047,11.0975,9.9763,9.9763,9.9763,9.9918,10.0151,10.0229,10.054,10.0928,10.0695,10.1084,10.1705,10.155,10.1783,10.2249,10.2327,10.1968,10.1453,10.184,10.2533,10.3297,10.4087,10.4906,10.5603,10.5989,10.6144,10.6034,10.5624,10.4407,10.2552,10.1315,10.0729,10.0482,10.0557,10.1082,10.1984,10.1984,10.2284,10.311,10.311,10.326,10.3786,10.4086,10.4612,10.5213,10.4387,10.4312,10.5438,10.5513,10.6039,10.709,10.8217,10.9193,11.0019,11.077,11.1746,11.2723,11.2873,11.3248,11.3999,11.4375,11.4006,11.2739,11.1255,10.9896,10.8582,10.716,10.6524,10.6283,10.631,10.631,10.631,10.631,10.617,10.61,10.7083,10.8206,10.8908,10.9049,10.9259,10.9681,10.9891,11.0453,11.1296,11.0523,11.0945,11.277,11.2138,11.1237,11.0001,10.944,10.8658,10.6888,10.6313,10.647,10.7079,10.6626,10.6017,10.6867,10.7581,10.8441,10.9235,11.0511,11.124,11.1306,11.1571,11.1969,11.1704,11.0691,11.0029,10.965,10.9517,10.9517,11.0113,11.0975,11.1704,9.9918,9.9918,9.984,10.0384,10.1006,10.1006,10.1938,10.2948,10.2482,10.2482,10.2948,10.256,10.2171,10.2327,10.2327,10.2201,10.2462,10.3624,10.3928,10.3545,10.5603,10.6221,10.5912,10.6531,10.684,10.684,10.5716,10.4735,10.3928,10.2706,10.1917,10.1509,10.1383,10.2134,10.3711,10.3035,10.341,10.4312,10.4011,10.3786,10.3861,10.4462,10.5213,10.6039,10.6039,10.6114,10.6264,10.6339,10.709,10.8592,10.8893,11.0019,11.1972,11.1897,11.2122,11.3624,11.3774,11.4074,11.4976,11.5501,11.5276,11.4459,11.2984,11.1279,10.9802,10.8215,10.7019,10.6535,10.631,10.631,10.631,10.631,10.6591,10.7364,10.8066,10.8838,10.961,10.9821,10.9891,11.0172,11.0945,11.1647,11.1436,11.1436,11.1998,11.256,11.3051,11.2706,11.1058,11.0544,10.9202,10.7807,10.7157,10.7265,10.7875,10.8499,10.8154,10.8074,10.8656,10.9235,10.9848,11.0776,11.1372,11.1637,11.2366,11.2697,11.2499,11.1551,11.0889,11.0426,11.036,11.0294,11.0776,11.1372,11.2101,10.155,10.155,10.155,10.1627,10.1938,10.1938,10.2249,10.2715,10.2404,10.2482,10.2638,10.2404,10.2327,10.2327,10.2327,10.2589,10.316,10.4221,10.4527,10.4381,10.548,10.6299,10.6608,10.684,10.6995,10.7006,10.6835,10.581,10.431,10.3421,10.2732,10.2336,10.2284,10.281,10.3786,10.3561,10.3786,10.4086,10.3936,10.3786,10.3786,10.4086,10.4612,10.5438,10.6039,10.6565,10.7165,10.7165,10.8292,11.032,11.0545,11.1671,11.3549,11.3399,11.3999,11.5727,11.4525,11.4675,11.6177,11.5351,11.4825,11.4533,11.3006,11.157,11.0571,10.8863,10.7524,10.698,10.6535,10.631,10.631,10.631,10.6661,10.7434,10.8206,10.9259,11.0453,11.1085,11.1647,11.1998,11.1717,11.2138,11.3332,11.3332,11.2841,11.4104,11.4666,11.4174,11.3185,11.2107,11.1309,11.0083,10.9171,10.7927,10.8605,10.9069,10.9202,10.9053,10.9434,10.9831,11.0445,11.0975,11.1571,11.2167,11.2896,11.3095,11.2896,11.2345,11.1683,11.1419,11.1353,11.122,11.1174,11.177,11.283,10.3259,10.3259,10.2948,10.2793,10.2715,10.2482,10.2715,10.3104,10.256,10.2871,10.3492,10.3026,10.2948,10.3181,10.3259,10.3546,10.4118,10.4868,10.5203,10.5138,10.5852,10.6486,10.6995,10.7382,10.7305,10.7117,10.7525,10.686,10.5151,10.4492,10.4098,10.3915,10.3711,10.3936,10.4687,10.4762,10.4762,10.4687,10.4462,10.4387,10.4687,10.4762,10.5138,10.6039,10.679,10.7766,10.8818,10.8667,10.9343,11.1071,11.1822,11.3098,11.475,11.4525,11.5051,11.6177,11.6027,11.5802,11.7078,11.6403,11.5576,11.5507,11.3835,11.2172,11.101,10.925,10.7773,10.698,10.6535,10.631,10.631,10.6661,10.7012,10.7434,10.8206,10.947,11.1015,11.2068,11.263,11.2911,11.27,11.3262,11.3753,11.4104,11.3613,11.5228,11.586,11.5682,11.4692,11.3541,11.2536,11.1512,11.0025,10.935,10.9252,10.965,11.0113,11.0162,11.0275,11.0559,11.0823,11.1571,11.2167,11.2631,11.3294,11.3029,11.2764,11.2455,11.2059,11.2125,11.2279,11.2543,11.2676,11.3492,11.4377,10.4891,10.4813,10.4036,10.3648,10.357,10.2871,10.3415,10.4425,10.3259,10.3803,10.5202,10.4269,10.4036,10.4735,10.458,10.4735,10.5124,10.5618,10.6006,10.6156,10.661,10.7014,10.7072,10.7923,10.7846,10.7227,10.7856,10.7681,10.6373,10.5689,10.5669,10.587,10.5363,10.5438,10.5964,10.6264,10.6114,10.5964,10.5438,10.5513,10.6114,10.6189,10.6565,10.7391,10.8217,10.9268,11.0395,11.032,11.0545,11.1446,11.2798,11.3924,11.4901,11.5051,11.5351,11.6478,11.7078,11.7229,11.7604,11.7754,11.7754,11.708,11.526,11.3499,11.1724,10.9809,10.7987,10.7011,10.6493,10.631,10.6451,10.6942,10.7434,10.7715,10.8487,10.9821,11.1787,11.27,11.3121,11.3472,11.3894,11.4315,11.4034,11.4315,11.4947,11.579,11.6562,11.6467,11.5691,11.4576,11.322,11.2028,11.0963,11.0147,10.9981,11.0346,11.0661,11.1022,11.1134,11.1266,11.1551,11.2234,11.283,11.3227,11.336,11.3029,11.3029,11.2852,11.2719,11.2543,11.3007,11.3644,11.4264,11.4775,11.5439,10.4891,10.4891,10.4658,10.458,10.4502,10.4269,10.4425,10.4813,10.4425,10.458,10.5124,10.4813,10.4735,10.4891,10.4968,10.5202,10.5823,10.6109,10.6421,10.6854,10.7057,10.7122,10.7337,10.8465,10.8388,10.7349,10.8142,10.7894,10.6755,10.6168,10.6009,10.633,10.6189,10.6039,10.6264,10.6339,10.6264,10.6264,10.6189,10.6114,10.6339,10.6414,10.6715,10.7541,10.8442,10.9343,11.0395,11.1371,11.1897,11.2197,11.3098,11.4375,11.5576,11.5426,11.5952,11.7604,11.7604,11.7754,11.813,11.798,11.7679,11.7305,11.5871,11.4475,11.3485,11.1141,10.9465,10.8449,10.7222,10.638,10.6451,10.7012,10.7855,10.9049,10.94,11.0172,11.1647,11.2279,11.2841,11.3894,11.4315,11.4877,11.5579,11.593,11.6351,11.7124,11.7756,11.8051,11.6865,11.568,11.431,11.3137,11.2012,11.0976,11.0661,11.0961,11.1276,11.1836,11.208,11.2345,11.2543,11.3029,11.3559,11.4022,11.3691,11.3426,11.3824,11.3999,11.3691,11.3294,11.3691,11.4198,11.4731,11.5239,11.6338,10.6522,10.6445,10.5745,10.5435,10.5357,10.5046,10.5124,10.5357,10.5046,10.5357,10.5745,10.559,10.5668,10.5901,10.5978,10.6212,10.6678,10.7066,10.7249,10.7143,10.7212,10.7122,10.7415,10.8697,10.8775,10.7846,10.8951,10.8594,10.7465,10.6853,10.6825,10.6913,10.6865,10.6865,10.694,10.7241,10.7165,10.7015,10.7165,10.7466,10.7841,10.7841,10.8367,10.9043,10.9644,11.0244,11.1146,11.2347,11.3023,11.3173,11.3849,11.4825,11.6027,11.6102,11.7003,11.8956,11.843,11.8355,11.8881,11.843,11.798,11.7755,11.6552,11.5308,11.4074,11.2132,11.049,10.9232,10.7787,10.6985,10.6872,10.7223,10.8347,10.9891,11.0313,11.0804,11.1998,11.277,11.3613,11.4596,11.5509,11.6141,11.7194,11.7264,11.7686,11.8177,11.8598,11.8415,11.7562,11.6441,11.5269,11.3815,11.2752,11.1626,11.1372,11.159,11.1808,11.2366,11.2764,11.2874,11.3205,11.3625,11.389,11.4089,11.3956,11.4022,11.4619,11.495,11.4818,11.4552,11.4619,11.4997,11.566,11.6557,11.7576,10.8776,10.862,10.7144,10.6522,10.6367,10.5668,10.5823,10.6134,10.5823,10.6289,10.7144,10.6755,10.6911,10.7532,10.7144,10.7299,10.7377,10.8076,10.8103,10.7841,10.7677,10.7556,10.7691,10.8852,10.9084,10.8664,10.9978,10.9489,10.8356,10.7953,10.7815,10.7796,10.7691,10.7691,10.7841,10.8442,10.8442,10.8217,10.8742,10.9268,10.9719,10.9869,11.0244,11.0995,11.1371,11.1822,11.2572,11.3399,11.3849,11.3849,11.46,11.5351,11.6252,11.7078,11.8355,11.9557,11.9482,11.9331,11.9632,11.9181,11.8731,11.8431,11.73,11.5976,11.4574,11.2691,11.1004,10.9764,10.838,10.7829,10.7855,10.7855,10.8908,11.0594,11.1155,11.1577,11.2279,11.3613,11.4807,11.5719,11.7054,11.7826,11.8037,11.8107,11.8388,11.902,11.9371,11.9046,11.8259,11.7128,11.5682,11.4012,11.3133,11.2187,11.2234,11.2366,11.2499,11.2764,11.3095,11.336,11.3757,11.3956,11.4022,11.4155,11.4486,11.4884,11.5414,11.5613,11.548,11.5637,11.5594,11.6415,11.7295,11.8483,11.9423,10.9319,10.8698,10.9086,10.8776,10.8232,10.7921,10.761,10.7222,10.7688,10.7921,10.8309,10.8154,10.8154,10.8309,10.7688,10.7377,10.7532,10.8309,10.8802,10.9286,10.912,10.9027,10.904,10.9471,10.9393,10.9403,10.9842,10.9738,10.8995,10.8605,10.8372,10.8568,10.8517,10.8592,10.8742,10.9343,10.9719,10.9644,11.032,11.077,11.092,11.1071,11.1521,11.2272,11.2873,11.3248,11.3549,11.43,11.475,11.475,11.5051,11.5802,11.6928,11.7904,11.9106,12.0233,12.0608,12.0308,11.9932,11.9632,11.9331,11.8656,11.7823,11.6727,11.5296,11.3443,11.1786,11.0374,10.917,10.8813,10.9119,10.9259,11.0172,11.1436,11.2419,11.2841,11.3262,11.4456,11.5649,11.6562,11.7826,11.8879,11.8879,11.9371,11.9652,11.9933,12.0003,11.9805,11.8824,11.7749,11.6372,11.505,11.3951,11.3089,11.2671,11.3004,11.3227,11.336,11.3625,11.389,11.4221,11.4552,11.4751,11.495,11.5281,11.5679,11.5944,11.5878,11.5745,11.6126,11.646,11.7094,11.8063,11.9636,12.1122,11.033,10.9941,11.0019,10.9708,10.9319,10.9319,10.9086,10.8698,10.862,10.8698,10.862,10.8309,10.8076,10.8076,10.761,10.7377,10.761,10.8309,10.9579,11.0401,11.0236,11.0066,11.0621,11.0355,11.009,11.021,11.0764,11.049,10.9696,10.9375,10.9334,10.9131,10.932,10.9644,10.9944,11.0395,11.0545,11.077,11.1446,11.1897,11.1897,11.2272,11.2798,11.3549,11.415,11.445,11.4901,11.5276,11.5501,11.5652,11.5952,11.6478,11.7304,11.8205,11.9331,12.0233,12.0157,12.0157,11.9857,11.9557,11.9106,11.8731,11.8279,11.7345,11.6134,11.4481,11.2844,11.1232,11.006,10.954,11.0242,11.0383,11.1155,11.2489,11.3683,11.4175,11.4245,11.5509,11.6632,11.7194,11.8388,11.9511,12.0143,12.0213,12.0845,12.1056,12.1196,12.0997,12.021,11.899,11.768,11.6429,11.5053,11.4094,11.3476,11.3355,11.3824,11.4089,11.4354,11.4619,11.495,11.5281,11.5613,11.5745,11.5811,11.5878,11.6076,11.601,11.6192,11.6548,11.696,11.7509,11.8605,12.0155,12.1687,11.1417,11.1262,11.064,11.033,11.0252,11.0252,11.0096,10.9863,10.9397,10.9319,10.8931,10.8154,10.8154,10.7843,10.7532,10.7532,10.8076,10.8853,11.0433,11.1777,11.0993,11.1058,11.1615,11.1284,11.1018,11.1095,11.1602,11.123,11.0517,11.029,10.9997,10.9856,10.9829,11.0244,11.0995,11.1446,11.1446,11.1596,11.2272,11.2723,11.2723,11.3248,11.3924,11.46,11.4825,11.5276,11.5802,11.6252,11.6478,11.6628,11.7379,11.7829,11.813,11.8655,11.9406,12.0308,12.0082,12.0157,12.0383,11.9782,11.9256,11.8956,11.8731,11.789,11.6517,11.5108,11.3595,11.2268,11.1051,11.0734,11.1085,11.1366,11.2068,11.3332,11.4736,11.5228,11.5298,11.6632,11.7264,11.7194,11.8318,11.9652,12.0213,12.0424,12.1337,12.2109,12.218,12.1988,12.1255,12.0093,11.8646,11.7536,11.6247,11.5164,11.4373,11.3974,11.4377,11.4907,11.5173,11.5281,11.577,11.5878,11.6143,11.6143,11.6209,11.6341,11.6341,11.6341,11.6549,11.7094,11.7644,11.8382,11.9601,12.0855,12.244,11.1961,11.134,11.1961,11.1806,11.1106,11.1106,11.0718,11.0174,11.0563,11.0873,11.064,10.9941,10.9319,10.9164,10.7921,10.8232,10.9397,11.0252,11.1314,11.2242,11.1798,11.2019,11.2002,11.1937,11.1792,11.1946,11.2067,11.1731,11.1021,11.0673,11.0488,11.0522,11.0281,11.0545,11.1446,11.1897,11.2272,11.2347,11.3023,11.3323,11.3474,11.3624,11.4225,11.4976,11.5126,11.5576,11.6327,11.6928,11.7529,11.828,11.9031,11.9782,12.0308,12.0683,12.1059,12.1434,12.1509,12.1434,12.1284,12.0984,12.0383,11.9857,11.9176,11.7873,11.6108,11.4751,11.3855,11.2946,11.2536,11.2419,11.1998,11.2419,11.3262,11.4245,11.5088,11.586,11.6351,11.7054,11.7545,11.7054,11.8247,11.9511,12.0003,12.0494,12.1126,12.1618,12.1688,12.218,12.2207,12.0773,11.9261,11.8299,11.737,11.6372,11.5395,11.5019,11.4997,11.5972,11.6149,11.6259,11.6525,11.6474,11.6606,11.699,11.7122,11.7163,11.7097,11.6898,11.7016,11.748,11.8371,11.9447,12.0855,12.237,12.4382,11.235,11.2039,11.2427,11.235,11.2039,11.1961,11.1728,11.134,11.134,11.1262,11.0873,10.9941,10.9319,10.9086,10.8542,10.9086,11.0407,11.1029,11.178,11.2375,11.2369,11.2311,11.2298,11.2202,11.2135,11.2256,11.2453,11.2232,11.1329,11.0673,11.0923,11.1281,11.0959,11.1296,11.2347,11.2948,11.3098,11.3248,11.3474,11.3699,11.3699,11.3699,11.4375,11.5276,11.5727,11.6252,11.7379,11.7754,11.8731,11.9782,12.0383,12.1209,12.2035,12.241,12.2185,12.2035,12.2185,12.196,12.1359,12.0683,12.0233,12.0007,11.9627,11.8544,11.7108,11.5934,11.4608,11.3369,11.2978,11.3198,11.3262,11.3613,11.4175,11.5017,11.6,11.6632,11.6913,11.7475,11.7405,11.7054,11.7896,11.8879,11.9792,12.0354,12.0916,12.1126,12.1196,12.1969,12.2811,12.1787,12.0146,11.9748,11.9052,11.8314,11.738,11.6807,11.674,11.7344,11.7525,11.7572,11.7594,11.7704,11.7995,11.8307,11.8352,11.8642,11.7995,11.7973,11.7935,11.836,11.9926,12.1405,12.2516,12.4027,12.5837,11.2583,11.2583,11.2583,11.2583,11.2583,11.2583,11.2583,11.2427,11.165,11.1262,11.1029,10.9553,10.8776,10.8776,10.9086,10.9786,11.1262,11.1417,11.2117,11.2712,11.2503,11.2447,11.2544,11.2266,11.2202,11.2213,11.2875,11.2732,11.1609,11.1028,11.1359,11.1704,11.1685,11.2122,11.3323,11.3549,11.3699,11.3699,11.3699,11.3699,11.3699,11.3924,11.46,11.6102,11.6327,11.7153,11.8355,11.9106,11.9932,12.1059,12.1885,12.2561,12.3612,12.3987,12.3312,12.211,12.2335,12.1734,12.1209,12.0908,12.1059,12.0758,12.0533,11.9532,11.8218,11.7033,11.5825,11.401,11.3784,11.3975,11.4396,11.4647,11.4947,11.5579,11.6632,11.7545,11.7334,11.7545,11.7826,11.7686,11.7826,11.8107,11.8879,11.9722,12.0213,12.0775,12.0916,12.2039,12.2811,12.2671,12.1717,12.1529,12.1131,12.0434,11.9713,11.913,11.9118,11.9648,11.9417,11.9182,11.9128,11.9154,11.9464,11.9704,12.0666,12.0884,11.9958,11.9384,11.9865,12.0747,12.2164,12.3559,12.4941,12.5562,12.6679,11.2583,11.2583,11.2583,11.2583,11.2583,11.2583,11.2583,11.2505,11.1728,11.134,11.1184,10.963,10.8776,10.8931,10.9553,11.033,11.1262,11.2039,11.2738,11.336,11.2918,11.2941,11.3301,11.253,11.2544,11.2666,11.3219,11.2797,11.2233,11.183,11.1976,11.2433,11.1966,11.2122,11.3549,11.3699,11.3699,11.3699,11.3774,11.3774,11.3849,11.445,11.5276,11.6177,11.6928,11.7604,11.8731,11.9782,12.1134,12.211,12.3612,12.4438,12.4889,12.5489,12.4814,12.3912,12.3387,12.3387,12.2861,12.2561,12.2335,12.1885,12.1885,12.0876,11.9328,11.789,11.664,11.52,11.5522,11.5671,11.5507,11.5452,11.5561,11.579,11.6545,11.7264,11.7475,11.7615,11.7826,11.8107,11.8177,11.7615,11.7756,11.8669,11.9511,12.0073,12.0845,12.2039,12.2811,12.2811,12.2891,12.2774,12.2505,12.2033,12.1963,12.1264,12.1255,12.1798,12.1148,12.0638,12.0544,12.0515,12.0567,12.102,12.2262,12.3118,12.2477,12.2125,12.2423,12.2992,12.3904,12.5576,12.745,12.7867,12.7727,11.3437,11.2583,11.2583,11.2583,11.2583,11.2583,11.2583,11.2505,11.2194,11.1728,11.1106,11.0019,10.9475,10.9475,10.9863,11.0796,11.1883,11.2427,11.3049,11.367,11.3489,11.359,11.4183,11.4047,11.3755,11.3629,11.4293,11.438,11.3545,11.268,11.2511,11.2985,11.237,11.2315,11.362,11.3699,11.3999,11.43,11.445,11.445,11.4525,11.4901,11.5576,11.6778,11.7229,11.7904,11.8881,12.0308,12.1509,12.2485,12.3987,12.5114,12.5339,12.5489,12.4964,12.4513,12.3837,12.3387,12.2936,12.3011,12.2786,12.2561,12.2334,12.1561,11.9994,11.884,11.7645,11.6318,11.7028,11.7119,11.6589,11.6333,11.6236,11.6278,11.6528,11.6897,11.7405,11.7756,11.7966,11.8247,11.8528,11.8247,11.8303,11.902,12.0354,12.1407,12.1828,12.246,12.3163,12.3303,12.3592,12.3817,12.3613,12.3478,12.3482,12.3279,12.314,12.3351,12.2651,12.2154,12.1936,12.1783,12.1979,12.233,12.3262,12.3967,12.4597,12.4808,12.474,12.5158,12.5646,12.6969,12.8289,12.8218,12.8008,11.4059,11.2894,11.2894,11.2894,11.2894,11.266,11.2427,11.2272,11.2194,11.165,11.0718,10.9941,10.9708,11.0174,11.0485,11.1495,11.2505,11.2816,11.3437,11.3826,11.3981,11.4266,11.4677,11.4881,11.4668,11.4545,11.5255,11.5377,11.4773,11.4084,11.3672,11.3629,11.2858,11.2948,11.3458,11.3699,11.3924,11.4375,11.445,11.4675,11.4901,11.5201,11.6102,11.7003,11.7679,11.8055,11.8806,12.0608,12.1885,12.2561,12.4288,12.5414,12.5565,12.5189,12.4814,12.4363,12.3837,12.3387,12.3086,12.2861,12.2711,12.2634,12.2478,12.1989,12.1103,12.0126,11.9323,11.812,11.8227,11.8183,11.7703,11.706,11.671,11.6639,11.6822,11.6879,11.7248,11.7881,11.8584,11.902,11.9371,11.9581,11.9779,12.0073,12.1126,12.2531,12.3092,12.3163,12.3514,12.3865,12.3943,12.4301,12.4301,12.4231,12.4301,12.4441,12.4778,12.4645,12.3901,12.3281,12.2861,12.3134,12.376,12.4251,12.453,12.5367,12.6133,12.6686,12.717,12.7246,12.7528,12.7944,12.8569,12.8499,12.8429,11.3826,11.3748,11.367,11.367,11.3593,11.2894,11.2117,11.165,11.1495,11.064,10.9475,10.8931,10.9475,11.0174,11.134,11.2194,11.266,11.336,11.3981,11.4292,11.437,11.437,11.4809,11.4987,11.4804,11.4435,11.5507,11.603,11.5919,11.5624,11.4912,11.4168,11.3593,11.3541,11.3684,11.3849,11.3849,11.4074,11.4074,11.4525,11.5126,11.5727,11.6553,11.7379,11.813,11.8655,11.8806,12.0833,12.2035,12.2335,12.4288,12.5189,12.4964,12.4814,12.4438,12.3987,12.3762,12.3537,12.3537,12.3387,12.3462,12.3306,12.2988,12.2642,12.2229,12.1669,12.0928,12.0132,11.9779,11.9056,11.8366,11.7744,11.7175,11.7086,11.716,11.7487,11.7811,11.8481,11.9256,11.9849,12.02,12.0398,12.0552,12.0775,12.1196,12.246,12.3373,12.3514,12.4075,12.4427,12.4497,12.4504,12.4707,12.4574,12.4504,12.4637,12.4497,12.4497,12.4097,12.3694,12.3351,12.4115,12.4949,12.5367,12.5854,12.6756,12.7657,12.7937,12.8289,12.8991,12.9272,12.9061,12.8991,12.9061,12.9061,11.5069,11.4525,11.4059,11.3826,11.3748,11.2971,11.2427,11.2117,11.2039,11.1495,11.0174,10.9786,10.9941,11.0796,11.134,11.2117,11.2583,11.2894,11.367,11.3981,11.4059,11.437,11.4887,11.5586,11.5714,11.5502,11.6314,11.6838,11.6804,11.6659,11.6,11.5141,11.4278,11.3871,11.3814,11.4074,11.415,11.3999,11.43,11.4901,11.5576,11.6027,11.6853,11.813,11.8355,11.8655,11.8956,12.0608,12.1359,12.2185,12.3687,12.4138,12.4288,12.4213,12.3987,12.3687,12.3612,12.3837,12.4063,12.3912,12.3612,12.3762,12.3752,12.3796,12.3475,12.3139,12.26,12.1832,12.0785,11.9888,11.9599,11.8659,11.7856,11.7703,11.7718,11.7868,11.8484,11.9165,11.9751,12.0335,12.0705,12.0862,12.1158,12.1267,12.1688,12.2119,12.3092,12.3935,12.4427,12.4848,12.4778,12.4637,12.4707,12.4356,12.4216,12.4146,12.4146,12.4216,12.4216,12.4167,12.404,12.4941,12.5706,12.6336,12.7036,12.7871,12.8429,12.878,12.9061,12.9131,12.9272,12.9412,12.9412,12.9482,12.9272,11.5691,11.4991,11.3904,11.3593,11.367,11.2894,11.2427,11.2272,11.2505,11.2117,11.1262,11.064,11.0718,11.1262,11.1961,11.2117,11.2738,11.3204,11.3748,11.4214,11.4681,11.4914,11.5613,11.6157,11.6596,11.6618,11.6996,11.7322,11.7258,11.7235,11.6428,11.5548,11.4879,11.4421,11.3897,11.4225,11.4375,11.4375,11.4675,11.5802,11.6628,11.6778,11.7454,11.8655,11.8881,11.8956,11.9256,12.0308,12.1059,12.181,12.2711,12.3312,12.3537,12.3612,12.3612,12.3612,12.3687,12.3912,12.4138,12.4288,12.4063,12.4588,12.4588,12.464,12.459,12.4409,12.3773,12.3084,12.1931,12.1041,12.0823,11.9743,11.92,11.9012,11.8,11.809,11.9073,11.9835,12.0285,12.0805,12.1129,12.1536,12.1299,12.1407,12.2109,12.24,12.3233,12.4005,12.4567,12.4848,12.4918,12.4707,12.4567,12.4075,12.3452,12.3514,12.3514,12.3865,12.4005,12.4567,12.4855,12.5761,12.6603,12.731,12.8011,12.878,12.9061,12.9131,12.8991,12.885,12.9131,12.9482,12.9482,12.9412,12.9061,11.5147,11.4914,11.336,11.3127,11.3593,11.2971,11.2194,11.1728,11.2272,11.2194,11.1495,11.1262,11.1262,11.1728,11.2738,11.3049,11.2971,11.4059,11.4758,11.4758,11.5224,11.6001,11.639,11.6778,11.6856,11.6674,11.7084,11.7461,11.7399,11.7302,11.6589,11.5828,11.526,11.4633,11.384,11.3699,11.415,11.4825,11.4901,11.6252,11.7379,11.7379,11.813,11.8956,11.8956,11.8956,11.9632,11.9932,12.0758,12.2035,12.2335,12.2936,12.3462,12.3537,12.3612,12.3612,12.3612,12.3687,12.3762,12.4438,12.5114,12.5565,12.5489,12.5551,12.5857,12.5522,12.5092,12.4729,12.3304,12.2414,12.162,12.0861,12.0537,12.0139,11.92,11.9051,12.0119,12.0722,12.118,12.1662,12.187,12.2156,12.1651,12.1477,12.232,12.2952,12.3443,12.4005,12.4637,12.4988,12.5129,12.4918,12.4707,12.4137,12.3514,12.2952,12.2882,12.3434,12.3926,12.4356,12.5339,12.6393,12.7235,12.8078,12.864,12.9131,12.9272,12.9342,12.892,12.864,12.9131,12.9482,12.9482,12.9342,12.9061,11.4758,11.4214,11.367,11.3204,11.2971,11.2738,11.2427,11.2272,11.2427,11.2427,11.2194,11.2194,11.2117,11.2505,11.3049,11.336,11.3049,11.4292,11.4991,11.4447,11.5302,11.538,11.5846,11.6545,11.6778,11.6674,11.7084,11.7521,11.7491,11.7368,11.6865,11.6208,11.5304,11.449,11.3904,11.3699,11.3924,11.4225,11.475,11.5652,11.6928,11.7379,11.798,11.9106,11.8881,11.9106,11.9782,11.9932,12.0758,12.2185,12.2485,12.2861,12.3462,12.3612,12.3537,12.3537,12.3612,12.4213,12.4889,12.564,12.579,12.609,12.6391,12.6762,12.7485,12.6963,12.6856,12.6299,12.4767,12.3782,12.3032,12.1837,12.1332,12.1188,12.0718,12.1151,12.1764,12.1981,12.2303,12.2716,12.3112,12.2631,12.2227,12.2074,12.259,12.3022,12.3443,12.4075,12.4707,12.5269,12.555,12.5269,12.4918,12.4277,12.3575,12.2741,12.225,12.259,12.3364,12.4075,12.5269,12.6814,12.7657,12.8429,12.892,12.9342,12.892,12.864,12.8499,12.8429,12.892,12.9342,12.9482,12.9342,12.9131,11.4525,11.4214,11.3593,11.3127,11.266,11.2583,11.2583,11.2583,11.2583,11.2583,11.2583,11.2583,11.2583,11.2738,11.3049,11.3204,11.2816,11.4292,11.4991,11.4447,11.5535,11.6079,11.639,11.6468,11.7011,11.6984,11.719,11.755,11.7521,11.7431,11.6939,11.6176,11.5228,11.4616,11.4108,11.3979,11.3924,11.4375,11.5126,11.6102,11.7078,11.7754,11.828,11.8881,11.9031,11.9031,11.9632,12.0233,12.0833,12.211,12.2711,12.3011,12.3612,12.3762,12.3537,12.3312,12.3312,12.4213,12.5489,12.6015,12.6315,12.7066,12.7292,12.7517,12.8037,12.7457,12.7829,12.7411,12.5956,12.525,12.4477,12.3207,12.2489,12.2345,12.22,12.2562,12.2815,12.3032,12.2995,12.3457,12.365,12.3234,12.2935,12.2863,12.2919,12.3082,12.3443,12.4075,12.4637,12.5058,12.541,12.5129,12.4567,12.3584,12.2882,12.232,12.1969,12.1887,12.3012,12.4286,12.569,12.7305,12.8008,12.864,12.8991,12.8991,12.8148,12.7727,12.7657,12.7937,12.8499,12.892,12.9342,12.9342,12.9201,11.437,11.4836,11.3282,11.266,11.266,11.266,11.2583,11.2583,11.2583,11.2583,11.2583,11.2583,11.2583,11.2583,11.266,11.266,11.2971,11.437,11.4758,11.5302,11.6234,11.6856,11.7245,11.74,11.7478,11.7555,11.7683,11.7578,11.7521,11.7491,11.708,11.6428,11.5391,11.4845,11.4553,11.4116,11.4146,11.475,11.5576,11.6703,11.7829,11.843,11.8956,11.9256,11.9331,11.9331,11.9782,12.0308,12.1434,12.241,12.2936,12.3612,12.3987,12.4063,12.3312,12.2861,12.2786,12.4213,12.564,12.609,12.6841,12.7592,12.7667,12.7517,12.7581,12.785,12.8256,12.8153,12.7179,12.6665,12.5981,12.4841,12.3866,12.3504,12.3141,12.3359,12.3721,12.3866,12.3866,12.3969,12.4209,12.3946,12.3484,12.3413,12.3458,12.3293,12.3654,12.4075,12.4497,12.4356,12.4637,12.4567,12.3865,12.261,12.2119,12.225,12.1969,12.1828,12.3785,12.5129,12.6533,12.7586,12.8359,12.885,12.9061,12.871,12.7516,12.6954,12.6814,12.7235,12.7797,12.871,12.9201,12.9412,12.9201,11.4914,11.4991,11.3904,11.3437,11.336,11.2816,11.2583,11.2583,11.2583,11.2583,11.2583,11.2583,11.2583,11.266,11.3204,11.2971,11.3437,11.4059,11.437,11.5147,11.6157,11.6623,11.7011,11.74,11.7633,11.7711,11.7711,11.7683,11.7578,11.755,11.7431,11.6865,11.5752,11.5413,11.4845,11.4242,11.4512,11.5051,11.5877,11.7078,11.8205,11.8655,11.9181,11.9406,11.9557,11.9557,11.9857,12.0984,12.2035,12.2485,12.3687,12.4363,12.3762,12.4738,12.5039,12.4363,12.4363,12.4814,12.594,12.6616,12.7217,12.7817,12.7968,12.8644,12.8713,12.8549,12.8589,12.8514,12.8172,12.7502,12.6802,12.5814,12.4736,12.4155,12.3866,12.3938,12.4228,12.4373,12.4373,12.4263,12.4466,12.444,12.3921,12.416,12.4207,12.3846,12.3865,12.4075,12.4146,12.3935,12.3865,12.3865,12.3514,12.247,12.254,12.2741,12.232,12.232,12.4075,12.5613,12.6252,12.7305,12.8429,12.878,12.864,12.7727,12.6533,12.6182,12.5901,12.6463,12.7025,12.8078,12.8991,12.9272,12.9201,11.4836,11.4914,11.3826,11.3282,11.3204,11.2816,11.2583,11.2583,11.2583,11.2583,11.2583,11.2583,11.2583,11.266,11.3049,11.3049,11.2738,11.3826,11.4447,11.4991,11.5691,11.6545,11.7089,11.74,11.7633,11.7711,11.7711,11.7711,11.7683,11.755,11.7431,11.7192,11.6176,11.5728,11.5192,11.4438,11.4521,11.5201,11.6102,11.7003,11.7829,11.858,11.9031,11.9331,11.9482,11.9632,12.0007,12.1359,12.211,12.2711,12.4138,12.4363,12.3837,12.4588,12.4814,12.3987,12.3837,12.4588,12.579,12.6466,12.7066,12.7742,12.8268,12.8644,12.8869,12.8713,12.9149,12.9336,12.878,12.8205,12.7426,12.6535,12.5568,12.459,12.4518,12.4518,12.4662,12.488,12.4807,12.4552,12.4619,12.4527,12.4663,12.4868,12.4531,12.3599,12.3212,12.3303,12.3303,12.3163,12.3163,12.3163,12.3022,12.2601,12.2811,12.2741,12.246,12.2671,12.4348,12.5613,12.6112,12.7165,12.8429,12.8359,12.7867,12.7025,12.6182,12.5269,12.4918,12.569,12.6673,12.7867,12.878,12.9342,12.9131,11.437,11.4836,11.336,11.2738,11.2583,11.2583,11.2583,11.2583,11.2583,11.2583,11.2583,11.2583,11.2583,11.266,11.2738,11.2738,11.2738,11.3437,11.4137,11.4991,11.5613,11.639,11.7089,11.7633,11.7711,11.7711,11.7711,11.7711,11.7683,11.755,11.7461,11.729,11.6265,11.5702,11.5359,11.449,11.4581,11.5426,11.5952,11.6628,11.7754,11.8355,11.8731,11.8881,11.9031,11.9181,11.9932,12.0908,12.196,12.2936,12.3837,12.4213,12.4363,12.3537,12.3312,12.3462,12.3387,12.4363,12.5489,12.624,12.7142,12.7893,12.8568,12.8568,12.8568,12.8719,12.9081,12.9291,12.8765,12.8339,12.7649,12.7139,12.6292,12.5462,12.5097,12.5025,12.4952,12.5242,12.5604,12.5387,12.5204,12.5043,12.4584,12.4734,12.4532,12.3272,12.2963,12.3001,12.2531,12.239,12.239,12.246,12.232,12.218,12.1969,12.1969,12.232,12.3153,12.4418,12.5543,12.5971,12.7165,12.8569,12.8148,12.7586,12.6884,12.6042,12.5129,12.4637,12.548,12.6533,12.7727,12.8569,12.9131,12.8991,11.4525,11.4059,11.367,11.3204,11.266,11.2583,11.2583,11.2583,11.2583,11.2583,11.2583,11.2583,11.2583,11.2583,11.2505,11.2505,11.266,11.2894,11.3437,11.4214,11.5069,11.6001,11.6778,11.7322,11.7555,11.7711,11.7711,11.7633,11.7528,11.7472,11.7491,11.7353,11.6476,11.5993,11.5549,11.4664,11.4779,11.5565,11.5652,11.6778,11.843,11.8731,11.8881,11.9256,11.9557,11.9557,12.0233,12.1284,12.196,12.2711,12.4063,12.4964,12.5715,12.3537,12.3312,12.4063,12.3612,12.4288,12.5264,12.609,12.6841,12.7667,12.8193,12.8268,12.8343,12.8493,12.8713,12.8849,12.8888,12.8557,12.811,12.7693,12.7266,12.6514,12.5677,12.5532,12.5314,12.5821,12.6329,12.6111,12.5894,12.5342,12.4815,12.4422,12.4234,12.3769,12.3539,12.3105,12.2227,12.1758,12.1618,12.1688,12.1688,12.1477,12.1337,12.1548,12.2039,12.2661,12.3715,12.484,12.5901,12.7516,12.892,12.8078,12.7376,12.6954,12.6182,12.4778,12.4707,12.562,12.6322,12.7651,12.8078,12.8569,12.8569,11.4214,11.3748,11.3437,11.3049,11.266,11.2583,11.2583,11.2583,11.2583,11.2583,11.2505,11.2272,11.2194,11.235,11.2194,11.235,11.2505,11.2583,11.3204,11.3826,11.437,11.5302,11.6157,11.6934,11.6934,11.7089,11.7167,11.7089,11.7322,11.7528,11.755,11.7353,11.675,11.6342,11.5801,11.5212,11.4944,11.5315,11.5415,11.6625,11.843,11.828,11.828,11.8731,11.9106,11.9406,12.0082,12.0908,12.1359,12.196,12.3011,12.3612,12.3912,12.3011,12.3161,12.3612,12.3687,12.3762,12.5039,12.579,12.6391,12.7217,12.7667,12.7667,12.8418,12.8644,12.8644,12.8856,12.9906,12.9761,12.9266,12.89,12.84,12.7777,12.6732,12.6111,12.6329,12.6836,12.6763,12.6256,12.5821,12.5059,12.4579,12.3879,12.3588,12.3495,12.3301,12.3059,12.2258,12.1606,12.1395,12.1126,12.1337,12.1337,12.1337,12.1618,12.2109,12.2731,12.3153,12.4769,12.6252,12.8078,12.9201,12.8499,12.7937,12.7586,12.6603,12.541,12.541,12.6322,12.6949,12.737,12.7792,12.7867,12.7657,11.3748,11.3515,11.2894,11.2583,11.2583,11.2583,11.2583,11.2583,11.2583,11.2583,11.2505,11.1728,11.1883,11.2039,11.1961,11.2194,11.2427,11.2583,11.3127,11.3593,11.3826,11.4836,11.5691,11.639,11.6623,11.6701,11.6701,11.6778,11.6934,11.7295,11.7521,11.729,11.6975,11.6553,11.6117,11.5696,11.5469,11.5702,11.5835,11.6017,11.655,11.7003,11.7529,11.7904,11.8205,11.9031,11.9632,12.0007,12.0458,12.1359,12.226,12.2636,12.2711,12.241,12.2786,12.3011,12.3011,12.3537,12.4513,12.4889,12.579,12.6616,12.6916,12.7367,12.8043,12.8418,12.8418,12.9019,12.9989,13.0414,12.9869,12.9693,12.9222,12.8646,12.7641,12.6908,12.7343,12.7705,12.7198,12.6691,12.6039,12.5314,12.4442,12.3745,12.3447,12.3175,12.2852,12.2682,12.2422,12.2187,12.1933,12.1606,12.1548,12.1548,12.1548,12.1958,12.252,12.2531,12.3163,12.4848,12.6603,12.8289,12.9201,12.9061,12.8499,12.7937,12.7446,12.6533,12.6814,12.6744,12.6744,12.6808,12.6738,12.6744,12.6603,11.3437,11.2816,11.266,11.2583,11.2583,11.2583,11.2583,11.2583,11.2583,11.2583,11.235,11.1806,11.1806,11.2583,11.2505,11.2505,11.2505,11.2583,11.3127,11.367,11.3593,11.4447,11.5147,11.5768,11.6701,11.6778,11.6545,11.6778,11.6856,11.7267,11.755,11.7472,11.7335,11.698,11.6589,11.6282,11.6308,11.6121,11.5777,11.576,11.5949,11.6628,11.7754,11.8055,11.828,11.9106,11.9707,11.9857,12.0833,12.1734,12.2185,12.226,12.211,12.1885,12.226,12.2561,12.2485,12.3312,12.4063,12.4138,12.5039,12.6015,12.624,12.6315,12.6916,12.7517,12.7817,12.8343,12.9163,12.959,12.9375,12.9705,12.9505,12.8884,12.7969,12.8001,12.8212,12.8284,12.8067,12.756,12.7053,12.6111,12.5025,12.4475,12.4363,12.4137,12.3721,12.3424,12.2935,12.2705,12.2469,12.2285,12.1958,12.2109,12.232,12.2649,12.3001,12.2942,12.3233,12.4848,12.6533,12.8359,12.8991,12.8569,12.8359,12.7937,12.7516,12.7095,12.6533,12.6252,12.6182,12.6112,12.5831,12.555,12.548]},{"header":{"parameterUnit":"m.s-1","parameterCategory":1,"la1":31.0,"la2":29.5877,"lo1":-88.7671,"lo2":-86.6584,"dy":0.0162,"dx":0.0185,"nx":115,"ny":88,"refTime":"2024-09-24T06:00:00:Z","depth":0,"parameterNumber":3,"parameterNumberName":"V-component_of_WINDS"},"data":[0.0,0.0,0.0,0.0,0.0,0.0,0.0,0.0,0.0,0.0,0.0,0.0,0.0,0.0,0.0,0.0,0.0,0.0,0.0,0.0,0.0,0.0,0.0,0.0,0.0,0.0,0.0,0.0,0.0,0.0,0.0,0.0,0.0,0.0,0.0,0.0,0.0,0.0,0.0,0.0,0.0,0.0,0.0,0.0,0.0,0.0,0.0,0.0,0.0,0.0,0.0,0.0,0.0,0.0,0.0,0.0,0.0,0.0,0.0,0.0,0.0,0.0,0.0,0.0,0.0,0.0,0.0,0.0,0.0,0.0,0.0,0.0,0.0,0.0,0.0,0.0,0.0,0.0,0.0,0.0,0.0,0.0,0.0,0.0,0.0,0.0,0.0,0.0,0.0,0.0,0.0,0.0,0.0,0.0,0.0,0.0,0.0,0.0,0.0,0.0,0.0,0.0,0.0,0.0,0.0,0.0,0.0,0.0,0.0,0.0,0.0,0.0,0.0,0.0,0.0,0.0,0.0,0.0,0.0,0.0,0.0,0.0,0.0,0.0,0.0,0.0,0.0,0.0,0.0,0.0,0.0,0.0,0.0,0.0,0.0,0.0,0.0,0.0,0.0,0.0,0.0,0.0,0.0,0.0,0.0,0.0,0.0,0.0,0.0,0.0,0.0,0.0,0.0,0.0,0.0,0.0,0.0,0.0,0.0,0.0,0.0,0.0,0.0,0.0,0.0,0.0,0.0,0.0,0.0,0.0,0.0,0.0,0.0,0.0,0.0,0.0,0.0,0.0,0.0,0.0,0.0,0.0,0.0,0.0,0.0,0.0,0.0,0.0,0.0,0.0,0.0,0.0,0.0,0.0,0.0,0.0,0.0,0.0,0.0,0.0,0.0,0.0,0.0,0.0,0.0,0.0,0.0,0.0,0.0,0.0,0.0,0.0,0.0,0.0,0.0,0.0,0.0,0.0,0.0,0.0,0.0,0.0,0.0,0.0,0.0,0.0,0.0,0.0,0.0,0.0,0.0,0.0,0.0,0.0,0.0,0.0,0.0,0.0,0.0,0.0,0.0,0.0,0.0,0.0,0.0,0.0,0.0,0.0,0.0,0.0,0.0,0.0,0.0,0.0,0.0,0.0,0.0,0.0,0.0,0.0,0.0,0.0,0.0,0.0,0.0,0.0,0.0,0.0,0.0,0.0,0.0,0.0,0.0,0.0,0.0,0.0,0.0,0.0,0.0,0.0,0.0,0.0,0.0,0.0,0.0,0.0,0.0,0.0,0.0,0.0,0.0,0.0,0.0,0.0,0.0,0.0,0.0,0.0,0.0,0.0,0.0,0.0,0.0,0.0,0.0,0.0,0.0,0.0,0.0,0.0,0.0,0.0,0.0,0.0,0.0,0.0,0.0,0.0,0.0,0.0,0.0,0.0,0.0,0.0,0.0,0.0,0.0,0.0,0.0,0.0,0.0,0.0,0.0,0.0,0.0,0.0,0.0,0.0,0.0,0.0,0.0,0.0,0.0,0.0,0.0,0.0,0.0,0.0,0.0,0.0,0.0,0.0,0.0,0.0,0.0,0.0,0.0,0.0,0.0,0.0,0.0,0.0,0.0,0.0,0.0,0.0,0.0,0.0,0.0,0.0,0.0,0.0,0.0,0.0,0.0,0.0,0.0,0.0,0.0,0.0,0.0,0.0,0.0,0.0,0.0,0.0,0.0,0.0,0.0,0.0,0.0,0.0,0.0,0.0,0.0,0.0,0.0,0.0,0.0,0.0,0.0,0.0,0.0,0.0,0.0,0.0,0.0,0.0,0.0,0.0,0.0,0.0,0.0,0.0,0.0,0.0,0.0,0.0,0.0,0.0,0.0,0.0,0.0,0.0,0.0,0.0,0.0,0.0,0.0,0.0,0.0,0.0,0.0,0.0,0.0,0.0,0.0,0.0,0.0,0.0,0.0,0.0,0.0,0.0,0.0,0.0,0.0,0.0,0.0,0.0,0.0,0.0,0.0,0.0,0.0,0.0,0.0,0.0,0.0,0.0,0.0,0.0,0.0,0.0,0.0,0.0,0.0,0.0,0.0,0.0,0.0,0.0,0.0,0.0,0.0,0.0,0.0,0.0,0.0,0.0,0.0,0.0,0.0,0.0,0.0,0.0,0.0,0.0,0.0,0.0,0.0,0.0,0.0,0.0,0.0,0.0,0.0,0.0,0.0,0.0,0.0,0.0,0.0,0.0,0.0,0.0,0.0,0.0,0.0,0.0,0.0,0.0,0.0,0.0,0.0,0.0,0.0,0.0,0.0,0.0,0.0,0.0,0.0,0.0,0.0,0.0,0.0,0.0,0.0,0.0,0.0,0.0,0.0,0.0,0.0,0.0,0.0,0.0,0.0,0.0,0.0,0.0,0.0,0.0,0.0,0.0,0.0,0.0,0.0,0.0,0.0,0.0,0.0,0.0,0.0,0.0,0.0,0.0,0.0,0.0,0.0,0.0,0.0,0.0,0.0,0.0,0.0,0.0,0.0,0.0,0.0,0.0,0.0,0.0,0.0,0.0,0.0,0.0,0.0,0.0,0.0,0.0,0.0,0.0,0.0,0.0,0.0,0.0,0.0,0.0,0.0,0.0,0.0,0.0,0.0,0.0,0.0,0.0,0.0,0.0,0.0,0.0,0.0,0.0,0.0,0.0,0.0,0.0,0.0,0.0,0.0,0.0,0.0,0.0,0.0,0.0,0.0,0.0,0.0,0.0,0.0,0.0,0.0,0.0,0.0,0.0,0.0,0.0,0.0,0.0,0.0,0.0,0.0,0.0,0.0,0.0,0.0,0.0,0.0,0.0,0.0,0.0,0.0,0.0,0.0,0.0,0.0,0.0,0.0,0.0,0.0,0.0,0.0,0.0,0.0,0.0,0.0,0.0,0.0,0.0,0.0,0.0,0.0,0.0,0.0,0.0,0.0,0.0,0.0,0.0,0.0,0.0,0.0,0.0,0.0,0.0,0.0,0.0,0.0,0.0,0.0,0.0,0.0,0.0,0.0,0.0,0.0,0.0,0.0,0.0,0.0,0.0,0.0,0.0,0.0,0.0,0.0,0.0,0.0,0.0,0.0,0.0,0.0,0.0,0.0,0.0,0.0,0.0,0.0,0.0,0.0,0.0,0.0,0.0,0.0,0.0,0.0,0.0,0.0,0.0,0.0,0.0,0.0,0.0,0.0,0.0,0.0,0.0,0.0,0.0,0.0,0.0,0.0,0.0,0.0,0.0,0.0,0.0,0.0,0.0,0.0,0.0,0.0,0.0,0.0,0.0,0.0,0.0,0.0,0.0,0.0,0.0,0.0,0.0,0.0,0.0,0.0,0.0,0.0,0.0,0.0,0.0,0.0,0.0,0.0,0.0,0.0,0.0,0.0,0.0,0.0,0.0,0.0,0.0,0.0,0.0,0.0,0.0,0.0,0.0,0.0,0.0,0.0,0.0,0.0,0.0,0.0,0.0,0.0,0.0,0.0,0.0,0.0,0.0,0.0,0.0,0.0,0.0,0.0,0.0,0.0,0.0,0.0,0.0,0.0,0.0,0.0,0.0,0.0,0.0,0.0,0.0,0.0,0.0,0.0,0.0,0.0,0.0,0.0,0.0,0.0,0.0,0.0,0.0,0.0,0.0,0.0,0.0,0.0,0.0,0.0,0.0,0.0,0.0,0.0,0.0,0.0,0.0,0.0,0.0,0.0,0.0,0.0,0.0,0.0,0.0,0.0,0.0,0.0,0.0,0.0,0.0,0.0,0.0,0.0,0.0,0.0,0.0,0.0,0.0,0.0,0.0,0.0,0.0,0.0,0.0,0.0,0.0,0.0,0.0,0.0,0.0,0.0,0.0,0.0,0.0,0.0,0.0,0.0,0.0,0.0,0.0,0.0,0.0,0.0,0.0,0.0,0.0,0.0,0.0,0.0,0.0,0.0,0.0,0.0,0.0,0.0,0.0,0.0,0.0,0.0,0.0,0.0,0.0,0.0,0.0,0.0,0.0,0.0,0.0,0.0,0.0,0.0,0.0,0.0,0.0,0.0,0.0,0.0,0.0,0.0,0.0,0.0,0.0,0.0,0.0,0.0,0.0,0.0,0.0,0.0,0.0,0.0,0.0,0.0,0.0,0.0,0.0,0.0,0.0,0.0,0.0,0.0,0.0,0.0,0.0,0.0,0.0,0.0,0.0,0.0,0.0,0.0,0.0,0.0,0.0,0.0,0.0,0.0,0.0,0.0,0.0,0.0,0.0,0.0,0.0,2.0522,0.0,0.0,0.0,0.0,0.0,0.0,0.0,0.0,0.0,0.0,0.0,0.0,0.0,0.0,0.0,0.0,0.0,0.0,0.0,0.0,0.0,0.0,0.0,0.0,0.0,0.0,0.0,0.0,0.0,0.0,0.0,0.0,0.0,0.0,0.0,0.0,0.0,0.0,0.0,0.0,0.0,0.0,0.0,0.0,0.0,0.0,0.0,0.0,0.0,0.0,0.0,0.0,0.0,0.0,0.0,0.0,0.0,0.0,0.0,0.0,0.0,0.0,0.0,0.0,0.0,0.0,0.0,0.0,0.0,0.0,0.0,0.0,0.0,0.0,0.0,0.0,0.0,0.0,0.0,0.0,0.0,0.0,0.0,0.0,0.0,0.0,0.0,0.0,0.0,0.0,0.0,0.0,0.0,0.0,0.0,0.0,0.0,0.0,0.0,0.0,0.0,0.0,0.0,0.0,0.0,0.0,0.0,0.0,0.0,0.0,2.1168,2.0953,2.1168,2.119,2.0953,0.0,0.0,0.0,0.0,0.0,0.0,0.0,0.0,0.0,0.0,0.0,0.0,0.0,0.0,0.0,0.0,0.0,0.0,0.0,0.0,0.0,0.0,0.0,0.0,0.0,0.0,0.0,0.0,0.0,0.0,0.0,0.0,0.0,0.0,0.0,0.0,0.0,0.0,0.0,0.0,0.0,0.0,0.0,0.0,0.0,0.0,0.0,0.0,0.0,0.0,0.0,0.0,0.0,0.0,0.0,0.0,0.0,0.0,0.0,0.0,0.0,0.0,0.0,0.0,0.0,0.0,0.0,0.0,0.0,0.0,0.0,0.0,0.0,0.0,0.0,0.0,0.0,0.0,0.0,0.0,0.0,0.0,0.0,0.0,0.0,0.0,0.0,0.0,0.0,0.0,0.0,0.0,0.0,0.0,0.0,0.0,0.0,0.0,0.0,0.0,0.0,0.0,0.0,0.0,0.0,0.0,0.0,0.0,0.0,0.0,0.0,0.0,2.1685,2.1642,2.1362,0.0,0.0,0.0,0.0,0.0,0.0,0.0,0.0,0.0,0.0,0.0,0.0,0.0,0.0,0.0,0.0,0.0,0.0,0.0,0.0,0.0,0.0,0.0,0.0,0.0,0.0,0.0,0.0,0.0,0.0,0.0,0.0,0.0,0.0,0.0,0.0,0.0,0.0,0.0,0.0,0.0,0.0,0.0,0.0,0.0,0.0,0.0,0.0,0.0,0.0,0.0,0.0,0.0,0.0,0.0,0.0,0.0,0.0,0.0,0.0,0.0,0.0,0.0,0.0,0.0,0.0,0.0,0.0,0.0,0.0,0.0,0.0,0.0,0.0,0.0,0.0,0.0,0.0,0.0,0.0,0.0,0.0,0.0,0.0,0.0,0.0,0.0,0.0,0.0,0.0,0.0,0.0,0.0,0.0,0.0,0.0,0.0,0.0,0.0,0.0,0.0,0.0,0.0,0.0,0.0,0.0,0.0,0.0,0.0,0.0,2.1793,2.2223,2.2245,0.0,2.162,0.0,0.0,0.0,0.0,0.0,0.0,0.0,0.0,0.0,0.0,0.0,0.0,0.0,0.0,0.0,0.0,0.0,0.0,0.0,0.0,0.0,0.0,0.0,0.0,0.0,0.0,0.0,0.0,0.0,0.0,0.0,0.0,0.0,0.0,0.0,0.0,0.0,0.0,0.0,0.0,0.0,0.0,0.0,0.0,0.0,0.0,0.0,0.0,0.0,0.0,0.0,0.0,0.0,0.0,0.0,0.0,0.0,0.0,0.0,0.0,0.0,0.0,0.0,0.0,0.0,0.0,0.0,0.0,0.0,0.0,0.0,0.0,0.0,0.0,0.0,0.0,0.0,0.0,0.0,0.0,0.0,0.0,0.0,0.0,0.0,0.0,0.0,0.0,0.0,0.0,0.0,0.0,0.0,0.0,0.0,0.0,0.0,0.0,0.0,0.0,0.0,0.0,0.0,0.0,0.0,0.0,0.0,0.0,0.0,0.0,2.2008,2.2331,2.2051,2.1814,0.0,0.0,0.0,0.0,0.0,0.0,0.0,0.0,0.0,0.0,0.0,0.0,0.0,0.0,0.0,0.0,0.0,0.0,0.0,0.0,0.0,0.0,0.0,0.0,0.0,0.0,0.0,0.0,0.0,0.0,0.0,0.0,0.0,0.0,0.0,0.0,0.0,0.0,0.0,0.0,0.0,0.0,0.0,0.0,0.0,0.0,0.0,0.0,0.0,0.0,0.0,0.0,0.0,0.0,0.0,0.0,0.0,0.0,0.0,0.0,0.0,0.0,0.0,0.0,0.0,0.0,0.0,0.0,0.0,0.0,0.0,0.0,0.0,0.0,0.0,0.0,0.0,0.0,0.0,0.0,0.0,0.0,0.0,0.0,0.0,0.0,0.0,0.0,0.0,0.0,0.0,0.0,0.0,0.0,0.0,0.0,0.0,0.0,0.0,0.0,0.0,0.0,0.0,0.0,0.0,0.0,0.0,0.0,0.0,0.0,2.2029,2.2202,2.2395,2.2159,2.1793,2.134,0.0,0.0,0.0,0.0,0.0,0.0,0.0,0.0,0.0,0.0,0.0,0.0,0.0,0.0,0.0,0.0,0.0,0.0,0.0,0.0,0.0,0.0,0.0,0.0,0.0,0.0,0.0,0.0,0.0,0.0,0.0,0.0,0.0,0.0,0.0,0.0,0.0,0.0,0.0,0.0,0.0,0.0,0.0,0.0,0.0,0.0,0.0,0.0,0.0,0.0,0.0,0.0,0.0,0.0,0.0,0.0,0.0,0.0,0.0,0.0,0.0,0.0,0.0,0.0,0.0,0.0,0.0,0.0,0.0,0.0,0.0,0.0,0.0,0.0,0.0,0.0,0.0,0.0,0.0,0.0,0.0,0.0,0.0,0.0,0.0,0.0,0.0,0.0,0.0,0.0,0.0,0.0,0.0,0.0,0.0,0.0,0.0,0.0,0.0,0.0,0.0,0.0,0.0,0.0,0.0,0.0,0.0,0.0,0.0,2.2417,2.2439,2.2675,2.2869,2.2245,0.0,0.0,0.0,0.0,0.0,0.0,0.0,0.0,0.0,0.0,0.0,0.0,0.0,0.0,0.0,0.0,0.0,0.0,0.0,0.0,0.0,0.0,0.0,0.0,0.0,0.0,0.0,0.0,0.0,0.0,0.0,0.0,0.0,0.0,0.0,0.0,0.0,0.0,0.0,0.0,0.0,0.0,0.0,0.0,0.0,0.0,0.0,0.0,0.0,0.0,0.0,0.0,0.0,0.0,0.0,0.0,0.0,0.0,0.0,0.0,0.0,0.0,0.0,0.0,0.0,0.0,0.0,0.0,0.0,0.0,0.0,0.0,0.0,0.0,0.0,0.0,0.0,0.0,0.0,0.0,0.0,0.0,0.0,0.0,0.0,0.0,0.0,0.0,0.0,0.0,0.0,0.0,0.0,0.0,0.0,0.0,0.0,0.0,0.0,0.0,0.0,0.0,0.0,0.0,0.0,0.0,0.0,0.0,0.0,2.007,2.161,2.2589,2.3085,2.2352,2.162,0.0,0.0,0.0,0.0,0.0,0.0,0.0,0.0,0.0,0.0,0.0,0.0,0.0,0.0,0.0,0.0,0.0,0.0,0.0,0.0,0.0,0.0,0.0,0.0,0.0,0.0,0.0,0.0,0.0,0.0,0.0,0.0,0.0,0.0,0.0,0.0,0.0,0.0,0.0,0.0,0.0,0.0,0.0,0.0,0.0,0.0,0.0,0.0,0.0,0.0,0.0,0.0,0.0,0.0,0.0,0.0,0.0,0.0,0.0,0.0,0.0,0.0,0.0,0.0,0.0,0.0,0.0,0.0,0.0,0.0,0.0,0.0,0.0,0.0,0.0,0.0,0.0,0.0,0.0,0.0,0.0,0.0,0.0,0.0,0.0,0.0,0.0,0.0,0.0,0.0,0.0,0.0,0.0,0.0,0.0,0.0,0.0,0.0,0.0,0.0,0.0,0.0,0.0,0.0,0.0,0.0,0.0,0.0,0.0,1.9831,0.0,2.2805,0.0,2.2116,2.1362,0.0,0.0,0.0,0.0,0.0,0.0,0.0,0.0,0.0,0.0,0.0,0.0,0.0,0.0,0.0,0.0,0.0,0.0,0.0,0.0,0.0,0.0,0.0,0.0,0.0,0.0,0.0,0.0,0.0,0.0,0.0,0.0,0.0,0.0,0.0,0.0,0.0,0.0,0.0,0.0,0.0,0.0,0.0,0.0,0.0,0.0,0.0,0.0,0.0,0.0,0.0,0.0,0.0,0.0,0.0,0.0,0.0,0.0,0.0,0.0,0.0,0.0,0.0,0.0,0.0,0.0,0.0,0.0,0.0,0.0,0.0,0.0,0.0,0.0,0.0,0.0,0.0,0.0,0.0,0.0,0.0,0.0,0.0,0.0,0.0,0.0,0.0,0.0,0.0,0.0,0.0,0.0,0.0,0.0,0.0,0.0,0.0,0.0,0.0,0.0,0.0,0.0,0.0,0.0,0.0,0.0,0.0,0.0,1.9035,2.1798,2.2891,2.3042,2.2395,2.2309,2.1534,0.0,0.0,0.0,0.0,0.0,0.0,0.0,0.0,0.0,0.0,0.0,0.0,0.0,0.0,0.0,0.0,0.0,0.0,0.0,0.0,0.0,0.0,0.0,0.0,0.0,0.0,0.0,0.0,0.0,0.0,0.0,0.0,0.0,0.0,0.0,0.0,0.0,0.0,0.0,0.0,0.0,0.0,0.0,0.0,0.0,0.0,0.0,0.0,0.0,0.0,0.0,0.0,0.0,0.0,0.0,0.0,0.0,0.0,0.0,0.0,0.0,0.0,0.0,0.0,0.0,0.0,0.0,0.0,0.0,0.0,0.0,0.0,0.0,0.0,0.0,0.0,0.0,0.0,0.0,0.0,0.0,0.0,0.0,0.0,0.0,0.0,0.0,0.0,0.0,0.0,0.0,0.0,0.0,0.0,0.0,0.0,0.0,0.0,0.0,0.0,0.0,0.0,0.0,0.0,0.0,0.0,0.0,0.0,0.0,2.1965,2.2589,2.3042,2.3257,2.2202,2.1426,0.0,0.0,0.0,0.0,0.0,0.0,0.0,0.0,0.0,0.0,0.0,0.0,0.0,0.0,0.0,0.0,0.0,0.0,0.0,0.0,0.0,0.0,0.0,0.0,0.0,0.0,0.0,0.0,0.0,0.0,0.0,0.0,0.0,0.0,0.0,0.0,0.0,0.0,0.0,0.0,0.0,0.0,0.0,0.0,0.0,0.0,0.0,0.0,0.0,0.0,0.0,0.0,0.0,0.0,0.0,0.0,0.0,0.0,0.0,0.0,0.0,0.0,0.0,0.0,0.0,0.0,0.0,0.0,0.0,0.0,0.0,0.0,0.0,0.0,0.0,0.0,0.0,0.0,0.0,0.0,0.0,0.0,0.0,0.0,0.0,0.0,0.0,0.0,0.0,0.0,0.0,0.0,0.0,0.0,0.0,0.0,0.0,0.0,0.0,0.0,0.0,0.0,0.0,0.0,0.0,0.0,0.0,0.0,0.0,2.2332,2.2977,2.3386,2.3731,2.2309,2.1513,2.147,0.0,0.0,0.0,0.0,0.0,0.0,0.0,0.0,0.0,0.0,0.0,0.0,0.0,0.0,0.0,0.0,0.0,0.0,0.0,0.0,0.0,0.0,0.0,0.0,0.0,0.0,0.0,0.0,0.0,0.0,0.0,0.0,0.0,0.0,0.0,0.0,0.0,0.0,0.0,0.0,0.0,0.0,0.0,0.0,0.0,0.0,0.0,0.0,0.0,0.0,0.0,0.0,0.0,0.0,0.0,0.0,0.0,0.0,0.0,0.0,0.0,0.0,0.0,0.0,0.0,0.0,0.0,0.0,0.0,0.0,0.0,0.0,0.0,0.0,0.0,0.0,0.0,0.0,0.0,0.0,0.0,0.0,0.0,0.0,0.0,0.0,0.0,0.0,0.0,0.0,0.0,0.0,0.0,0.0,0.0,0.0,0.0,0.0,0.0,0.0,0.0,0.0,0.0,0.0,0.0,0.0,0.0,0.0,2.3343,2.3881,2.4032,2.3817,2.2632,2.1793,0.0,0.0,0.0,0.0,0.0,0.0,0.0,0.0,0.0,0.0,0.0,0.0,0.0,0.0,0.0,0.0,0.0,0.0,0.0,0.0,0.0,0.0,0.0,0.0,0.0,0.0,0.0,0.0,0.0,0.0,0.0,0.0,0.0,0.0,0.0,0.0,0.0,0.0,0.0,0.0,0.0,0.0,0.0,0.0,0.0,0.0,0.0,0.0,0.0,0.0,0.0,0.0,0.0,0.0,0.0,0.0,0.0,0.0,0.0,0.0,0.0,0.0,0.0,0.0,0.0,0.0,0.0,0.0,0.0,0.0,0.0,0.0,0.0,0.0,0.0,0.0,0.0,0.0,0.0,0.0,0.0,0.0,0.0,0.0,0.0,0.0,0.0,0.0,0.0,0.0,0.0,0.0,0.0,0.0,0.0,0.0,0.0,0.0,0.0,0.0,0.0,0.0,0.0,0.0,0.0,0.0,0.0,0.0,0.0,2.2717,2.4011,2.4592,2.4506,2.3214,2.2266,0.0,0.0,0.0,0.0,0.0,0.0,0.0,0.0,0.0,0.0,0.0,0.0,0.0,0.0,0.0,0.0,0.0,0.0,0.0,0.0,0.0,0.0,0.0,0.0,0.0,0.0,0.0,0.0,0.0,0.0,0.0,0.0,0.0,0.0,0.0,0.0,0.0,0.0,0.0,0.0,0.0,0.0,0.0,0.0,0.0,0.0,0.0,0.0,0.0,0.0,0.0,0.0,0.0,0.0,0.0,0.0,0.0,0.0,0.0,0.0,0.0,0.0,0.0,0.0,0.0,0.0,0.0,0.0,0.0,0.0,0.0,0.0,0.0,0.0,0.0,0.0,0.0,0.0,0.0,0.0,0.0,0.0,0.0,0.0,0.0,0.0,0.0,0.0,0.0,0.0,0.0,0.0,0.0,0.0,0.0,0.0,0.0,0.0,0.0,0.0,0.0,0.0,0.0,0.0,0.0,0.0,0.0,0.0,1.96,2.3558,2.457,2.5109,2.5109,2.3817,2.2762,0.0,0.0,0.0,0.0,0.0,0.0,0.0,0.0,0.0,0.0,0.0,0.0,0.0,0.0,0.0,0.0,0.0,0.0,0.0,0.0,0.0,0.0,0.0,0.0,0.0,0.0,0.0,0.0,0.0,0.0,0.0,0.0,0.0,0.0,0.0,0.0,0.0,0.0,0.0,0.0,0.0,0.0,0.0,0.0,0.0,0.0,0.0,0.0,0.0,0.0,0.0,0.0,0.0,0.0,0.0,0.0,0.0,0.0,0.0,0.0,0.0,0.0,0.0,0.0,0.0,0.0,0.0,0.0,0.0,0.0,0.0,0.0,0.0,0.0,0.0,0.0,0.0,0.0,0.0,0.0,0.0,0.0,0.0,0.0,0.0,0.0,0.0,0.0,0.0,0.0,0.0,0.0,0.0,0.0,0.0,0.0,0.0,0.0,0.0,0.0,0.0,0.0,0.0,0.0,0.0,0.0,0.0,0.0,2.0166,2.4657,2.526,2.5539,2.5453,2.4398,2.3257,0.0,0.0,0.0,0.0,0.0,0.0,0.0,0.0,0.0,0.0,0.0,0.0,0.0,0.0,0.0,0.0,0.0,0.0,0.0,0.0,0.0,0.0,0.0,0.0,0.0,0.0,0.0,0.0,0.0,0.0,0.0,0.0,0.0,0.0,0.0,0.0,0.0,0.0,0.0,0.0,0.0,0.0,0.0,0.0,0.0,0.0,0.0,0.0,0.0,0.0,0.0,0.0,0.0,0.0,0.0,0.0,0.0,0.0,0.0,0.0,0.0,0.0,0.0,0.0,0.0,0.0,0.0,0.0,0.0,0.0,0.0,0.0,0.0,0.0,0.0,0.0,0.0,0.0,0.0,0.0,0.0,0.0,0.0,0.0,0.0,0.0,0.0,0.0,0.0,0.0,0.0,0.0,0.0,0.0,0.0,0.0,0.0,0.0,0.0,0.0,0.0,0.0,0.0,0.0,0.0,0.0,0.0,0.0,2.1817,2.3989,2.5173,2.5626,2.526,2.4635,2.3666,0.0,0.0,0.0,0.0,0.0,0.0,0.0,0.0,0.0,0.0,0.0,0.0,0.0,0.0,0.0,0.0,0.0,0.0,0.0,0.0,0.0,0.0,0.0,0.0,0.0,0.0,0.0,0.0,0.0,0.0,0.0,0.0,0.0,0.0,0.0,0.0,0.0,0.0,0.0,0.0,0.0,0.0,0.0,0.0,0.0,0.0,0.0,0.0,4.0474,0.0,0.0,0.0,0.0,0.0,0.0,0.0,0.0,0.0,0.0,0.0,0.0,0.0,0.0,0.0,0.0,0.0,0.0,0.0,0.0,0.0,0.0,0.0,0.0,0.0,0.0,0.0,0.0,0.0,0.0,0.0,0.0,0.0,0.0,0.0,0.0,0.0,0.0,0.0,0.0,0.0,0.0,0.0,0.0,0.0,0.0,0.0,0.0,0.0,0.0,0.0,0.0,0.0,0.0,0.0,0.0,0.0,0.0,0.0,2.2623,2.4743,2.5475,2.5755,2.5496,2.5044,2.4075,0.0,0.0,0.0,0.0,0.0,0.0,0.0,0.0,0.0,0.0,0.0,0.0,0.0,0.0,0.0,0.0,0.0,0.0,0.0,0.0,0.0,0.0,0.0,0.0,0.0,0.0,0.0,0.0,0.0,0.0,0.0,0.0,0.0,0.0,0.0,0.0,0.0,0.0,0.0,0.0,0.0,0.0,0.0,0.0,0.0,0.0,0.0,0.0,0.0,0.0,0.0,0.0,0.0,0.0,0.0,0.0,0.0,0.0,0.0,0.0,0.0,0.0,0.0,0.0,0.0,0.0,0.0,0.0,0.0,0.0,0.0,0.0,0.0,0.0,0.0,0.0,0.0,0.0,0.0,0.0,0.0,0.0,0.0,0.0,0.0,0.0,0.0,0.0,0.0,0.0,0.0,0.0,0.0,0.0,0.0,0.0,0.0,0.0,0.0,0.0,0.0,0.0,0.0,0.0,0.0,0.0,0.0,2.0352,2.2903,2.5755,2.5841,2.5841,2.5819,2.5367,2.4355,2.274,0.0,0.0,0.0,0.0,0.0,0.0,0.0,0.0,0.0,0.0,0.0,0.0,0.0,0.0,0.0,0.0,0.0,0.0,0.0,0.0,0.0,0.0,0.0,0.0,0.0,0.0,0.0,0.0,0.0,0.0,0.0,0.0,0.0,0.0,0.0,0.0,0.0,0.0,2.6497,3.1166,0.0,0.0,0.0,0.0,0.0,0.0,0.0,0.0,4.1001,0.0,0.0,0.0,0.0,0.0,0.0,0.0,0.0,0.0,0.0,0.0,0.0,0.0,0.0,0.0,0.0,0.0,0.0,0.0,0.0,0.0,0.0,0.0,0.0,0.0,0.0,0.0,0.0,0.0,0.0,0.0,0.0,0.0,0.0,0.0,0.0,0.0,0.0,0.0,0.0,0.0,0.0,0.0,0.0,0.0,0.0,0.0,0.0,0.0,0.0,0.0,0.0,0.0,0.0,0.0,0.0,2.0639,2.1154,2.2869,2.5539,2.5776,2.5776,2.5583,2.5109,2.4183,2.274,0.0,0.0,0.0,0.0,0.0,0.0,0.0,0.0,0.0,0.0,0.0,0.0,0.0,0.0,0.0,0.0,0.0,0.0,0.0,0.0,0.0,0.0,0.0,0.0,0.0,0.0,0.0,0.0,0.0,0.0,0.0,0.0,0.0,0.0,0.0,0.0,0.0,0.0,0.0,3.5805,3.8401,0.0,0.0,0.0,0.0,0.0,0.0,0.0,0.0,4.0964,0.0,0.0,0.0,0.0,0.0,0.0,0.0,0.0,0.0,0.0,0.0,0.0,0.0,0.0,0.0,0.0,0.0,0.0,0.0,0.0,0.0,0.0,0.0,0.0,0.0,0.0,0.0,0.0,0.0,0.0,0.0,0.0,0.0,0.0,0.0,0.0,0.0,0.0,0.0,0.0,0.0,0.0,0.0,0.0,0.0,0.0,0.0,0.0,0.0,0.0,0.0,0.0,0.0,0.0,0.0,1.9405,2.1817,2.3926,2.5475,2.5626,2.5583,2.5324,2.4398,2.3343,0.0,0.0,0.0,0.0,0.0,0.0,0.0,0.0,0.0,0.0,0.0,0.0,0.0,0.0,0.0,0.0,0.0,0.0,0.0,0.0,0.0,0.0,0.0,0.0,0.0,0.0,0.0,0.0,0.0,0.0,0.0,0.0,0.0,0.0,0.0,0.0,0.0,0.0,0.0,0.0,3.6012,3.7976,4.1035,0.0,0.0,0.0,0.0,0.0,0.0,4.1142,4.1356,0.0,0.0,0.0,0.0,0.0,0.0,0.0,0.0,0.0,0.0,0.0,0.0,0.0,0.0,0.0,0.0,0.0,0.0,0.0,0.0,0.0,0.0,0.0,0.0,0.0,0.0,0.0,0.0,0.0,0.0,0.0,0.0,0.0,0.0,0.0,0.0,0.0,0.0,0.0,0.0,0.0,0.0,0.0,0.0,0.0,0.0,0.0,0.0,0.0,0.0,0.0,0.0,0.0,0.0,0.0,1.7622,2.192,2.443,2.541,2.5496,2.541,2.5173,2.3989,2.2783,0.0,0.0,0.0,0.0,0.0,0.0,0.0,0.0,0.0,0.0,0.0,0.0,0.0,0.0,0.0,0.0,0.0,0.0,0.0,0.0,0.0,0.0,0.0,0.0,0.0,0.0,0.0,0.0,0.0,0.0,0.0,0.0,0.0,0.0,0.0,0.0,0.0,0.0,0.0,0.0,0.0,3.7694,4.1018,4.1542,0.0,0.0,0.0,0.0,4.007,4.1353,0.0,0.0,0.0,0.0,0.0,0.0,0.0,0.0,0.0,0.0,0.0,0.0,0.0,0.0,0.0,0.0,0.0,0.0,0.0,0.0,0.0,0.0,0.0,0.0,0.0,0.0,0.0,0.0,0.0,0.0,0.0,0.0,0.0,0.0,0.0,0.0,0.0,0.0,0.0,0.0,0.0,0.0,0.0,0.0,0.0,0.0,0.0,0.0,0.0,0.0,0.0,0.0,0.0,0.0,0.0,0.0,1.7231,2.0009,2.279,2.5152,2.541,2.541,2.5173,2.4613,2.3365,0.0,0.0,0.0,0.0,0.0,0.0,0.0,0.0,0.0,0.0,0.0,0.0,0.0,0.0,0.0,0.0,0.0,0.0,0.0,0.0,0.0,0.0,0.0,0.0,0.0,0.0,0.0,0.0,0.0,0.0,0.0,0.0,0.0,0.0,0.0,0.0,0.0,0.0,0.0,0.0,0.0,3.9947,4.1152,4.2056,4.2501,0.0,0.0,4.1611,4.1919,4.0812,0.0,0.0,0.0,0.0,0.0,0.0,0.0,0.0,0.0,0.0,0.0,0.0,0.0,0.0,0.0,0.0,0.0,0.0,0.0,0.0,0.0,0.0,0.0,0.0,0.0,0.0,0.0,0.0,0.0,0.0,0.0,0.0,0.0,0.0,0.0,0.0,0.0,0.0,0.0,0.0,0.0,0.0,0.0,0.0,0.0,0.0,0.0,0.0,0.0,0.0,0.0,0.0,0.0,0.0,0.0,1.574,1.7246,2.1321,2.4093,2.5152,2.5389,2.5346,2.498,2.3989,2.2632,0.0,0.0,0.0,0.0,0.0,0.0,0.0,0.0,0.0,0.0,0.0,0.0,0.0,0.0,0.0,0.0,0.0,0.0,0.0,0.0,0.0,0.0,0.0,0.0,0.0,0.0,0.0,0.0,0.0,0.0,0.0,0.0,0.0,0.0,0.0,0.0,0.0,0.0,0.0,0.0,0.0,0.0,4.2175,4.2844,0.0,0.0,0.0,4.233,4.2296,0.0,0.0,0.0,0.0,0.0,0.0,0.0,0.0,0.0,0.0,0.0,0.0,0.0,0.0,0.0,0.0,0.0,0.0,0.0,0.0,0.0,0.0,0.0,0.0,0.0,0.0,0.0,0.0,0.0,0.0,0.0,0.0,0.0,0.0,0.0,0.0,0.0,0.0,0.0,0.0,0.0,0.0,0.0,0.0,0.0,0.0,0.0,0.0,0.0,0.0,0.0,0.0,0.0,0.0,0.0,0.0,0.0,1.7212,2.2505,2.5173,2.5195,2.541,2.5281,2.4807,2.3644,0.0,0.0,0.0,0.0,0.0,0.0,0.0,0.0,0.0,0.0,0.0,0.0,0.0,0.0,0.0,0.0,0.0,0.0,0.0,0.0,0.0,0.0,0.0,0.0,0.0,0.0,0.0,1.9431,0.0,0.0,0.0,0.0,0.0,0.0,0.0,0.0,0.0,0.0,0.0,0.0,0.0,0.0,3.9552,4.2891,4.3495,4.3734,0.0,0.0,4.3118,4.2638,4.262,4.2005,0.0,0.0,0.0,0.0,0.0,0.0,0.0,0.0,0.0,0.0,0.0,0.0,0.0,0.0,0.0,0.0,0.0,0.0,0.0,0.0,0.0,0.0,0.0,0.0,0.0,0.0,0.0,0.0,0.0,0.0,0.0,0.0,0.0,0.0,0.0,0.0,0.0,0.0,0.0,0.0,0.0,0.0,0.0,0.0,0.0,0.0,0.0,0.0,0.0,0.0,0.0,0.0,0.0,0.0,0.0,1.7417,2.2402,2.5195,2.5195,2.541,2.5281,2.4807,2.429,2.2934,0.0,0.0,0.0,0.0,0.0,0.0,0.0,0.0,0.0,0.0,0.0,0.0,0.0,0.0,0.0,0.0,0.0,0.0,0.0,0.0,0.0,0.0,0.0,0.0,0.0,0.0,0.0,0.0,0.0,0.0,0.0,0.0,0.0,0.0,0.0,0.0,0.0,0.0,0.0,0.0,0.0,3.9454,4.2324,4.3803,4.459,0.0,4.4659,4.4145,4.346,4.4286,4.3713,4.018,0.0,0.0,0.0,0.0,0.0,0.0,0.0,0.0,0.0,0.0,0.0,0.0,0.0,0.0,0.0,0.0,0.0,0.0,0.0,0.0,0.0,0.0,0.0,0.0,0.0,0.0,0.0,0.0,0.0,0.0,0.0,0.0,0.0,0.0,0.0,0.0,0.0,0.0,0.0,0.0,0.0,0.0,0.0,0.0,0.0,0.0,0.0,0.0,0.0,0.0,0.0,0.0,0.0,1.711,1.7571,2.293,2.5539,2.541,2.5604,2.5432,2.4807,2.4355,2.3214,0.0,0.0,0.0,0.0,0.0,0.0,0.0,0.0,0.0,0.0,0.0,0.0,0.0,0.0,0.0,0.0,0.0,0.0,0.0,0.0,0.0,0.0,0.0,0.0,0.0,0.0,0.0,0.0,2.1362,2.185,2.2299,0.0,0.0,0.0,0.0,0.0,0.0,0.0,0.0,0.0,0.0,4.1571,4.3504,4.4453,0.0,0.0,4.5001,4.4796,4.4488,4.4376,4.3603,4.1247,3.9788,0.0,0.0,0.0,0.0,0.0,0.0,0.0,0.0,0.0,0.0,0.0,0.0,0.0,0.0,0.0,0.0,0.0,0.0,0.0,0.0,0.0,0.0,0.0,0.0,0.0,0.0,0.0,0.0,0.0,0.0,0.0,0.0,0.0,0.0,0.0,0.0,0.0,0.0,0.0,0.0,0.0,0.0,0.0,0.0,0.0,0.0,0.0,0.0,0.0,0.0,0.0,0.0,1.7315,1.7759,2.3051,2.5604,2.5518,2.5669,2.5496,2.4937,2.4463,2.3472,0.0,0.0,0.0,0.0,0.0,0.0,0.0,0.0,0.0,0.0,0.0,0.0,0.0,0.0,0.0,0.0,0.0,0.0,0.0,0.0,0.0,0.0,0.0,0.0,0.0,0.0,0.0,0.0,2.2051,2.2414,2.332,0.0,0.0,0.0,0.0,0.0,0.0,0.0,0.0,0.0,0.0,4.2844,4.4316,4.4762,4.4933,4.4933,4.483,4.4727,4.4625,4.4395,4.3651,4.1969,0.0,0.0,0.0,0.0,0.0,0.0,0.0,0.0,0.0,0.0,0.0,0.0,0.0,0.0,0.0,0.0,0.0,0.0,0.0,0.0,0.0,0.0,0.0,0.0,0.0,0.0,0.0,0.0,0.0,0.0,0.6468,0.0,0.0,0.0,0.0,0.0,0.0,0.0,0.0,0.0,0.0,0.0,0.0,0.0,0.0,0.0,0.0,0.0,0.0,0.0,0.0,0.0,0.0,1.74,1.7789,2.2663,2.5303,2.5496,2.5518,2.541,2.5152,2.47,2.3774,2.2331,0.0,0.0,0.0,0.0,0.0,0.0,0.0,0.0,0.0,0.0,0.0,0.0,0.0,0.0,0.0,0.0,0.0,0.0,0.0,0.0,0.0,0.0,0.0,0.0,0.0,0.0,2.2051,2.2202,2.2588,0.0,0.0,0.0,0.0,0.0,0.0,0.0,0.0,0.0,0.0,4.2022,4.2844,4.4316,4.4522,4.4556,4.4556,4.4248,4.3906,4.3563,4.4325,4.4251,0.0,0.0,0.0,0.0,0.0,0.0,0.0,0.0,0.0,0.0,0.0,0.0,0.0,0.0,0.0,0.0,0.0,0.0,0.0,0.0,0.0,0.0,0.0,0.0,0.0,0.0,0.0,0.7137,0.6949,0.0,0.0,0.0,0.0,0.0,0.0,0.0,0.0,0.0,0.0,0.0,1.0873,1.1112,0.0,0.0,0.0,0.0,0.0,0.0,0.0,0.0,0.0,0.0,0.0,0.0,1.7983,1.9943,2.3488,2.5367,2.5303,2.5583,2.5496,2.4937,2.4635,2.3644,2.1922,0.0,0.0,0.0,0.0,0.0,0.0,0.0,0.0,0.0,0.0,0.0,0.0,0.0,0.0,0.0,0.0,0.0,0.0,0.0,0.0,0.0,0.0,0.0,0.0,0.0,2.2848,0.0,0.0,0.0,0.0,0.0,0.0,0.0,0.0,0.0,0.0,0.0,4.0226,4.1611,4.2707,4.3597,4.4111,4.4385,4.4625,0.0,0.0,0.0,0.0,0.0,0.0,0.0,0.0,0.0,0.0,0.0,0.0,0.0,0.0,4.6508,4.4522,4.3152,4.2399,4.2775,0.0,0.0,0.0,0.0,0.0,0.0,0.0,0.0,0.0,0.0,0.0,0.0,0.0,0.0,0.7505,0.0,0.7309,0.0,0.0,0.0,0.0,0.0,0.0,0.0,0.0,1.1154,1.159,1.1493,1.1754,1.1721,0.0,1.1297,1.1014,0.0,0.0,0.0,0.0,0.0,0.0,0.0,0.0,1.8521,2.0865,2.3947,2.5367,2.5324,2.5604,2.5518,2.5066,2.4678,2.3752,2.2288,2.1771,2.1082,0.0,0.0,0.0,0.0,0.0,0.0,0.0,0.0,0.0,0.0,0.0,0.0,0.0,0.0,0.0,0.0,0.0,0.0,0.0,0.0,0.0,0.0,0.0,2.3325,0.0,0.0,0.0,0.0,0.0,0.0,0.0,0.0,0.0,3.8562,4.0764,4.2364,4.2467,4.346,4.4179,4.4179,0.0,0.0,0.0,0.0,0.0,0.0,0.0,4.4147,4.394,4.4298,4.4841,4.5481,4.7228,4.8323,4.7844,0.0,0.0,4.6645,4.5576,4.498,4.4899,4.541,4.5823,4.5958,4.6845,4.7988,0.0,0.0,0.0,0.0,0.0,0.0,0.0,0.0,0.7823,0.7774,0.0,0.7676,0.0,0.0,0.0,0.0,0.0,0.9928,0.0,0.0,1.196,1.2286,1.2178,1.2297,1.2352,1.2341,1.221,1.1971,1.1601,1.0997,0.0,0.0,0.0,0.0,0.0,0.0,1.8663,2.1083,2.3822,2.5281,2.5496,2.5518,2.5518,2.5475,2.4829,2.414,2.3451,2.2955,2.2266,2.1362,2.0867,0.0,0.0,0.0,0.0,0.0,0.0,0.0,0.0,0.0,0.0,0.0,0.0,0.0,0.0,0.0,0.0,0.0,0.0,0.0,0.0,2.2654,0.0,0.0,0.0,0.0,0.0,0.0,0.0,0.0,0.0,0.0,4.2296,4.2981,4.3563,4.394,0.0,0.0,0.0,0.0,4.4556,4.459,4.4556,4.4556,4.459,4.4864,4.5104,4.5138,0.0,0.0,4.6782,4.7775,4.8563,4.8746,5.0643,5.1797,4.9965,4.9655,4.9078,4.8277,4.9013,4.9404,4.8502,5.0236,5.2221,0.7995,0.0,0.0,0.0,0.0,0.7946,0.8109,0.837,0.8305,0.8232,0.8134,0.8003,0.0,0.0,0.0,0.0,0.0,0.0,1.1009,1.1634,1.2123,1.2341,1.2308,1.2504,1.2515,1.2352,1.2232,1.2069,1.1873,1.2979,1.2441,1.0471,0.0,0.0,0.0,0.0,2.0928,2.3383,2.464,2.5216,2.5281,2.5432,2.5432,2.5281,2.4915,2.4463,2.3924,2.3601,2.3085,2.2309,2.1986,0.0,0.0,0.0,0.0,0.0,0.0,0.0,0.0,0.0,0.0,0.0,0.0,0.0,0.0,0.0,0.0,0.0,0.0,0.0,2.3479,2.4418,2.5618,0.0,0.0,0.0,0.0,0.0,0.0,0.0,0.0,0.0,4.3803,4.4077,4.4145,0.0,0.0,4.4419,4.4179,4.459,4.5036,4.531,4.5344,0.0,4.5344,4.5207,4.531,4.5823,4.6988,4.7878,4.7981,4.894,5.0034,5.0855,5.1833,5.2852,5.3621,5.2982,5.2338,5.1991,5.1987,5.2374,5.2676,5.3208,5.4125,0.8468,0.8215,0.8109,0.815,0.8272,0.8281,0.8419,0.8648,0.8566,0.8509,0.8485,0.8346,0.8158,0.7954,0.7864,0.0,0.0,0.0,1.105,1.1906,1.2254,1.2449,1.2504,1.2732,1.2754,1.2569,1.2493,1.2395,1.2275,1.4152,1.4276,1.2588,0.0,0.0,1.8361,1.9971,2.2101,2.457,2.498,2.5216,2.5303,2.5453,2.5453,2.5303,2.5087,2.4829,2.4549,2.429,2.3881,2.3278,2.302,2.2352,0.0,0.0,0.0,0.0,0.0,0.0,0.0,0.0,0.0,0.0,0.0,2.1448,2.1211,0.0,0.0,0.0,2.4224,2.5372,2.6414,2.7764,0.0,0.0,0.0,0.0,0.0,0.0,0.0,4.1275,4.3214,4.4419,4.4727,4.5001,4.5001,4.4522,4.4762,4.4899,4.4693,0.0,4.5686,4.6063,4.6234,4.6337,4.6337,4.6269,4.6337,4.6611,4.7262,4.841,4.9506,5.0137,5.1251,5.2854,5.391,5.493,5.6052,5.6037,5.5492,5.3897,5.4359,5.5385,5.5314,5.5483,5.6295,0.8893,0.8869,0.8624,0.8566,0.8624,0.8632,0.8681,0.8746,0.8656,0.8664,0.8738,0.8648,0.8468,0.824,0.815,0.0,0.9788,1.0262,1.0881,1.2025,1.2373,1.2602,1.2732,1.296,1.3015,1.2895,1.2895,1.3018,1.3082,1.4969,1.5723,1.5946,1.7539,1.9339,2.0904,2.1316,2.2667,2.4829,2.5087,2.5303,2.5518,2.5518,2.5518,2.5518,2.5303,2.5173,2.513,2.4915,2.457,2.414,2.3881,2.3235,2.2116,0.0,0.0,0.0,0.0,0.0,0.0,0.0,0.0,0.0,0.0,0.0,0.0,0.0,0.0,2.5278,2.7724,0.0,3.0439,3.2205,0.0,0.0,0.0,3.7448,3.9596,4.0623,4.216,4.4357,0.0,0.0,4.5207,4.5789,4.596,4.5275,4.5481,4.5721,4.5721,4.6029,4.644,4.6748,4.7193,4.7467,4.7433,4.7604,4.7673,4.7822,4.7301,4.8175,5.0543,5.1331,5.2265,5.4579,5.6271,5.7415,5.7588,5.8856,5.8605,5.4679,5.6373,5.8089,5.6649,5.7268,5.8376,0.9081,0.9073,0.9007,0.8918,0.8811,0.8811,0.886,0.8926,0.8771,0.8754,0.8828,0.8673,0.8607,0.8607,0.8947,0.9401,0.977,1.0572,1.1288,1.1704,1.2256,1.2645,1.2852,1.3004,1.3058,1.3026,1.2928,1.3615,1.5257,1.7113,1.8986,2.0682,2.2612,2.2883,2.1549,2.3014,2.4345,2.5087,2.5324,2.5453,2.5518,2.5518,2.5518,2.5518,2.5303,2.5087,2.4893,2.4678,2.442,2.4118,2.3881,2.3451,2.2826,2.1943,0.0,0.0,0.0,0.0,0.0,0.0,0.0,0.0,0.0,2.3731,2.2783,0.0,2.5539,0.0,2.9909,3.1933,3.2449,3.412,0.0,0.0,3.89,4.0388,4.2324,4.3457,4.4363,4.5344,4.5789,4.596,4.5787,4.596,4.6303,4.6129,4.6131,4.6097,4.6132,4.668,4.7125,4.7262,4.7775,4.8221,4.8186,4.8049,4.8306,4.9478,4.9583,5.0251,5.2189,5.2998,5.4086,5.5804,5.6714,5.776,5.9148,5.9779,5.9738,5.8605,5.9113,5.945,5.8418,5.8706,5.916,0.9301,0.9261,0.9261,0.9203,0.9097,0.8983,0.8958,0.8991,0.886,0.8844,0.8926,0.8787,0.8746,0.8795,0.916,0.9587,1.0064,1.0708,1.1232,1.1979,1.2342,1.2743,1.2971,1.3091,1.3145,1.3145,1.3134,1.3666,1.4744,1.7709,1.9891,2.1075,2.4082,2.5023,2.3565,2.4557,2.5087,2.5324,2.5453,2.5518,2.5518,2.5518,2.5475,2.5367,2.5238,2.5066,2.4807,2.4678,2.4463,2.414,2.4075,2.3903,2.3537,2.2912,2.2503,0.0,0.0,0.0,0.0,0.0,0.0,0.0,0.0,0.0,0.0,0.0,2.7809,3.0562,3.3935,3.6152,3.6758,3.8508,4.0106,4.1118,4.2319,4.3421,4.4497,4.5379,4.6132,4.6166,4.6645,4.6782,4.6269,4.6645,4.6885,4.6993,4.7129,4.7125,4.6885,4.7399,4.7912,4.8118,4.846,4.8734,4.8734,4.8118,4.8381,4.9973,5.0143,5.0908,5.3728,5.4646,5.5703,5.7571,5.8313,5.8978,6.0026,6.032,6.032,6.0021,6.0315,6.0361,5.999,6.0156,6.0195,0.9538,0.9457,0.9448,0.944,0.9424,0.9171,0.9056,0.9032,0.8934,0.8926,0.8983,0.8918,0.8893,0.8893,0.8901,0.9464,1.0231,1.0606,1.1332,1.2406,1.2623,1.2863,1.3091,1.3211,1.3265,1.3265,1.3374,1.3559,1.4053,1.7938,1.9971,2.0747,2.4227,2.5949,2.5906,2.5518,2.5389,2.5518,2.5539,2.5539,2.5518,2.5561,2.5432,2.5195,2.5152,2.5023,2.4764,2.4786,2.4613,2.4247,2.4463,2.4506,2.4312,2.4054,2.4011,0.0,2.386,0.0,0.0,0.0,0.0,0.0,0.0,0.0,0.0,2.8183,3.1234,3.4993,3.8275,4.0523,4.1557,4.3366,4.4748,4.4549,4.5613,4.6337,4.6097,4.6851,4.733,4.7022,4.7536,4.7639,4.6812,4.7536,4.7878,4.7783,4.8264,4.8221,4.7775,4.8152,4.8632,4.9008,4.9111,4.9111,4.894,4.8436,4.8771,5.0395,5.0908,5.1725,5.5662,5.6562,5.7298,5.9322,5.982,6.0237,6.0692,6.0816,6.0686,6.0342,6.0843,6.1355,6.1153,6.1236,6.1313,0.9824,0.9734,0.9661,0.9628,0.9612,0.9416,0.9293,0.922,0.9056,0.895,0.8901,0.8958,0.8983,0.8991,0.9432,0.9888,1.0158,1.124,1.1747,1.2056,1.2588,1.2982,1.3211,1.333,1.3385,1.3385,1.3417,1.5202,1.8534,1.9473,2.1714,2.5029,2.5956,2.6358,2.6164,0.0,0.0,0.0,2.5712,2.5712,2.5539,2.5712,2.5604,2.5195,2.498,0.0,2.4549,2.47,2.4764,2.47,2.5087,0.0,0.0,0.0,0.0,0.0,0.0,0.0,0.0,0.0,0.0,0.0,2.7047,2.7487,2.8906,3.356,3.6857,3.7652,4.0599,4.2948,4.4207,4.4759,4.5656,4.7008,4.7357,4.7707,4.7912,4.7878,4.7912,4.8152,4.8049,4.7664,4.7528,4.7869,4.8539,4.9047,4.9032,4.8871,4.8769,4.8871,4.8974,4.9077,4.9317,4.9351,4.955,5.0109,5.0831,5.1991,5.3843,5.5376,5.7514,5.8335,5.8911,5.9906,6.0278,6.0692,6.1148,6.152,6.1644,6.114,6.1893,6.2483,6.2331,6.1866,6.1355,0.9963,0.0,0.9832,0.9791,0.0,0.9604,0.9489,0.9399,0.9261,0.9179,0.9138,0.9138,0.9163,0.9203,0.9785,1.0221,1.0514,1.1447,1.2139,1.241,1.2781,1.3156,1.333,1.3395,1.345,1.3515,1.4551,1.6171,1.8365,2.0711,2.2989,2.4952,2.5966,2.653,2.6401,2.6293,2.6121,2.5884,2.5992,2.5992,2.5884,2.5992,2.5819,2.5367,2.5324,0.0,0.0,0.0,0.0,0.0,0.0,0.0,0.0,0.0,0.0,2.6724,2.7068,2.7176,2.6961,2.7585,2.808,2.8339,3.0288,3.1415,3.1819,3.5404,3.8955,4.1179,4.2736,4.445,4.647,4.628,4.6458,4.781,4.7604,4.7639,4.8323,4.8323,4.8358,4.8666,4.8597,4.8495,4.8495,4.8803,4.9262,4.9953,4.9965,4.9865,4.983,4.9556,4.9317,4.9317,4.9454,4.9675,4.9804,5.0932,5.31,5.5359,5.6294,5.705,5.8747,5.9326,5.9781,6.0237,6.0692,6.1148,6.1603,6.2058,6.2307,6.2441,6.2815,6.3064,6.2783,6.2316,6.2017,1.0061,0.9996,0.9979,0.993,0.9857,0.9751,0.9653,0.9563,0.0,0.0,0.0,0.935,0.9359,0.9399,0.995,1.056,1.1035,1.1843,1.2547,1.296,1.3167,1.333,1.345,1.3471,1.3537,1.3635,1.5524,1.6761,1.7573,2.1328,2.34,2.4225,2.591,2.6638,2.6638,2.6465,2.6379,2.6422,2.6379,2.6315,2.625,2.6315,2.6121,2.5604,2.5798,2.5733,2.5324,2.5604,2.5776,2.5776,2.6078,2.6508,2.7111,2.7628,2.8167,2.8727,2.9071,2.9157,2.892,2.9329,2.9726,2.971,3.3171,3.4871,3.4134,3.6911,4.0241,4.4079,4.4505,4.5679,4.8073,4.7502,4.7228,4.8049,4.7502,4.7536,4.8495,4.8632,4.8734,4.9077,4.9077,4.9145,4.9503,4.9522,5.0019,5.0671,5.0794,5.0721,5.0652,5.0173,5.0053,5.0498,5.0533,5.0324,5.0058,5.2091,5.5212,5.9263,5.8686,5.8192,5.9281,5.9988,6.0402,6.0858,6.123,6.1603,6.2058,6.2514,6.3023,6.3325,6.3355,6.3218,6.2804,6.2762,6.2762,1.0192,1.0175,1.0094,1.0053,1.0028,0.9865,0.9742,0.9653,0.9563,0.9481,0.9408,0.9481,0.9473,0.9416,1.0149,1.0826,1.1254,1.2064,1.2574,1.32,1.333,1.3461,1.358,1.3689,1.3743,1.3765,1.4192,1.6234,1.9454,2.0496,2.2572,2.6118,2.6713,2.6896,2.6896,2.6875,2.6961,2.7133,2.6939,2.6638,2.625,2.6638,2.653,2.5862,2.6056,2.6056,2.5798,2.6401,2.6745,2.6767,2.737,2.7757,2.7887,2.8511,2.892,2.905,2.9631,2.9868,2.9652,3.0062,3.0901,3.2272,3.4306,3.5304,3.5195,3.9835,4.3206,4.3978,4.5662,4.711,4.7912,4.757,4.7707,4.8666,4.8495,4.8563,4.9317,4.918,4.9145,4.9488,4.9248,4.913,4.9607,5.0036,5.0535,5.1331,5.1278,5.0755,5.0824,5.0652,5.1227,5.2539,5.2763,5.204,5.1074,5.442,5.8406,6.1907,6.1189,6.0473,6.0686,6.0982,6.1272,6.1727,6.1893,6.2141,6.2514,6.2969,6.3093,6.3147,6.3135,6.3259,6.2845,6.3011,6.33,1.0216,1.0216,1.0175,1.0126,1.0069,0.9947,0.984,0.9751,0.971,0.9644,0.9555,0.9546,0.9579,0.9628,1.0262,1.0946,1.1454,1.2225,1.2719,1.3352,1.3537,1.3645,1.3711,1.3819,1.3885,1.4089,1.644,1.8477,2.0434,2.2943,2.4983,2.6756,2.7068,2.7133,2.7155,2.7262,2.737,2.7478,2.7262,2.709,2.7004,2.7219,2.7111,2.6659,2.6875,2.6896,2.6659,2.709,2.7391,2.7521,2.7951,2.8382,2.877,2.9329,2.9696,2.9846,3.0277,3.0406,3.0169,3.0492,3.132,3.3035,3.4848,3.6622,3.8271,4.1148,4.3547,4.5033,4.5976,4.6964,4.8152,4.7912,4.8049,4.8974,4.8906,4.9111,4.9762,4.9796,4.983,5.0139,5.007,4.9846,5.0119,5.0392,5.1085,5.1852,5.1464,5.1371,5.1577,5.2358,5.2954,5.3462,5.4246,5.4358,5.3655,5.6295,5.9833,6.2372,6.2158,6.1603,6.1437,6.152,6.181,6.2017,6.239,6.2804,6.3052,6.3632,6.3714,6.3259,6.3425,6.3507,6.3259,6.359,6.3963,1.0216,1.0216,1.0216,1.0167,1.0077,1.0012,0.993,0.9849,0.9849,0.9808,0.9734,0.9644,0.9693,0.9832,1.0198,1.0879,1.1663,1.2196,1.2885,1.3558,1.3732,1.3841,1.3874,1.3961,1.3993,1.4428,1.7648,1.9708,2.0824,2.4194,2.6244,2.6926,2.7284,2.737,2.737,2.7564,2.7671,2.7714,2.7542,2.7521,2.765,2.7693,2.7628,2.7413,2.7607,2.765,2.7478,2.7693,2.793,2.8167,2.8404,2.8813,2.9459,2.9954,3.032,3.0557,3.0794,3.0858,3.0686,3.0815,3.1819,3.4083,3.5474,3.7981,4.1537,4.2508,4.3924,4.5889,4.634,4.702,4.8107,4.8221,4.8323,4.8974,4.9145,4.9454,5.007,5.0241,5.0413,5.0687,5.0721,5.0721,5.063,5.1098,5.1371,5.1876,5.2014,5.1988,5.253,5.3911,5.4746,5.4759,5.5877,5.7129,5.7695,5.9001,6.0713,6.2623,6.2316,6.21,6.1976,6.2141,6.239,6.2597,6.3052,6.3425,6.359,6.4046,6.417,6.3673,6.3797,6.4004,6.4004,6.4501,6.4791,1.0216,1.0216,1.0216,1.0167,1.0085,1.0069,1.002,0.9947,0.9938,0.9938,0.9914,0.9832,0.9849,0.9938,1.0004,1.0713,1.1882,1.1987,1.2726,1.3885,1.3928,1.4004,1.4091,1.4113,1.4124,1.4124,1.4781,1.7311,2.0578,2.1414,2.3538,2.7165,2.7607,2.7628,2.7628,2.765,2.7757,2.7973,2.7951,2.7844,2.7671,2.7865,2.7865,2.7628,2.7865,2.7973,2.7951,2.8167,2.8404,2.864,2.8877,2.9222,2.9717,3.0191,3.0557,3.0794,3.1031,3.116,3.1138,3.116,3.249,3.573,3.6192,3.8923,4.4386,4.5186,4.5789,4.7115,4.7944,4.8209,4.846,4.8495,4.87,4.9111,4.9454,4.9728,5.0173,5.0481,5.0687,5.0721,5.0824,5.0858,5.0937,5.1303,5.1611,5.2262,5.2091,5.2289,5.2833,5.5171,5.6892,5.7192,5.8499,6.0277,6.1297,6.2077,6.2378,6.2597,6.2638,6.2804,6.3093,6.3259,6.3383,6.3839,6.3963,6.4128,6.417,6.4128,6.4211,6.417,6.4211,6.4294,6.4998,6.5619,6.5619,1.0216,1.0216,1.0216,1.02,1.0167,1.0159,1.011,1.0028,1.0028,1.0053,1.0102,1.0069,1.0045,1.0028,1.0069,1.058,1.1579,1.1839,1.2551,1.3527,1.3808,1.4124,1.4243,1.432,1.4352,1.4575,1.5676,1.7964,2.0986,2.3649,2.5943,2.7461,2.7779,2.7865,2.7887,2.7994,2.8188,2.8425,2.8425,2.8447,2.8468,2.8317,2.8167,2.8102,2.8296,2.8425,2.8447,2.8662,2.8834,2.8942,2.9286,2.9631,2.9975,3.0428,3.0794,3.1052,3.1268,3.1397,3.1397,3.1547,3.3179,3.6672,3.7555,4.0393,4.5875,4.6913,4.7848,4.9307,4.9403,4.9145,4.918,4.9351,4.9556,4.9796,5.0241,5.0687,5.0824,5.1166,5.1371,5.1406,5.1406,5.144,5.1577,5.1611,5.2056,5.2776,5.2604,5.2599,5.4047,5.6531,5.814,5.9345,6.1035,6.2332,6.2667,6.2667,6.2873,6.3466,6.3756,6.4004,6.4418,6.4832,6.5081,6.5246,6.5246,6.5412,6.5743,6.537,6.5205,6.5039,6.4874,6.4998,6.537,6.624,6.6571,1.0216,1.0216,1.0216,1.0232,1.0257,1.0257,1.0232,1.02,1.0192,1.0232,1.0289,1.0289,1.0257,1.02,1.0192,1.0708,1.1492,1.197,1.2669,1.3414,1.399,1.432,1.4385,1.4494,1.4548,1.4774,1.6103,1.842,2.1448,2.5798,2.7844,2.7865,2.8016,2.8145,2.821,2.8382,2.8576,2.8791,2.8813,2.8899,2.8985,2.8727,2.8554,2.8576,2.8727,2.8813,2.8813,2.8985,2.9136,2.9265,2.9588,2.9932,3.032,3.0729,3.1074,3.1354,3.1483,3.1569,3.1634,3.1806,3.3278,3.6178,3.7996,4.1156,4.538,4.7852,4.9422,5.1039,5.0687,5.0207,4.9967,5.0173,5.031,5.0378,5.0995,5.144,5.1474,5.1782,5.2056,5.2159,5.2056,5.2056,5.2159,5.2228,5.257,5.3255,5.2981,5.3413,5.5573,5.7437,5.9093,6.0639,6.272,6.3574,6.3342,6.2981,6.3616,6.4335,6.4708,6.5039,6.5536,6.595,6.6405,6.6281,6.6488,6.6695,6.6902,6.6737,6.6447,6.6116,6.595,6.5909,6.6157,6.7068,6.7689,1.0216,1.0224,1.0216,1.0273,1.0347,1.0347,1.0396,1.0445,1.0453,1.0469,1.0469,1.0469,1.0477,1.0469,1.0461,1.1173,1.2139,1.2444,1.3157,1.4087,1.4515,1.4581,1.4504,1.4613,1.4668,1.4668,1.4895,1.7278,2.1555,2.6018,2.8339,2.8339,2.8339,2.8447,2.8619,2.8683,2.8813,2.9028,2.905,2.9071,2.9093,2.9071,2.905,2.9071,2.905,2.9071,2.9093,2.9093,2.9286,2.9717,2.9803,3.0126,3.0751,3.1052,3.1397,3.1784,3.1677,3.1677,3.187,3.1935,3.2884,3.4986,3.7831,4.0992,4.4781,4.7642,4.9922,5.1782,5.1645,5.1337,5.0789,5.0721,5.0721,5.0755,5.1371,5.1782,5.1851,5.2193,5.257,5.2776,5.2604,5.2604,5.2913,5.2947,5.3152,5.3461,5.3289,5.383,5.5968,5.766,5.9361,6.1153,6.3005,6.4211,6.4501,6.4193,6.4173,6.5205,6.5848,6.6285,6.6346,6.6447,6.6944,6.7399,6.773,6.7979,6.8061,6.7979,6.7689,6.7358,6.6599,6.6558,6.7026,6.8061,6.8641,1.0396,1.0387,1.0387,1.0412,1.0436,1.0436,1.0461,1.0485,1.0485,1.0518,1.0567,1.0567,1.06,1.0657,1.0657,1.1082,1.1726,1.2195,1.2955,1.3756,1.4301,1.4624,1.4733,1.4776,1.4787,1.4787,1.4787,1.7168,2.1636,2.6176,2.8576,2.8576,2.8576,2.8705,2.8899,2.8942,2.905,2.9265,2.9308,2.9373,2.9502,2.9523,2.9588,2.9717,2.9459,2.9437,2.9739,2.976,2.9911,3.0212,3.0514,3.0794,3.1074,3.144,3.1784,3.2086,3.2064,3.2107,3.2323,3.2344,3.3016,3.5027,3.7873,4.0976,4.4401,4.7537,5.0055,5.1517,5.1851,5.168,5.1543,5.144,5.1337,5.1235,5.1748,5.233,5.2536,5.2741,5.2947,5.3221,5.305,5.3118,5.3632,5.3461,5.3461,5.4351,5.4111,5.4799,5.6471,5.844,6.0319,6.2022,6.4022,6.5536,6.5991,6.5183,6.5101,6.6074,6.6845,6.726,6.7593,6.7937,6.8475,6.8475,6.8807,6.9055,6.9055,6.8797,6.8393,6.8061,6.7576,6.7576,6.7896,6.8765,6.9345,1.0485,1.0485,1.0485,1.0502,1.0526,1.0534,1.0567,1.0608,1.0583,1.0624,1.069,1.0673,1.0698,1.0747,1.0755,1.1167,1.1559,1.2279,1.3044,1.3829,1.4397,1.4744,1.4841,1.4896,1.4918,1.5138,1.5786,1.794,2.1798,2.5731,2.7935,2.8813,2.8834,2.8985,2.9243,2.9243,2.9329,2.9566,2.9566,2.9609,2.976,2.9846,2.9997,3.0169,2.9932,2.9911,3.0234,3.0255,3.0406,3.0708,3.1031,3.1311,3.1547,3.1763,3.2043,3.2323,3.2366,3.2473,3.2689,3.2796,3.323,3.4468,3.8037,4.1362,4.387,4.7431,4.9956,5.1551,5.1851,5.1851,5.1851,5.1851,5.1782,5.1748,5.2228,5.2776,5.3118,5.3187,5.3289,5.3495,5.3598,5.3872,5.4283,5.3906,5.4111,5.5002,5.4694,5.5461,5.7874,5.9421,6.1476,6.3592,6.5149,6.653,6.6586,6.5982,6.5926,6.6778,6.7551,6.8091,6.859,6.9055,6.951,6.9552,6.9717,6.9966,6.98,6.9504,6.9088,6.8517,6.8434,6.8434,6.8807,6.9345,6.98,1.0502,1.0502,1.0494,1.0551,1.0616,1.0616,1.0714,1.082,1.0771,1.0771,1.082,1.0779,1.0739,1.0755,1.0755,1.1193,1.1674,1.2494,1.3221,1.4322,1.4841,1.4928,1.4885,1.4972,1.5015,1.5015,1.7217,1.9648,2.2091,2.4658,2.6833,2.8628,2.9071,2.9286,2.9739,2.9545,2.9652,2.9911,2.9825,2.976,2.9782,2.9954,3.0169,3.0406,3.0406,3.0428,3.0471,3.0492,3.0708,3.1138,3.1224,3.1547,3.2107,3.2086,3.215,3.2581,3.2624,3.271,3.2969,3.3119,3.3055,3.3904,3.7804,4.0778,4.27,4.6773,5.0188,5.1387,5.1851,5.1851,5.1851,5.1851,5.1988,5.2365,5.2707,5.3084,5.3461,5.3563,5.3598,5.3735,5.4111,5.4454,5.4351,5.4351,5.4625,5.4899,5.5139,5.6193,5.9051,6.0333,6.2731,6.5098,6.6311,6.7026,6.7081,6.6814,6.6928,6.7205,6.7896,6.859,6.8641,6.9221,6.9593,6.9759,7.0214,7.0421,7.0297,7.0044,6.9628,6.9337,6.9296,6.9254,6.9221,6.9593,7.0049,1.0673,1.0673,1.0673,1.0681,1.0714,1.0714,1.0747,1.0796,1.0763,1.0771,1.0788,1.0763,1.0755,1.0755,1.0755,1.1235,1.1754,1.2105,1.2834,1.3974,1.459,1.4939,1.4983,1.5015,1.5037,1.5515,1.7638,1.985,2.2172,2.4352,2.6807,2.8862,2.9329,2.948,2.976,2.9696,2.976,2.9846,2.9803,2.976,2.976,2.9846,2.9997,3.0234,3.0406,3.0557,3.0729,3.0729,3.1052,3.1634,3.1698,3.2021,3.256,3.2517,3.2689,3.3184,3.284,3.2883,3.3313,3.3076,3.2926,3.3654,3.6991,3.9509,4.1341,4.565,4.9285,5.0455,5.1387,5.1851,5.1851,5.1851,5.2022,5.2399,5.2776,5.3289,5.3872,5.418,5.4454,5.4625,5.4488,5.4694,5.5276,5.5276,5.5036,5.5652,5.5926,5.6925,5.7671,6.0237,6.1699,6.3236,6.495,6.744,6.7535,6.7824,6.7906,6.8144,6.8714,6.8964,6.9014,6.9345,6.9717,7.009,7.0545,7.067,7.0545,7.0542,7.0127,6.9961,6.9919,6.9836,6.9469,6.9842,7.0504,1.0853,1.0853,1.082,1.0804,1.0796,1.0771,1.0796,1.0837,1.0779,1.0812,1.0877,1.0828,1.082,1.0845,1.0853,1.1112,1.1633,1.1948,1.2452,1.3608,1.4171,1.4729,1.5037,1.5092,1.5081,1.5293,1.679,1.9324,2.235,2.3884,2.6196,2.9307,2.9739,2.9803,3.0019,3.004,3.004,3.0019,2.9954,2.9932,3.0019,3.004,3.0148,3.0406,3.0622,3.0901,3.1203,3.116,3.1354,3.1849,3.2064,3.243,3.2904,3.284,3.299,3.3313,3.327,3.3206,3.3572,3.3378,3.3141,3.3941,3.6713,3.9447,4.1505,4.5533,4.8548,5.0455,5.1387,5.1851,5.1851,5.2022,5.2193,5.2399,5.2776,5.3392,5.4146,5.4659,5.4933,5.507,5.4968,5.5241,5.5481,5.5652,5.5413,5.62,5.6509,5.7048,5.7809,6.0371,6.1739,6.3412,6.611,6.7668,6.8268,6.8517,6.8807,6.9171,6.9578,6.9421,6.9587,6.9717,7.009,7.038,7.0794,7.0628,7.0463,7.0954,7.0704,7.0745,7.0501,7.0667,7.075,7.0918,7.1124,1.1024,1.1016,1.0935,1.0894,1.0886,1.0812,1.0869,1.0975,1.0853,1.091,1.1057,1.0959,1.0935,1.1008,1.0992,1.1008,1.1049,1.1567,1.2312,1.3034,1.3799,1.4326,1.5048,1.5168,1.5157,1.507,1.5638,1.8261,2.261,2.3189,2.5369,2.9858,3.0212,3.0234,3.0385,3.0471,3.0428,3.0385,3.0234,3.0255,3.0428,3.0449,3.0557,3.0794,3.1031,3.1332,3.1655,3.1634,3.1698,3.1957,3.2344,3.2667,3.2947,3.299,3.3076,3.3399,3.3572,3.3615,3.3722,3.3765,3.3765,3.3849,3.6618,3.9914,4.205,4.5204,4.8644,5.0755,5.1653,5.1851,5.1919,5.2159,5.2399,5.2536,5.2913,5.3563,5.4522,5.4968,5.5173,5.5344,5.555,5.5755,5.5618,5.5755,5.6063,5.6474,5.6851,5.7752,5.8948,6.0921,6.3406,6.5333,6.6673,6.8161,6.8724,6.8284,6.8814,6.9711,7.012,7.0203,7.0044,7.0131,7.0504,7.0752,7.0835,7.0628,7.0628,7.1204,7.1121,7.0667,7.0958,7.1704,7.1747,7.1372,7.0741,1.1024,1.1024,1.1,1.0992,1.0984,1.0959,1.0975,1.1016,1.0975,1.0992,1.1049,1.1016,1.1008,1.1024,1.1033,1.1057,1.1122,1.1387,1.2125,1.312,1.3382,1.4103,1.4847,1.5244,1.5233,1.5326,1.6886,1.9754,2.2692,2.4267,2.6923,3.0239,3.0449,3.0406,3.0471,3.0492,3.0471,3.0471,3.0449,3.0428,3.0492,3.0514,3.06,3.0837,3.1095,3.1354,3.1655,3.1935,3.2086,3.2172,3.243,3.2796,3.3141,3.3098,3.3249,3.3722,3.3722,3.3765,3.3873,3.383,3.3744,3.3914,3.5979,3.8025,4.0187,4.378,4.703,4.9138,5.0856,5.1885,5.1919,5.2193,5.2604,5.3187,5.3358,5.3735,5.4454,5.4762,5.5036,5.555,5.5755,5.6029,5.6372,5.6543,5.6748,5.7125,5.7433,5.7897,5.9225,6.1508,6.4017,6.4663,6.598,6.8006,6.8814,6.833,6.886,6.9883,7.0376,7.0542,7.0667,7.0628,7.0959,7.1249,7.1042,7.0877,7.1125,7.1581,7.1042,7.0794,7.1042,7.1705,7.0998,7.0619,6.9558,1.1196,1.1188,1.1114,1.1082,1.1073,1.1041,1.1049,1.1073,1.1041,1.1073,1.1114,1.1098,1.1106,1.1131,1.1139,1.1163,1.1212,1.1253,1.1746,1.2681,1.3402,1.4103,1.4857,1.5276,1.5287,1.5157,1.6769,1.9392,2.2353,2.4424,2.6882,2.9901,3.0643,3.0643,3.0665,3.0751,3.0729,3.0686,3.0729,3.0815,3.0923,3.0923,3.1074,3.1268,3.144,3.1612,3.187,3.2215,3.2409,3.2452,3.2646,3.2926,3.327,3.3292,3.355,3.411,3.3959,3.3938,3.4089,3.3959,3.383,3.4044,3.5356,3.7744,4.0396,4.3606,4.6616,4.9492,5.1123,5.1892,5.2125,5.2296,5.2844,5.3598,5.3803,5.4043,5.4625,5.5002,5.5413,5.5892,5.6337,5.6646,5.7159,5.7194,5.7399,5.7639,5.7844,5.8396,5.9578,6.2239,6.4224,6.5051,6.6416,6.874,6.9593,6.9391,6.9189,7.0214,7.0463,7.0875,7.1082,7.1001,7.1166,7.1291,7.1208,7.1249,7.1622,7.1829,7.1746,7.158,7.1622,7.1162,7.053,6.9344,6.8225,1.1433,1.1416,1.1261,1.1196,1.118,1.1106,1.1122,1.1155,1.1122,1.1171,1.1261,1.122,1.1237,1.1302,1.1261,1.1278,1.1286,1.1359,1.1839,1.2764,1.346,1.4399,1.5135,1.5298,1.5331,1.5513,1.5701,1.8814,2.2291,2.3439,2.6133,2.9641,3.088,3.088,3.0923,3.1095,3.1095,3.1031,3.1181,3.1332,3.1461,3.1504,3.1612,3.1827,3.1935,3.2064,3.228,3.2517,3.2646,3.2646,3.2861,3.3076,3.3335,3.3572,3.3938,3.4282,3.4261,3.4218,3.4304,3.4175,3.4045,3.4239,3.5582,3.7963,4.0854,4.4107,4.7405,5.0022,5.1695,5.2301,5.2604,5.2604,5.3118,5.394,5.4214,5.442,5.4762,5.5413,5.5995,5.644,5.7091,5.7468,5.757,5.7605,5.7742,5.805,5.8221,5.8707,5.9931,6.2278,6.4123,6.5493,6.7307,6.9763,7.0131,7.0214,7.0297,7.0463,7.067,7.0835,7.1084,7.1208,7.1249,7.1332,7.1539,7.1787,7.2119,7.2243,7.216,7.1908,7.1532,7.0642,6.9783,6.8062,6.688,1.149,1.1425,1.1465,1.1433,1.1376,1.1343,1.131,1.1269,1.1318,1.1343,1.1384,1.1367,1.1367,1.1384,1.1318,1.1286,1.1302,1.1384,1.1916,1.3177,1.3882,1.4596,1.5082,1.5385,1.5374,1.5863,1.7643,2.0091,2.2671,2.4824,2.7775,3.0364,3.1117,3.1138,3.1181,3.1354,3.1461,3.144,3.1634,3.1763,3.1806,3.1849,3.1978,3.2194,3.2366,3.2473,3.256,3.2775,3.2904,3.2904,3.299,3.3206,3.3529,3.3809,3.4153,3.4476,3.4584,3.4498,3.439,3.4304,3.4218,3.4304,3.5741,3.7927,3.9981,4.4115,4.7163,4.9431,5.1488,5.2778,5.3221,5.3289,5.3735,5.4351,5.4831,5.5036,5.5241,5.5824,5.6406,5.6851,5.7468,5.7981,5.7981,5.8221,5.8358,5.8495,5.8529,5.8757,6.0544,6.2608,6.3844,6.5092,6.7458,6.9641,6.9723,6.9929,7.0752,7.0835,7.1001,7.1166,7.1373,7.158,7.1705,7.1829,7.2036,7.2284,7.245,7.2408,7.2326,7.1861,7.1018,6.9664,6.8164,6.6657,6.5081,1.1596,1.1555,1.1563,1.1531,1.149,1.149,1.1465,1.1425,1.1416,1.1425,1.1416,1.1384,1.1359,1.1359,1.131,1.1286,1.131,1.1384,1.2001,1.3067,1.3779,1.449,1.5055,1.5264,1.5472,1.5734,1.6801,1.8986,2.1571,2.4248,2.6501,2.9497,3.0574,3.144,3.1526,3.1655,3.1698,3.1763,3.1957,3.2086,3.2086,3.2194,3.2344,3.256,3.2732,3.2818,3.2947,3.3055,3.3119,3.3163,3.3249,3.3399,3.3636,3.3895,3.4218,3.4476,3.4455,3.4455,3.4368,3.4282,3.4153,3.4045,3.5036,3.728,3.9705,4.3373,4.6453,4.9233,5.1615,5.3426,5.3769,5.3837,5.4214,5.4865,5.5447,5.5687,5.5721,5.6337,5.6885,5.7159,5.7742,5.829,5.8598,5.8632,5.894,5.9043,5.9111,5.9341,6.092,6.2936,6.3563,6.487,6.7434,6.8894,6.8859,6.9805,7.1125,7.1291,7.1456,7.1622,7.1829,7.2036,7.2243,7.2326,7.2367,7.2408,7.2533,7.2491,7.1902,7.0723,6.9584,6.8186,6.6422,6.49,6.3346,1.171,1.1694,1.1629,1.1596,1.1588,1.1588,1.1572,1.1547,1.1498,1.149,1.1449,1.1367,1.1367,1.1335,1.1302,1.1302,1.1359,1.1441,1.2094,1.2735,1.3382,1.4128,1.4694,1.5392,1.5603,1.5613,1.5933,1.7368,1.9736,2.2188,2.5395,2.7645,3.0201,3.1612,3.1827,3.1957,3.1957,3.2,3.2194,3.2323,3.2323,3.2473,3.2667,3.2861,3.2926,3.3055,3.3206,3.3335,3.3399,3.3442,3.3658,3.3787,3.3873,3.4024,3.4239,3.4498,3.4433,3.4455,3.4519,3.4347,3.4196,3.411,3.4607,3.6324,3.9552,4.3037,4.6473,4.9399,5.2079,5.4009,5.418,5.4317,5.4659,5.5276,5.5961,5.62,5.6235,5.6885,5.7194,5.7159,5.7707,5.8358,5.8632,5.8735,5.918,5.9557,5.9591,6.0158,6.145,6.2516,6.3085,6.4482,6.6778,6.954,7.0088,6.9843,7.1124,7.1454,7.1619,7.2036,7.199,7.2408,7.2574,7.2574,7.2615,7.2698,7.2698,7.2698,7.1771,6.9664,6.8264,6.6977,6.4938,6.2913,6.205,1.1768,1.1702,1.1768,1.1751,1.1678,1.1678,1.1637,1.158,1.1621,1.1653,1.1629,1.1555,1.149,1.1474,1.1343,1.1376,1.1498,1.1588,1.1945,1.2788,1.3232,1.4002,1.4745,1.5234,1.5711,1.5733,1.5999,1.7197,1.9576,2.2265,2.5001,2.7556,3.0325,3.1698,3.1957,3.2086,3.2194,3.2215,3.2409,3.2495,3.2538,3.2581,3.2753,3.2969,3.3012,3.3141,3.3356,3.3529,3.3701,3.3916,3.4132,3.4347,3.4498,3.4605,3.4713,3.4821,3.4842,3.4821,3.4778,3.4691,3.4519,3.4652,3.5584,3.7165,4.0263,4.3762,4.687,4.9992,5.2776,5.4831,5.4625,5.4831,5.5241,5.5721,5.6132,5.6509,5.6748,5.7091,5.7331,5.7091,5.7673,5.829,5.8529,5.8769,5.9077,5.9317,5.9351,5.9591,6.0598,6.1537,6.2083,6.3897,6.6067,6.8891,7.1409,7.0829,7.1162,7.1068,7.1525,7.1943,7.2108,7.2781,7.2864,7.2395,7.2478,7.2857,7.2815,7.2692,7.1007,6.8856,6.7312,6.587,6.3922,6.2015,6.2014,1.1808,1.1776,1.1817,1.1808,1.1776,1.1768,1.1743,1.1702,1.1702,1.1694,1.1653,1.1555,1.149,1.1465,1.1408,1.1465,1.1604,1.167,1.1995,1.2307,1.3051,1.3541,1.4286,1.5021,1.551,1.5777,1.6055,1.7024,1.963,2.2265,2.4845,2.7745,3.0511,3.1914,3.2215,3.2387,3.243,3.2473,3.2538,3.2603,3.2603,3.2603,3.2796,3.3055,3.3184,3.3335,3.3658,3.3765,3.4045,3.4347,3.4519,3.4756,3.4993,3.5101,3.5036,3.4993,3.5036,3.4971,3.4799,3.4605,3.4476,3.4412,3.5435,3.7377,3.9753,4.3058,4.6887,5.0772,5.2383,5.4296,5.5241,5.5413,5.5687,5.6098,5.6577,5.6885,5.7022,5.7296,5.7262,5.7091,5.7502,5.7981,5.8427,5.87,5.8974,5.9077,5.9111,5.9488,5.9899,6.0389,6.1218,6.2669,6.464,6.6939,6.9487,6.9839,6.9799,7.0159,7.0616,7.0994,7.1709,7.2129,7.1954,7.1438,7.1818,7.164,7.1954,7.1236,6.9469,6.7648,6.6135,6.4552,6.2762,6.15,6.1715,1.1833,1.1833,1.1833,1.1833,1.1833,1.1833,1.1833,1.1817,1.1735,1.1694,1.167,1.1514,1.1433,1.1433,1.1465,1.1539,1.1694,1.171,1.1784,1.2095,1.257,1.306,1.357,1.4531,1.5021,1.5521,1.5864,1.6848,1.8927,2.2085,2.4688,2.7334,2.9926,3.215,3.2495,3.256,3.2603,3.2603,3.2603,3.2603,3.2603,3.2667,3.2861,3.3292,3.3356,3.3593,3.3938,3.4153,3.439,3.4713,3.495,3.5144,3.5445,3.5553,3.5359,3.5014,3.5079,3.4907,3.4756,3.467,3.4713,3.4627,3.4562,3.683,4.013,4.3466,4.6796,5.1059,5.3058,5.3754,5.4871,5.5608,5.6063,5.6372,5.6885,5.7331,5.7228,5.7331,5.7468,5.7399,5.7468,5.7605,5.7981,5.8392,5.8632,5.8906,5.8974,5.9522,5.9899,5.9831,6.0355,6.1255,6.2721,6.4712,6.6358,6.74,6.7737,6.8385,6.8945,6.9505,7.0522,7.1242,7.0721,7.016,6.8966,6.8741,6.9258,6.9623,6.8162,6.6587,6.4956,6.3637,6.2293,6.192,6.2128,1.1833,1.1833,1.1833,1.1833,1.1833,1.1833,1.1833,1.1825,1.1743,1.1702,1.1686,1.1523,1.1433,1.1449,1.1514,1.1596,1.1694,1.1776,1.1849,1.1915,1.2367,1.2868,1.3159,1.4316,1.4817,1.5083,1.566,1.5853,1.7525,2.1232,2.4057,2.5957,2.9478,3.215,3.256,3.2603,3.2603,3.2603,3.2624,3.2624,3.2646,3.2818,3.3055,3.3313,3.3529,3.3722,3.4045,3.4347,3.4735,3.5014,3.5445,3.5682,3.5811,3.5984,3.579,3.5531,3.5381,3.5381,3.523,3.5144,3.5079,3.495,3.495,3.7244,4.0506,4.4959,4.8314,5.0689,5.2646,5.3631,5.4169,5.5377,5.6051,5.6474,5.6529,5.7194,5.7296,5.7365,5.7468,5.7605,5.7639,5.7365,5.7433,5.7879,5.829,5.8564,5.894,5.9522,5.9899,5.9899,6.027,6.1213,6.1748,6.3188,6.3829,6.4817,6.5494,6.6131,6.7154,6.7907,6.8548,6.9229,6.9609,6.8819,6.7075,6.6154,6.6846,6.7,6.6125,6.5396,6.45,6.3639,6.2506,6.2365,6.2297,1.1923,1.1833,1.1833,1.1833,1.1833,1.1833,1.1833,1.1825,1.1792,1.1743,1.1678,1.1563,1.1506,1.1506,1.1547,1.1645,1.1759,1.1817,1.1882,1.1947,1.2179,1.2691,1.3009,1.3498,1.3967,1.4959,1.5301,1.5821,1.7223,1.9615,2.2635,2.6344,2.8538,3.0884,3.2312,3.2603,3.2689,3.2775,3.2818,3.2818,3.284,3.2947,3.3141,3.3486,3.3615,3.3809,3.4089,3.4498,3.4842,3.5122,3.5553,3.5876,3.594,3.5984,3.5833,3.5704,3.551,3.5381,3.5251,3.5273,3.5208,3.5144,3.5368,3.6875,4.0732,4.4432,4.813,5.0275,5.1189,5.2145,5.3132,5.4247,5.4821,5.5462,5.6206,5.6699,5.7262,5.7433,5.7536,5.7673,5.781,5.7673,5.7381,5.805,5.87,5.9214,5.942,5.9728,6.007,6.0139,6.0614,6.1396,6.1631,6.19,6.224,6.2814,6.2743,6.353,6.4872,6.5636,6.6206,6.6812,6.7266,6.7113,6.5885,6.5222,6.4861,6.4625,6.4245,6.4115,6.402,6.3304,6.257,6.2536,6.2433,1.1988,1.1866,1.1866,1.1866,1.1866,1.1841,1.1817,1.18,1.1792,1.1735,1.1637,1.1555,1.1531,1.158,1.1612,1.1719,1.1825,1.1857,1.1923,1.1964,1.198,1.2262,1.2812,1.3089,1.3572,1.4572,1.5174,1.5446,1.6386,1.8324,2.1581,2.7018,2.7877,2.9737,3.1732,3.2603,3.2667,3.2796,3.2818,3.2883,3.2947,3.3033,3.3292,3.355,3.3744,3.3852,3.4067,3.4584,3.495,3.5144,3.5639,3.5962,3.6005,3.5897,3.579,3.566,3.551,3.5381,3.5294,3.523,3.5187,3.5454,3.5989,3.7878,4.1109,4.3426,4.5804,4.9229,5.0184,5.1081,5.1791,5.3039,5.3804,5.47,5.5409,5.6376,5.6869,5.7176,5.7517,5.805,5.8221,5.8324,5.8097,5.8564,5.9077,5.9762,6.0036,6.007,6.0242,6.0413,6.0786,6.1298,6.1298,6.1264,6.1298,6.1367,6.0858,6.113,6.2451,6.3835,6.464,6.5127,6.5113,6.4681,6.4481,6.3878,6.3576,6.2819,6.2369,6.3096,6.3583,6.3095,6.2707,6.2673,6.2639,1.1964,1.1955,1.1947,1.1947,1.1939,1.1866,1.1784,1.1735,1.1719,1.1629,1.1506,1.1449,1.1506,1.158,1.1702,1.1792,1.1841,1.1915,1.198,1.2013,1.2021,1.2021,1.232,1.2847,1.308,1.3544,1.4438,1.5276,1.5518,1.6507,2.0004,2.4267,2.6486,2.9628,3.1795,3.2646,3.2646,3.271,3.271,3.284,3.3012,3.3184,3.3421,3.3658,3.3873,3.4024,3.4067,3.4648,3.4993,3.5079,3.5639,3.5897,3.5833,3.579,3.5682,3.5553,3.5488,3.5424,3.5424,3.5381,3.5402,3.594,3.7015,3.8669,4.1194,4.3983,4.642,4.8232,4.9308,5.023,5.0854,5.1502,5.2784,5.3359,5.4322,5.5098,5.5878,5.683,5.7202,5.8131,5.8301,5.8073,5.8472,5.8906,5.9111,5.9728,6.0173,6.0242,6.0516,6.0687,6.0721,6.1061,6.0824,6.1096,6.1061,6.079,6.0721,6.0721,6.1535,6.2686,6.353,6.3581,6.3665,6.3878,6.3436,6.2853,6.2262,6.2399,6.257,6.2913,6.305,6.2947,6.2913,6.2947,6.2947,1.2094,1.2037,1.1988,1.1964,1.1955,1.1874,1.1817,1.1784,1.1776,1.1719,1.158,1.1539,1.1555,1.1645,1.1702,1.1784,1.1833,1.1866,1.1947,1.198,1.1988,1.2021,1.2329,1.2404,1.2673,1.316,1.4282,1.5123,1.5378,1.5877,1.9672,2.3426,2.5596,2.8655,3.1029,3.271,3.2732,3.2689,3.2775,3.2947,3.3141,3.327,3.3507,3.3873,3.3938,3.4024,3.411,3.4584,3.4799,3.5036,3.5467,3.5596,3.5639,3.5617,3.5553,3.5467,3.5445,3.551,3.5574,3.5531,3.5445,3.5488,3.6364,3.7848,4.0417,4.24,4.4623,4.6462,4.8494,4.9659,4.9539,5.0368,5.1245,5.1791,5.2719,5.3716,5.4622,5.5568,5.6159,5.6754,5.725,5.7648,5.8114,5.9146,5.9351,5.9892,6.0036,6.0447,6.0687,6.0892,6.0858,6.079,6.0824,6.0653,6.0584,6.055,6.055,6.0584,6.0584,6.1569,6.2521,6.2293,6.2333,6.2645,6.2992,6.2713,6.2639,6.281,6.2947,6.2981,6.305,6.3118,6.3118,6.3153,6.305,1.216,1.2086,1.1972,1.1939,1.1947,1.1866,1.1817,1.18,1.1825,1.1784,1.1694,1.1629,1.1637,1.1694,1.1768,1.1784,1.1849,1.1898,1.1955,1.2004,1.2053,1.2078,1.2151,1.2209,1.2512,1.3029,1.3847,1.4405,1.4917,1.5695,1.9483,2.2984,2.468,2.7734,3.1319,3.2753,3.2796,3.2796,3.2883,3.3206,3.3442,3.3486,3.3679,3.4024,3.4089,3.411,3.4196,3.4498,3.4713,3.4928,3.5187,3.5359,3.5424,3.5445,3.5445,3.5445,3.5467,3.5531,3.5596,3.5639,3.5574,3.5725,3.5725,3.7216,3.8984,4.1325,4.4134,4.6019,4.7723,4.8904,4.8816,4.9599,5.0291,5.1132,5.1308,5.2269,5.3326,5.4297,5.4817,5.5372,5.6162,5.732,5.8182,5.9214,5.9557,6.0029,6.0105,6.0481,6.0755,6.0892,6.0927,6.0824,6.0755,6.0516,6.0545,6.0242,6.0242,6.0413,6.0481,6.0755,6.1233,6.1338,6.1749,6.2437,6.2781,6.281,6.2947,6.2981,6.2913,6.2844,6.2981,6.3153,6.3153,6.3118,6.2947,1.2102,1.2078,1.1915,1.189,1.1939,1.1874,1.1792,1.1743,1.18,1.1792,1.1719,1.1694,1.1694,1.1743,1.1849,1.1882,1.1874,1.1988,1.2062,1.2062,1.2111,1.2192,1.2233,1.2274,1.2282,1.252,1.3081,1.3902,1.4415,1.5183,1.8988,2.2777,2.4762,2.7521,3.2106,3.2603,3.2732,3.2926,3.2947,3.3335,3.3658,3.3658,3.3873,3.411,3.411,3.411,3.4304,3.439,3.4627,3.4993,3.5079,3.5251,3.5402,3.5424,3.5445,3.5445,3.5445,3.5467,3.5488,3.5682,3.5876,3.6005,3.5984,3.6892,3.9381,4.1695,4.3684,4.5398,4.7641,4.8838,4.9138,4.9138,4.9928,5.0071,5.0291,5.0841,5.1918,5.2491,5.3005,5.385,5.5861,5.7287,5.8351,5.9248,5.9659,5.9968,6.0207,6.0481,6.079,6.0961,6.1029,6.0927,6.0824,6.0211,6.0242,5.9968,5.9933,5.987,6.0108,6.0653,6.1132,6.1646,6.2057,6.2468,6.2742,6.2981,6.305,6.3084,6.2879,6.2742,6.2981,6.3153,6.3153,6.3084,6.2947,1.2062,1.2004,1.1947,1.1898,1.1874,1.1849,1.1817,1.18,1.1817,1.1817,1.1792,1.1792,1.1784,1.1825,1.1882,1.1915,1.1882,1.2013,1.2086,1.2029,1.2119,1.2127,1.2176,1.2249,1.2274,1.252,1.3081,1.339,1.3646,1.4671,1.7205,2.0752,2.5298,2.9077,3.1588,3.2603,3.2667,3.2753,3.2904,3.3163,3.3529,3.3658,3.383,3.4153,3.4089,3.4153,3.4347,3.439,3.4627,3.5036,3.5122,3.523,3.5402,3.5445,3.5424,3.5424,3.5445,3.5617,3.5811,3.6027,3.607,3.6156,3.6242,3.6648,3.8065,4.0031,4.2138,4.4725,4.6649,4.8136,4.9396,4.9226,4.9638,4.9579,4.9695,4.9873,5.0436,5.0526,5.0972,5.2406,5.385,5.5886,5.732,5.8553,5.9461,6.0002,6.0207,6.0516,6.0824,6.1098,6.1235,6.1098,6.0927,6.0279,5.9938,5.9865,5.9625,5.9461,5.9836,6.0516,6.1098,6.1851,6.2262,6.2639,6.2879,6.3084,6.2879,6.2742,6.2673,6.2639,6.2879,6.3084,6.3153,6.3084,6.2981,1.2037,1.2004,1.1939,1.189,1.1841,1.1833,1.1833,1.1833,1.1833,1.1833,1.1833,1.1833,1.1833,1.1849,1.1882,1.1898,1.1857,1.2013,1.2086,1.2029,1.2143,1.22,1.2233,1.2241,1.2298,1.2554,1.2834,1.3133,1.339,1.4159,1.6695,2.0485,2.5282,2.8577,3.0842,3.1609,3.2667,3.2796,3.3012,3.3292,3.3572,3.3765,3.3916,3.4089,3.4132,3.4132,3.4304,3.4476,3.4648,3.5014,3.5187,3.5273,3.5445,3.5488,3.5424,3.5359,3.5359,3.5617,3.5984,3.6134,3.622,3.6436,3.65,3.6565,3.7017,3.8968,4.0918,4.2941,4.5223,4.7141,4.8719,4.8533,4.9489,4.943,4.9372,4.9518,4.9933,5.0021,5.0319,5.1453,5.2805,5.4545,5.6349,5.7619,5.8959,5.9699,6.0207,6.0516,6.079,6.0995,6.1166,6.1029,6.0755,6.0276,5.9933,5.9659,5.9488,5.912,5.9665,6.0618,6.1303,6.2091,6.2433,6.2742,6.2913,6.2913,6.2502,6.2297,6.2262,6.2399,6.2673,6.2879,6.3084,6.3084,6.3016,1.2021,1.207,1.1906,1.1841,1.1841,1.1841,1.1833,1.1833,1.1833,1.1833,1.1833,1.1833,1.1833,1.1833,1.1841,1.1841,1.1874,1.2021,1.2062,1.2119,1.2217,1.2282,1.2323,1.2339,1.2347,1.2356,1.2629,1.2877,1.339,1.3646,1.5674,1.9483,2.4527,2.7307,2.8827,3.1112,3.2461,3.2904,3.3141,3.3464,3.3787,3.3959,3.411,3.4196,3.4218,3.4218,3.4347,3.4498,3.4821,3.5101,3.5251,3.5445,3.5553,3.5574,3.5359,3.523,3.5208,3.5617,3.6027,3.6156,3.6371,3.6586,3.6608,3.6565,3.7187,3.8479,3.9825,4.1949,4.4102,4.579,4.7416,4.8862,5.0045,4.9899,4.9752,4.984,4.9986,5.0045,5.0045,5.1033,5.2085,5.3893,5.6275,5.7549,5.8556,5.9802,6.031,6.0516,6.0721,6.0653,6.079,6.0755,6.0413,6.0133,5.9892,5.9625,5.9488,5.942,6.004,6.1029,6.1714,6.2228,6.2605,6.2844,6.2947,6.2776,6.2194,6.192,6.1851,6.2057,6.2331,6.2776,6.3016,6.3118,6.3016,1.2078,1.2086,1.1972,1.1923,1.1915,1.1857,1.1833,1.1833,1.1833,1.1833,1.1833,1.1833,1.1833,1.1841,1.1898,1.1874,1.1923,1.1988,1.2021,1.2102,1.2209,1.2258,1.2298,1.2339,1.2364,1.2372,1.2372,1.2629,1.2877,1.3133,1.4159,1.7205,2.2762,2.4795,2.7307,3.0344,3.2026,3.299,3.3227,3.3572,3.3895,3.4024,3.4175,3.4239,3.4282,3.4282,3.4368,3.4691,3.4993,3.5122,3.5467,3.566,3.5488,3.5768,3.5854,3.566,3.566,3.579,3.6113,3.6307,3.6479,3.6651,3.6694,3.6888,3.7212,3.7773,3.9007,4.0829,4.2886,4.4838,4.678,4.8296,4.9765,5.0162,5.0045,5.0074,5.0191,5.025,5.025,5.0521,5.1874,5.3142,5.5498,5.7239,5.8249,5.9736,6.0413,6.0516,6.055,6.0447,6.0413,6.0413,6.0242,6.0064,6.0098,5.9865,5.9659,5.9659,6.0516,6.0927,6.1577,6.2091,6.2639,6.281,6.2742,6.2297,6.1714,6.1543,6.1406,6.168,6.1954,6.2468,6.2913,6.305,6.3016,1.207,1.2078,1.1964,1.1906,1.1898,1.1857,1.1833,1.1833,1.1833,1.1833,1.1833,1.1833,1.1833,1.1841,1.1882,1.1882,1.1849,1.1964,1.2029,1.2086,1.216,1.2249,1.2307,1.2339,1.2364,1.2372,1.2372,1.2372,1.2629,1.3133,1.4159,1.5429,2.0485,2.3282,2.5801,2.9596,3.2568,3.3033,3.3292,3.355,3.3787,3.4002,3.4132,3.4218,3.4261,3.4304,3.4412,3.4799,3.5014,3.5187,3.5596,3.566,3.551,3.5725,3.579,3.5553,3.551,3.5725,3.607,3.6263,3.6436,3.663,3.678,3.6888,3.6953,3.7212,3.7949,3.9234,4.1533,4.352,4.5751,4.794,4.9146,5.0338,5.0308,5.0308,5.0367,5.0455,5.0425,5.0639,5.1301,5.2538,5.4205,5.6249,5.7739,5.8623,5.9431,6.0139,6.0139,6.007,6.007,6.007,6.0002,5.9796,5.9899,5.9865,5.9728,5.9831,6.0313,6.0927,6.1509,6.2023,6.2639,6.2605,6.2365,6.1954,6.1543,6.1098,6.0927,6.1303,6.1783,6.2365,6.281,6.3084,6.2981,1.2021,1.207,1.1915,1.1849,1.1833,1.1833,1.1833,1.1833,1.1833,1.1833,1.1833,1.1833,1.1833,1.1841,1.1849,1.1849,1.1849,1.1923,1.1996,1.2086,1.2151,1.2233,1.2307,1.2364,1.2372,1.2372,1.2372,1.2372,1.2629,1.3133,1.3902,1.4661,1.9978,2.3015,2.5047,2.9077,3.1776,3.3098,3.3249,3.3442,3.3765,3.3938,3.4045,3.4089,3.4132,3.4175,3.439,3.467,3.4971,3.5251,3.551,3.5617,3.566,3.5424,3.5359,3.5402,3.5381,3.566,3.5984,3.6199,3.6457,3.6673,3.6866,3.6866,3.6866,3.6909,3.7624,3.8298,4.0291,4.2631,4.489,4.722,4.8795,5.0054,5.0543,5.0513,5.0484,5.0601,5.0747,5.066,5.0904,5.2114,5.3204,5.5209,5.6425,5.7483,5.8322,5.9329,5.9762,5.9694,5.9694,5.9728,5.9659,5.9591,5.9488,5.9488,5.9659,5.9733,6.0347,6.0893,6.144,6.2023,6.2707,6.2502,6.2228,6.1886,6.1475,6.1029,6.079,6.1201,6.1714,6.2297,6.2707,6.2981,6.2913,1.2037,1.1988,1.1947,1.1898,1.1841,1.1833,1.1833,1.1833,1.1833,1.1833,1.1833,1.1833,1.1833,1.1833,1.1825,1.1825,1.1841,1.1866,1.1923,1.2004,1.2094,1.2192,1.2274,1.2331,1.2356,1.2372,1.2372,1.2364,1.2612,1.3125,1.3646,1.4149,1.8708,2.1498,2.3771,2.8058,3.0755,3.2321,3.3163,3.3486,3.3959,3.4045,3.4089,3.4196,3.4282,3.4282,3.4476,3.4778,3.4971,3.5187,3.5574,3.5833,3.6048,3.5424,3.5359,3.5574,3.5445,3.5639,3.5919,3.6156,3.6371,3.6608,3.6759,3.678,3.6802,3.6845,3.7212,3.7861,3.9098,4.1461,4.3799,4.6161,4.8217,4.9517,5.0777,5.0718,5.063,5.0835,5.104,5.0952,5.0864,5.1598,5.266,5.3778,5.4988,5.6405,5.7279,5.8389,5.8955,5.9385,5.9317,5.9351,5.9351,5.9248,5.918,5.9283,5.9522,5.9495,6.0006,6.0552,6.1406,6.2194,6.2879,6.2468,6.2125,6.192,6.1543,6.0858,6.0824,6.1269,6.1612,6.1915,6.2468,6.2707,6.2707,1.2004,1.1955,1.1923,1.1882,1.1841,1.1833,1.1833,1.1833,1.1833,1.1833,1.1825,1.18,1.1792,1.1808,1.1792,1.1808,1.1825,1.1833,1.1898,1.1964,1.2021,1.2119,1.2209,1.229,1.229,1.2307,1.2315,1.2307,1.2331,1.2612,1.3133,1.4149,1.7448,1.9991,2.2509,2.607,2.9192,3.1168,3.2279,3.3167,3.3959,3.3916,3.3916,3.4045,3.4153,3.4239,3.4433,3.467,3.4799,3.4971,3.5273,3.5445,3.5531,3.5273,3.5316,3.5445,3.5467,3.5488,3.5854,3.607,3.6242,3.6479,3.6608,3.6608,3.6823,3.6888,3.6888,3.7558,3.7864,3.9982,4.2313,4.4384,4.6734,4.841,5.0241,5.0952,5.104,5.1245,5.1216,5.1011,5.0835,5.0845,5.1602,5.2265,5.3738,5.4339,5.5543,5.7384,5.7987,5.8983,5.8881,5.9077,5.918,5.918,5.918,5.9317,5.9557,5.9529,5.9733,6.0518,6.1577,6.2468,6.3016,6.2673,6.2399,6.2228,6.1749,6.1166,6.1166,6.1612,6.1574,6.1779,6.1984,6.2365,6.2262,1.1955,1.1931,1.1866,1.1833,1.1833,1.1833,1.1833,1.1833,1.1833,1.1833,1.1825,1.1743,1.1759,1.1776,1.1768,1.1792,1.1817,1.1833,1.189,1.1939,1.1964,1.207,1.216,1.2233,1.2258,1.2266,1.2266,1.2274,1.229,1.2587,1.339,1.4661,1.644,1.8721,2.1259,2.4592,2.7722,2.9384,3.1038,3.2447,3.3145,3.355,3.3701,3.3809,3.3895,3.4132,3.4304,3.4412,3.4541,3.4799,3.5058,3.5165,3.5187,3.5101,3.5208,3.5273,3.5273,3.5424,3.5704,3.5811,3.607,3.6307,3.6393,3.6522,3.6716,3.6823,3.6823,3.6996,3.7581,3.863,4.0948,4.2766,4.5126,4.8099,4.9637,5.1274,5.145,5.1596,5.1391,5.1186,5.0923,5.063,5.091,5.1573,5.2083,5.292,5.4056,5.5586,5.7086,5.7953,5.8486,5.8983,5.9283,5.9283,5.9283,5.9154,5.9427,5.9762,6.007,6.0892,6.1749,6.257,6.3016,6.2947,6.2673,6.2399,6.216,6.1714,6.1851,6.1817,6.1817,6.1506,6.1472,6.1817,6.1749,1.1923,1.1857,1.1841,1.1833,1.1833,1.1833,1.1833,1.1833,1.1833,1.1833,1.1808,1.1751,1.1751,1.1833,1.1825,1.1825,1.1825,1.1833,1.189,1.1947,1.1939,1.2029,1.2102,1.2168,1.2266,1.2274,1.2249,1.2274,1.2282,1.2843,1.3133,1.3125,1.4927,1.6961,1.8988,2.2077,2.4722,2.7343,2.9404,3.1018,3.2974,3.3442,3.3765,3.3852,3.3916,3.4153,3.4325,3.4368,3.4648,3.4907,3.5036,3.5058,3.5014,3.495,3.5058,3.5144,3.5122,3.5359,3.5574,3.5596,3.5854,3.6134,3.6199,3.622,3.6393,3.6565,3.6651,3.6802,3.7342,3.8386,4.0172,4.1207,4.3332,4.7229,5.0086,5.1067,5.1801,5.183,5.1742,5.1538,5.1333,5.0952,5.0513,5.1241,5.1513,5.2055,5.2835,5.4308,5.6349,5.7218,5.8087,5.8655,5.9154,5.9557,5.9659,5.9159,5.9329,5.9631,6.0105,6.0892,6.1714,6.2605,6.2913,6.2707,6.2605,6.2399,6.2194,6.1988,6.1714,6.1577,6.1543,6.1509,6.1372,6.1235,6.1201]}]]